[[{"header":{"parameterUnit":"m.s-1","parameterCategory":1,"la1":30.6,"la2":29.2853,"lo1":-89.7004,"lo2":-87.6739,"dy":0.0162,"dx":0.0183,"nx":112,"ny":82,"refTime":"2023-03-05T18:00:00:Z","depth":0,"parameterNumber":2,"parameterNumberName":"U-component_of_WINDS"},"data":[0.0,0.0,0.0,0.0,0.0,0.0,0.0,0.0,0.0,0.0,0.0,0.0,0.0,0.0,0.0,0.0,0.0,0.0,0.0,0.0,0.0,0.0,0.0,0.0,0.0,0.0,0.0,0.0,0.0,0.0,0.0,0.0,0.0,0.0,0.0,0.0,0.0,0.0,0.0,0.0,0.0,0.0,0.0,0.0,0.0,0.0,0.0,0.0,0.0,0.0,0.0,0.0,0.0,0.0,0.0,0.0,0.0,0.0,0.0,0.0,0.0,0.0,0.0,0.0,0.0,0.0,0.0,0.0,0.0,0.0,0.0,0.0,0.0,0.0,0.0,0.0,0.0,0.0,0.0,0.0,0.0,0.0,0.0,0.0,0.0,0.0,0.0,0.0,0.0,0.0,-4.7394,-4.9415,-5.1771,-5.3261,-5.3374,-5.2475,-5.133,-4.9959,0.0,0.0,0.0,0.0,0.0,0.0,0.0,0.0,0.0,0.0,0.0,0.0,0.0,0.0,0.0,0.0,0.0,0.0,0.0,0.0,0.0,0.0,0.0,0.0,0.0,0.0,0.0,0.0,0.0,0.0,0.0,0.0,0.0,0.0,0.0,0.0,0.0,0.0,0.0,0.0,0.0,0.0,0.0,0.0,0.0,0.0,0.0,0.0,0.0,0.0,0.0,0.0,0.0,0.0,0.0,0.0,0.0,0.0,0.0,0.0,0.0,0.0,0.0,0.0,0.0,0.0,0.0,0.0,0.0,0.0,0.0,0.0,0.0,0.0,0.0,0.0,0.0,0.0,0.0,0.0,0.0,0.0,0.0,0.0,0.0,0.0,0.0,0.0,0.0,0.0,0.0,0.0,0.0,0.0,0.0,0.0,0.0,0.0,0.0,0.0,0.0,0.0,0.0,0.0,-4.7916,-5.115,-5.2531,-5.3487,-5.4165,-5.2794,-5.1799,-5.1555,0.0,0.0,0.0,0.0,0.0,0.0,0.0,0.0,0.0,0.0,0.0,0.0,0.0,0.0,0.0,0.0,0.0,0.0,0.0,0.0,0.0,0.0,0.0,0.0,0.0,0.0,0.0,0.0,0.0,0.0,0.0,0.0,0.0,0.0,0.0,0.0,0.0,0.0,0.0,0.0,0.0,0.0,0.0,0.0,0.0,0.0,0.0,0.0,0.0,0.0,0.0,0.0,0.0,0.0,0.0,0.0,0.0,0.0,0.0,0.0,0.0,0.0,0.0,0.0,0.0,0.0,0.0,0.0,0.0,0.0,0.0,0.0,0.0,0.0,0.0,0.0,0.0,0.0,0.0,0.0,0.0,0.0,0.0,0.0,0.0,0.0,0.0,0.0,0.0,0.0,0.0,0.0,0.0,0.0,0.0,0.0,0.0,0.0,0.0,0.0,0.0,0.0,0.0,-4.8273,-5.0214,-5.2383,-5.3339,-5.3996,-5.4371,-5.3301,-5.24,-5.1931,-4.9196,0.0,0.0,0.0,0.0,0.0,0.0,0.0,0.0,0.0,0.0,0.0,0.0,0.0,0.0,0.0,0.0,0.0,0.0,0.0,0.0,0.0,0.0,0.0,0.0,0.0,0.0,0.0,0.0,0.0,0.0,0.0,0.0,0.0,0.0,0.0,0.0,0.0,0.0,0.0,0.0,0.0,0.0,0.0,0.0,0.0,0.0,0.0,0.0,0.0,0.0,0.0,0.0,0.0,0.0,0.0,0.0,0.0,0.0,0.0,0.0,0.0,0.0,0.0,0.0,0.0,0.0,0.0,0.0,0.0,0.0,0.0,0.0,0.0,0.0,0.0,0.0,0.0,0.0,0.0,0.0,0.0,0.0,0.0,0.0,0.0,0.0,0.0,0.0,0.0,0.0,0.0,0.0,0.0,0.0,0.0,0.0,0.0,0.0,0.0,0.0,0.0,0.0,-5.0295,-5.2158,-5.3357,-5.4202,-5.469,-5.469,-5.3939,-5.3019,-5.1968,-4.9565,0.0,0.0,0.0,0.0,0.0,0.0,0.0,0.0,0.0,0.0,0.0,0.0,0.0,0.0,0.0,0.0,0.0,0.0,0.0,0.0,0.0,0.0,0.0,0.0,0.0,0.0,0.0,0.0,0.0,0.0,0.0,0.0,0.0,0.0,0.0,0.0,0.0,0.0,0.0,0.0,0.0,0.0,0.0,0.0,0.0,0.0,0.0,0.0,0.0,0.0,0.0,0.0,0.0,0.0,0.0,0.0,0.0,0.0,0.0,0.0,0.0,0.0,0.0,0.0,0.0,0.0,0.0,0.0,0.0,0.0,0.0,0.0,0.0,0.0,0.0,0.0,0.0,0.0,0.0,0.0,0.0,0.0,0.0,0.0,0.0,0.0,0.0,0.0,0.0,0.0,0.0,0.0,0.0,0.0,0.0,0.0,0.0,0.0,0.0,0.0,0.0,0.0,-5.0634,-5.2366,-5.4129,-5.5047,-5.5518,-5.5518,-5.4784,-5.362,-5.2006,-4.9565,0.0,0.0,0.0,0.0,0.0,0.0,0.0,0.0,0.0,0.0,0.0,0.0,0.0,0.0,0.0,0.0,0.0,0.0,0.0,0.0,0.0,0.0,0.0,0.0,0.0,0.0,0.0,0.0,0.0,0.0,0.0,0.0,0.0,0.0,0.0,0.0,0.0,0.0,0.0,0.0,0.0,0.0,0.0,0.0,0.0,0.0,0.0,0.0,0.0,0.0,0.0,0.0,0.0,0.0,0.0,0.0,0.0,0.0,0.0,0.0,0.0,0.0,0.0,0.0,0.0,0.0,0.0,0.0,0.0,0.0,0.0,0.0,0.0,0.0,0.0,0.0,0.0,0.0,0.0,0.0,0.0,0.0,0.0,0.0,0.0,0.0,0.0,0.0,0.0,0.0,0.0,0.0,0.0,0.0,0.0,0.0,0.0,0.0,0.0,0.0,0.0,0.0,-5.1418,-5.3133,-5.4938,-5.5911,-5.6192,-5.5649,-5.5311,-5.4204,-5.2043,0.0,0.0,0.0,0.0,0.0,0.0,0.0,0.0,0.0,0.0,0.0,0.0,0.0,0.0,0.0,0.0,0.0,0.0,0.0,0.0,0.0,0.0,0.0,0.0,0.0,0.0,0.0,0.0,0.0,0.0,0.0,0.0,0.0,0.0,0.0,0.0,0.0,0.0,0.0,0.0,0.0,0.0,0.0,0.0,0.0,0.0,0.0,0.0,0.0,0.0,0.0,0.0,0.0,0.0,0.0,0.0,0.0,0.0,0.0,0.0,0.0,0.0,0.0,0.0,0.0,0.0,0.0,0.0,0.0,0.0,0.0,0.0,0.0,0.0,0.0,0.0,0.0,0.0,0.0,0.0,0.0,0.0,0.0,0.0,0.0,0.0,0.0,0.0,0.0,0.0,0.0,0.0,0.0,0.0,0.0,0.0,0.0,0.0,0.0,0.0,0.0,0.0,-5.0415,-5.2035,-5.3694,-5.5782,-5.6549,-5.6662,-5.6043,-5.5762,-5.4542,-5.2062,0.0,0.0,0.0,0.0,0.0,0.0,0.0,0.0,0.0,0.0,0.0,0.0,0.0,0.0,0.0,0.0,0.0,0.0,0.0,0.0,0.0,0.0,0.0,0.0,0.0,0.0,0.0,0.0,0.0,0.0,0.0,0.0,0.0,0.0,0.0,0.0,0.0,0.0,0.0,0.0,0.0,0.0,0.0,0.0,0.0,0.0,0.0,0.0,0.0,0.0,0.0,0.0,0.0,0.0,0.0,0.0,0.0,0.0,0.0,0.0,0.0,0.0,0.0,0.0,0.0,0.0,0.0,0.0,0.0,0.0,0.0,0.0,0.0,0.0,0.0,0.0,0.0,0.0,0.0,0.0,0.0,0.0,0.0,0.0,0.0,0.0,0.0,0.0,0.0,0.0,0.0,0.0,0.0,0.0,0.0,0.0,0.0,0.0,0.0,0.0,0.0,0.0,-5.1233,-5.239,-5.3918,-5.6606,-5.6887,-5.6887,-5.6887,-5.61,-5.4542,0.0,0.0,0.0,0.0,0.0,0.0,0.0,0.0,0.0,0.0,0.0,0.0,0.0,0.0,0.0,0.0,0.0,0.0,0.0,0.0,0.0,0.0,0.0,0.0,0.0,0.0,0.0,0.0,0.0,0.0,0.0,0.0,0.0,0.0,0.0,0.0,0.0,0.0,0.0,0.0,0.0,0.0,0.0,0.0,0.0,0.0,0.0,0.0,0.0,0.0,0.0,0.0,0.0,0.0,0.0,0.0,0.0,0.0,0.0,0.0,0.0,0.0,0.0,0.0,0.0,0.0,0.0,0.0,0.0,0.0,0.0,0.0,0.0,0.0,0.0,0.0,0.0,0.0,0.0,0.0,0.0,0.0,0.0,0.0,0.0,0.0,0.0,0.0,0.0,0.0,0.0,0.0,0.0,0.0,0.0,0.0,0.0,0.0,0.0,0.0,0.0,0.0,0.0,-5.1233,-5.239,-5.3918,-5.6606,-5.6887,-5.6887,-5.6887,-5.61,-5.4542,-5.2062,0.0,0.0,0.0,0.0,0.0,0.0,0.0,0.0,0.0,0.0,0.0,0.0,0.0,0.0,0.0,0.0,0.0,0.0,0.0,0.0,0.0,0.0,0.0,0.0,0.0,0.0,0.0,0.0,0.0,0.0,0.0,0.0,0.0,0.0,0.0,0.0,0.0,0.0,0.0,0.0,0.0,0.0,0.0,0.0,0.0,0.0,0.0,0.0,0.0,0.0,0.0,0.0,0.0,0.0,0.0,0.0,0.0,0.0,0.0,0.0,0.0,0.0,0.0,0.0,0.0,0.0,0.0,0.0,0.0,0.0,0.0,0.0,0.0,0.0,0.0,0.0,0.0,0.0,0.0,0.0,0.0,0.0,0.0,0.0,0.0,0.0,0.0,0.0,0.0,0.0,0.0,0.0,0.0,0.0,0.0,0.0,0.0,0.0,0.0,0.0,0.0,0.0,-5.1289,-5.2724,-5.4345,-5.6644,-5.6587,-5.6512,-5.6868,-5.5817,-5.4202,-5.2043,0.0,0.0,0.0,0.0,0.0,0.0,0.0,0.0,0.0,0.0,0.0,0.0,0.0,0.0,0.0,0.0,0.0,0.0,0.0,0.0,0.0,0.0,0.0,0.0,0.0,0.0,0.0,0.0,0.0,0.0,0.0,0.0,0.0,0.0,0.0,0.0,0.0,0.0,0.0,0.0,0.0,0.0,0.0,0.0,0.0,0.0,0.0,0.0,0.0,0.0,0.0,0.0,0.0,0.0,0.0,0.0,0.0,0.0,0.0,0.0,0.0,0.0,0.0,0.0,0.0,0.0,0.0,0.0,0.0,0.0,0.0,0.0,0.0,0.0,0.0,0.0,0.0,0.0,0.0,0.0,0.0,0.0,0.0,0.0,0.0,0.0,0.0,0.0,0.0,0.0,0.0,0.0,0.0,0.0,0.0,0.0,0.0,0.0,0.0,0.0,0.0,0.0,-5.1362,-5.315,-5.4885,-5.6718,-5.6061,-5.5873,-5.6812,-5.5366,-5.3677,-5.2006,0.0,0.0,0.0,0.0,0.0,0.0,0.0,0.0,0.0,0.0,0.0,0.0,0.0,0.0,0.0,0.0,0.0,0.0,0.0,0.0,0.0,0.0,0.0,0.0,0.0,0.0,0.0,0.0,0.0,0.0,0.0,0.0,0.0,0.0,0.0,0.0,0.0,0.0,0.0,0.0,0.0,0.0,0.0,0.0,0.0,0.0,0.0,0.0,0.0,0.0,0.0,0.0,0.0,0.0,0.0,0.0,0.0,0.0,0.0,0.0,-4.6852,-4.5603,0.0,0.0,0.0,0.0,0.0,0.0,0.0,0.0,0.0,0.0,0.0,0.0,0.0,0.0,0.0,0.0,0.0,0.0,0.0,0.0,0.0,0.0,0.0,0.0,0.0,0.0,0.0,0.0,0.0,0.0,0.0,0.0,0.0,0.0,0.0,0.0,0.0,0.0,0.0,0.0,-5.1362,-5.2626,-5.4193,-5.6643,-5.5554,-5.5272,-5.6756,-5.5366,-5.3677,-5.2006,-5.1743,0.0,0.0,0.0,0.0,0.0,0.0,0.0,0.0,0.0,0.0,0.0,0.0,0.0,0.0,0.0,0.0,0.0,0.0,0.0,0.0,0.0,0.0,0.0,0.0,0.0,0.0,0.0,0.0,0.0,0.0,0.0,0.0,0.0,0.0,0.0,0.0,0.0,0.0,0.0,0.0,0.0,0.0,0.0,0.0,0.0,0.0,0.0,0.0,0.0,0.0,0.0,0.0,0.0,0.0,0.0,0.0,0.0,0.0,0.0,-4.9413,-4.8233,0.0,0.0,0.0,0.0,0.0,0.0,0.0,0.0,0.0,0.0,0.0,0.0,0.0,0.0,0.0,0.0,0.0,0.0,0.0,0.0,0.0,0.0,0.0,0.0,0.0,0.0,0.0,0.0,0.0,0.0,0.0,0.0,0.0,0.0,0.0,0.0,0.0,0.0,0.0,0.0,-5.1474,-5.2847,-5.4507,-5.6662,-5.5404,-5.5085,-5.6756,-5.5366,-5.3864,-5.2588,-5.2137,0.0,0.0,0.0,0.0,0.0,0.0,0.0,0.0,0.0,0.0,0.0,0.0,0.0,0.0,0.0,0.0,0.0,0.0,0.0,0.0,0.0,0.0,0.0,0.0,0.0,0.0,0.0,0.0,0.0,0.0,0.0,0.0,0.0,0.0,0.0,0.0,0.0,0.0,0.0,0.0,0.0,0.0,0.0,0.0,0.0,0.0,0.0,0.0,0.0,0.0,0.0,0.0,0.0,-5.1563,-5.2063,-5.2987,-5.2987,-5.3357,-5.3912,-5.258,-5.1729,-5.1192,-4.9691,0.0,0.0,0.0,0.0,0.0,0.0,0.0,0.0,0.0,0.0,0.0,0.0,0.0,0.0,0.0,0.0,0.0,0.0,0.0,0.0,0.0,0.0,-4.9229,-5.0614,-5.1042,-5.0361,-4.7627,0.0,0.0,0.0,0.0,0.0,0.0,0.0,0.0,0.0,0.0,0.0,-5.1773,-5.3481,-5.5197,-5.6737,-5.5535,-5.5235,-5.6756,-5.5366,-5.4052,-5.3261,-5.2381,-5.1236,0.0,0.0,0.0,0.0,0.0,0.0,0.0,0.0,0.0,0.0,0.0,0.0,0.0,0.0,0.0,0.0,0.0,0.0,0.0,0.0,0.0,0.0,0.0,0.0,0.0,0.0,0.0,0.0,0.0,0.0,0.0,0.0,-4.1796,-4.2668,0.0,0.0,0.0,0.0,0.0,0.0,0.0,0.0,0.0,0.0,0.0,0.0,0.0,-4.842,-4.8769,-5.0176,-5.1732,-5.344,-5.344,-5.4257,-5.576,-5.576,-5.5835,-5.5928,-5.5705,0.0,-5.2135,-5.1874,0.0,0.0,0.0,0.0,0.0,0.0,0.0,0.0,0.0,0.0,0.0,0.0,0.0,0.0,0.0,0.0,0.0,0.0,0.0,0.0,0.0,0.0,-5.0822,-5.1083,-5.1176,-5.1102,-5.0786,-5.0565,-5.0065,-4.8732,-4.8454,-4.8026,0.0,0.0,0.0,0.0,0.0,0.0,-5.2539,-5.4324,-5.5818,-5.6793,-5.6042,-5.5854,-5.6812,-5.5366,-5.4052,-5.3261,-5.2381,-5.1499,-5.0595,-4.902,0.0,0.0,0.0,0.0,0.0,0.0,0.0,0.0,0.0,0.0,0.0,0.0,0.0,0.0,0.0,0.0,0.0,0.0,0.0,0.0,0.0,0.0,0.0,0.0,0.0,0.0,0.0,0.0,0.0,-4.2808,-4.3504,-4.4491,-4.4711,-4.4802,0.0,0.0,0.0,0.0,0.0,0.0,0.0,0.0,0.0,-4.766,-4.9214,-5.0565,-5.1603,-5.2308,-5.3533,-5.5206,-5.5206,-5.5837,-5.697,-5.697,-5.723,-5.7658,-5.7658,-5.6744,-5.5161,-5.4175,-5.3545,-5.3173,0.0,0.0,0.0,0.0,-5.2151,-5.2151,-5.2151,-5.1856,-5.1469,-5.1389,0.0,0.0,0.0,0.0,0.0,0.0,0.0,-4.9981,-5.0929,-5.1506,-5.2102,-5.3105,-5.3385,-5.359,-5.4093,-5.3833,-5.2828,-5.0693,-5.0267,-5.0062,-4.9373,-4.9295,0.0,0.0,0.0,-5.2141,-5.2852,-5.4492,-5.5931,-5.6812,-5.6136,-5.595,-5.6831,-5.5366,-5.424,-5.3902,-5.3076,-5.225,-5.1405,-5.0241,-4.9152,0.0,0.0,0.0,0.0,0.0,0.0,0.0,0.0,0.0,0.0,0.0,0.0,0.0,0.0,0.0,0.0,0.0,0.0,0.0,0.0,0.0,0.0,0.0,0.0,0.0,0.0,0.0,0.0,-4.4393,-4.4928,-4.5718,-4.5865,-4.5938,0.0,0.0,0.0,0.0,0.0,0.0,-4.7459,-4.8605,-4.9325,-4.9452,-5.1028,-5.2493,-5.3794,-5.424,-5.5169,-5.6617,-5.6617,-5.7138,-5.8122,-5.8122,-5.8568,-5.9348,-5.9348,-5.9014,-5.8287,-5.6351,-5.5441,-5.518,-5.4452,-5.4171,-5.4171,-5.4131,-5.4112,-5.4112,-5.4112,-5.3704,-5.3205,-5.3086,-5.2342,-5.1399,-5.0877,0.0,0.0,0.0,0.0,-5.1443,-5.2471,-5.29,-5.3438,-5.4982,-5.5414,-5.5677,-5.6273,-5.5995,-5.4932,-5.2548,-5.1917,-5.173,-5.1507,-5.1523,0.0,-5.1837,-5.2501,-5.3147,-5.3578,-5.4995,-5.6267,-5.7112,-5.6455,-5.6211,-5.6831,-5.5366,-5.4409,-5.4409,-5.3639,-5.2811,-5.1949,-5.1123,-5.0031,-4.8551,0.0,0.0,0.0,0.0,0.0,0.0,0.0,0.0,0.0,0.0,0.0,0.0,0.0,0.0,0.0,0.0,0.0,0.0,0.0,0.0,0.0,0.0,0.0,0.0,0.0,0.0,0.0,0.0,0.0,-4.5883,-4.6011,0.0,0.0,0.0,0.0,-4.842,-4.9252,-5.0065,-5.0898,-5.1028,-5.1121,-5.125,-5.2828,-5.3701,-5.3813,-5.5391,-5.6599,-5.7453,-5.7453,-5.8271,-5.9773,-5.9773,-6.0258,-6.1076,-6.1076,-6.1057,-6.0834,-5.8382,-5.6913,-5.6207,-5.6053,-5.5975,-5.5955,-5.5833,-5.5792,-5.5792,-5.5792,-5.5755,-5.5718,-5.5697,-5.4644,-5.3093,-5.1542,-5.1062,0.0,0.0,-5.1674,-5.2528,-5.3418,-5.4255,-5.5093,-5.6023,-5.6288,-5.6347,-5.6403,-5.6462,-5.6015,-5.4296,-5.3344,-5.2578,-5.1829,0.0,-5.1942,-5.2708,-5.2927,-5.3578,-5.5169,-5.6233,-5.715,-5.7957,-5.7319,-5.6849,-5.6887,-5.5366,-5.4409,-5.4409,-5.3639,-5.2811,-5.1949,-5.1123,-5.0297,-4.9452,-4.8626,0.0,0.0,0.0,0.0,0.0,0.0,0.0,0.0,0.0,0.0,0.0,0.0,0.0,0.0,0.0,0.0,0.0,0.0,0.0,0.0,0.0,0.0,0.0,0.0,0.0,0.0,0.0,0.0,-4.8272,-4.8919,0.0,-4.9399,-4.9676,-4.9991,-5.0361,-5.0694,-5.1009,-5.1306,-5.1807,-5.2364,-5.294,-5.3998,-5.5094,-5.6172,-5.6766,-5.749,-5.8289,-5.8809,-5.9348,-5.9903,-6.0481,-6.0908,-6.1206,-6.1206,-6.1206,-6.1131,-6.0258,-5.972,-5.9459,-5.9399,-5.9399,-5.9377,-5.9316,-5.8964,-5.8461,-5.8461,-5.7793,-5.6829,-5.623,-5.5636,-5.5042,-5.4389,-5.4184,-5.4223,-5.4283,-5.4547,-5.4883,-5.5277,-5.5613,-5.606,-5.6878,-5.7185,-5.7452,-5.7974,-5.7809,-5.7397,-5.6779,-5.592,-5.5193,-5.4912,-5.4892,-5.5021,-5.5302,-5.5449,-5.5727,-5.6326,-5.7151,-5.7788,-5.807,-5.7375,-5.6887,-5.6887,-5.5366,-5.4409,-5.4409,-5.4127,-5.3339,-5.1968,-5.163,-5.0842,-4.9527,-4.9189,-4.8758,0.0,0.0,0.0,0.0,0.0,0.0,0.0,0.0,0.0,0.0,0.0,0.0,0.0,0.0,0.0,0.0,0.0,0.0,0.0,0.0,0.0,0.0,0.0,0.0,0.0,0.0,-4.9154,-5.0061,-5.0729,-5.1176,-5.1269,-5.151,-5.1695,-5.1806,-5.2067,-5.2327,-5.2605,-5.3125,-5.3794,-5.463,-5.5429,-5.6395,-5.749,-5.7769,-5.8308,-5.9125,-5.9643,-6.0202,-6.0757,-6.1354,-6.1763,-6.2023,-6.2023,-6.2023,-6.2023,-6.2023,-6.2023,-6.1967,-6.1435,-6.1273,-6.1294,-6.1294,-6.0941,-6.0401,-6.008,-5.9239,-5.812,-5.6945,-5.6572,-5.6516,-5.6138,-5.6043,-5.6064,-5.6144,-5.6164,-5.624,-5.6616,-5.671,-5.6915,-5.7713,-5.8062,-5.835,-5.8892,-5.8728,-5.8502,-5.8502,-5.7529,-5.6706,-5.6706,-5.6724,-5.6778,-5.6778,-5.6833,-5.7,-5.7263,-5.7769,-5.8202,-5.8483,-5.7544,-5.6887,-5.6887,-5.5366,-5.4409,-5.4409,-5.4409,-5.377,-5.24,-5.2062,-5.1273,-4.9922,-4.964,-4.9227,-4.8626,0.0,0.0,0.0,0.0,0.0,0.0,0.0,0.0,0.0,0.0,0.0,0.0,0.0,0.0,0.0,0.0,0.0,0.0,0.0,0.0,0.0,0.0,0.0,-4.8028,-4.8997,-5.0056,-5.1024,-5.1249,-5.138,-5.1509,-5.2234,-5.2717,-5.2717,-5.3441,-5.4221,-5.5001,-5.5039,-5.5447,-5.632,-5.71,-5.7509,-5.7546,-5.8345,-5.9144,-5.9884,-5.994,-6.0834,-6.2413,-6.2432,-6.2859,-6.3602,-6.3602,-6.3602,-6.3602,-6.3602,-6.3602,-6.3453,-6.1967,-6.1458,-6.1581,-6.1581,-6.1562,-6.1392,-6.0431,-6.0011,-5.9645,-5.8048,-5.7546,-5.7398,-5.6617,-5.6376,-5.6376,-5.6376,-5.6376,-5.6543,-5.7342,-5.7546,-5.7751,-5.8531,-5.8843,-5.9004,-5.9023,-5.9159,-5.929,-5.929,-5.8032,-5.6962,-5.6962,-5.6962,-5.6962,-5.6962,-5.6962,0.0,-5.8033,-5.8127,-5.8445,-5.9178,-5.7845,-5.6887,-5.6849,-5.5348,-5.4409,-5.4409,-5.4409,-5.4033,-5.3224,-5.2381,-5.1555,-5.0764,-4.9959,-4.9565,-4.9584,0.0,0.0,0.0,0.0,0.0,0.0,0.0,0.0,0.0,0.0,0.0,0.0,0.0,0.0,0.0,0.0,0.0,0.0,0.0,0.0,0.0,0.0,-4.9044,-4.9145,-5.0554,-5.1688,-5.1989,-5.3179,-5.396,-5.4017,-5.4779,-5.528,-5.528,-5.5484,-5.5707,-5.593,-5.5949,-5.632,-5.7138,-5.7379,-5.7788,-5.8364,-5.9181,-5.9661,-5.9924,-6.1131,-6.1967,-6.2432,-6.3007,-6.3397,-6.3602,-6.3602,-6.3602,-6.3602,-6.3602,-6.3665,-6.3698,-6.3295,-6.3131,-6.3174,-6.3219,-6.2867,-6.2158,-6.0617,-6.0091,-5.9843,-5.8737,-5.8382,-5.8345,-5.8122,-5.8048,-5.8048,-5.8048,-5.8048,-5.8103,-5.8308,-5.8382,-5.8459,-5.8762,-5.8922,-5.9042,-5.9119,-5.9215,-5.929,-5.929,-5.8933,-5.8633,-5.8633,-5.8633,-5.8633,-5.8633,-5.8633,-5.8727,-5.8933,-5.8971,-5.884,-5.8483,-5.7507,-5.6643,-5.6023,-5.501,-5.4409,-5.4409,-5.4409,-5.4033,-5.3224,-5.298,-5.2437,-5.1593,-5.1349,-5.1236,0.0,0.0,0.0,0.0,0.0,0.0,0.0,0.0,0.0,0.0,0.0,0.0,0.0,0.0,0.0,0.0,0.0,0.0,0.0,0.0,0.0,0.0,-4.9727,-5.0652,-5.1163,-5.2147,-5.2966,-5.3398,-5.4701,-5.554,-5.554,-5.6004,-5.6302,-5.6302,-5.6302,-5.645,-5.6785,-5.6803,-5.7175,-5.7992,-5.8011,-5.8401,-5.9199,-5.9682,-6.0258,-6.0964,-6.193,-6.258,-6.2933,-6.3397,-6.3602,-6.3602,-6.3602,-6.3602,-6.3602,-6.3602,-6.3665,-6.3714,0.0,0.0,0.0,0.0,-6.374,-6.31,-6.173,-6.1017,-6.0526,-5.9583,-5.9057,-5.8758,-5.8716,-5.8716,-5.8716,-5.8716,-5.8716,-5.8716,-5.8716,-5.8737,-5.8799,-5.8879,-5.9001,-5.9119,-5.9177,-5.9234,-5.929,-5.929,-5.929,0.0,-5.929,-5.929,-5.929,-5.929,-5.929,-5.929,-5.929,-5.929,-5.899,-5.8201,-5.7375,-5.6549,-5.5668,-5.4859,0.0,0.0,0.0,-5.4033,-5.3224,-5.3205,0.0,0.0,0.0,-5.1928,-5.1995,-5.2656,0.0,0.0,-5.2105,-5.2419,0.0,0.0,0.0,0.0,0.0,0.0,0.0,0.0,0.0,0.0,0.0,0.0,0.0,0.0,0.0,0.0,-5.1462,-5.2539,-5.3647,-5.387,-5.4206,-5.4973,-5.587,-5.645,-5.645,-5.6525,-5.658,-5.658,-5.658,-5.6878,-5.7602,-5.7639,0.0,0.0,0.0,-5.9107,-5.9884,-6.0017,-6.0853,-6.2413,-6.2506,-6.2914,-6.3602,-6.3602,-6.3602,-6.3602,-6.3602,-6.3602,-6.3602,-6.3602,-6.3602,-6.3647,-6.3826,-6.3998,-6.4123,-6.4264,-6.4224,-6.401,-6.3166,0.0,0.0,-6.0433,-5.9572,-5.8879,-5.8758,-5.8716,-5.8716,-5.8716,-5.8716,-5.8737,-5.8737,-5.8838,-5.892,-5.892,-5.906,-5.9215,-5.9196,-5.9253,-5.929,-5.929,-5.929,-5.929,-5.929,-5.929,-5.929,-5.929,-5.929,-5.929,-5.929,-5.929,-5.8952,-5.807,-5.7338,0.0,-5.5537,-5.4822,-5.4409,-5.4409,-5.4409,-5.4071,-5.3355,-5.3337,-5.2963,-5.2212,-5.2175,-5.2298,-5.2526,-5.3957,-5.4778,-5.4969,-5.3384,-5.3512,0.0,0.0,0.0,0.0,0.0,0.0,0.0,0.0,0.0,0.0,0.0,0.0,0.0,0.0,0.0,-5.2309,-5.292,-5.3713,-5.5358,-5.6156,-5.642,-5.6076,-5.6764,-5.7268,-5.7268,-5.7862,-5.8252,-5.8252,-5.8252,-5.8308,-5.8475,-5.8475,-5.8549,-5.8716,-5.8716,-5.9107,-5.9884,-6.0611,-6.1447,-6.2413,-6.3063,0.0,-6.3602,-6.3602,-6.3602,-6.3602,-6.3602,-6.3602,-6.3602,-6.3602,-6.3714,-6.3848,-6.3873,-6.4061,-6.4264,-6.4284,-6.4284,-6.4131,-6.3225,-6.2361,-6.1497,-6.0574,-5.9651,-5.8898,-5.8859,-5.8797,0.0,-5.8716,-5.8779,-5.8859,-5.8859,-5.8921,-5.9003,-5.9119,-5.9177,-5.9215,-5.9272,-5.929,-5.929,-5.929,-5.929,-5.929,-5.929,-5.929,-5.929,-5.929,-5.929,-5.929,-5.929,-5.929,-5.8746,-5.7281,-5.6981,-5.6286,-5.4766,-5.4484,-5.4409,-5.4409,-5.4409,-5.4334,-5.4165,-5.4165,-5.409,-5.3921,-5.3969,-5.4357,-5.5086,-5.5454,-5.6029,-5.6787,-5.6331,-5.6366,0.0,0.0,0.0,0.0,0.0,0.0,0.0,0.0,0.0,0.0,0.0,-4.8824,0.0,0.0,-5.2072,-5.3552,-5.4294,-5.5122,-5.651,-5.711,-5.7281,-5.6952,-5.7621,-5.8103,-5.8103,-5.8475,-5.8716,-5.8716,-5.8716,-5.8716,-5.8716,-5.8716,-5.8716,-5.8716,-5.9107,-5.9701,-6.0555,-6.1391,-6.2209,-6.3026,-6.3416,-6.3602,-6.3602,-6.3602,-6.3602,-6.3602,-6.3602,-6.3602,-6.362,-6.3669,-6.378,-6.3894,-6.3958,-6.4123,-6.4284,-6.4284,-6.4284,-6.4228,-6.3755,-6.3059,-6.2253,-6.1311,-6.0408,-5.9562,-5.9093,-5.8902,-5.8843,-5.8843,-5.8902,-5.8942,-5.8942,-5.9022,-5.9119,-5.9177,-5.9215,-5.9253,-5.929,-5.929,-5.929,-5.929,-5.929,-5.929,-5.929,-5.929,-5.929,-5.929,-5.929,-5.929,-5.929,-5.929,-5.884,-5.7638,-5.7131,-5.638,-5.5122,-5.4634,-5.4409,-5.4409,-5.4409,-5.4409,-5.4409,-5.4409,-5.4407,-5.4458,-5.4489,-5.4969,-5.5899,-5.6382,-5.7089,-5.8002,-5.8348,-5.8329,0.0,0.0,0.0,0.0,0.0,0.0,0.0,0.0,-4.7492,-4.7698,-4.9113,-5.0583,-5.1425,-5.2514,-5.3634,-5.4758,-5.5631,-5.6499,-5.7439,-5.7672,-5.7732,-5.7732,-5.8308,-5.8716,-5.8716,-5.8716,-5.8716,-5.8716,-5.8716,-5.8716,-5.8716,-5.8716,-5.8716,-5.8716,-5.9497,-6.0333,-6.1187,-6.2004,-6.2803,-6.3602,-6.3602,-6.3602,-6.3602,-6.3602,-6.3602,-6.3602,-6.3602,-6.3602,-6.3602,-6.3758,-6.3848,-6.3915,-6.4081,-6.4184,-6.4284,-6.4284,-6.4284,-6.4284,-6.4284,-6.3759,-6.2969,-6.2234,-6.1369,-6.0506,-5.9735,-5.9509,-5.9489,-5.9489,-5.9378,-5.9267,-5.9267,-5.9251,-5.9215,-5.9215,-5.9253,-5.929,-5.929,-5.929,-5.929,-5.929,-5.929,-5.929,-5.929,-5.929,-5.929,-5.929,-5.929,-5.929,-5.929,-5.929,-5.8933,-5.7976,-5.7281,-5.6474,-5.5443,-5.4766,-5.4409,-5.4409,-5.4409,-5.4409,-5.4409,-5.4409,-5.4441,-5.4505,-5.4672,-5.5244,-5.6255,-5.714,-5.804,-5.8954,-5.9598,-5.956,-4.1475,-4.2317,-4.3127,-4.3237,-4.4496,-4.5921,0.0,0.0,-4.8601,-4.9433,-5.0435,-5.1484,-5.2448,-5.3533,-5.4834,-5.6593,-5.7038,-5.7478,-5.8396,-5.8547,-5.8586,-5.8586,-5.8661,-5.8716,-5.8716,-5.8716,-5.8716,-5.8716,-5.8716,-5.8716,-5.8716,-5.8716,-5.8716,-5.8716,-5.9497,-6.0333,-6.1187,-6.2004,-6.2803,-6.3602,-6.3602,-6.3602,-6.3602,-6.3602,-6.3602,-6.3602,-6.3602,-6.3602,-6.362,-6.3805,-6.3894,-6.3915,-6.4183,-6.4284,-6.4284,-6.4284,-6.4284,-6.4284,-6.4284,-6.3759,-6.3083,-6.2969,-6.2309,-6.1538,-6.1424,-6.1307,-6.1226,-6.1226,-6.0745,-6.0244,-6.0244,-5.9778,-5.929,-5.929,-5.929,-5.929,-5.929,-5.929,-5.929,-5.929,-5.929,-5.929,-5.929,-5.929,-5.929,-5.929,-5.929,-5.929,-5.929,-5.929,-5.8727,-5.7187,-5.6943,-5.6249,-5.4672,-5.4446,-5.4409,-5.4409,-5.4409,-5.4409,-5.4409,-5.4409,-5.4441,-5.4505,-5.5322,-5.6215,-5.7162,-5.8094,-5.8957,-5.9772,-5.9864,-5.9847,-4.2242,-4.292,-4.3636,-4.4628,-4.5849,-4.702,-4.7792,-4.9014,-5.0159,-5.0615,-5.1502,-5.248,-5.3438,-5.4484,-5.5656,0.0,-5.7651,-5.8164,-5.864,-5.8716,-5.8716,-5.8716,-5.8716,-5.8716,-5.8716,-5.8716,-5.8716,-5.8716,-5.8716,-5.8716,-5.8716,-5.8716,-5.8921,-5.9364,-6.0221,-6.1057,-6.1893,-6.271,-6.3286,-6.3602,-6.3602,-6.3602,-6.3602,-6.3602,-6.3602,-6.3602,-6.3602,-6.3602,-6.3602,-6.3808,-6.3915,-6.3915,-6.4203,-6.4284,-6.4284,-6.4284,-6.4284,-6.4284,-6.4284,-6.4078,-6.3721,-6.3252,-6.2838,-6.2423,-6.1898,-6.1708,-6.1669,-6.1669,-6.1446,-6.1204,-6.1204,-6.0979,-6.0642,-6.0173,-6.006,-6.006,-6.006,-6.006,-6.021,-6.0661,-6.0755,-6.0604,-6.0135,-6.006,-5.9891,-5.9384,-5.929,-5.929,-5.929,-5.929,-5.8671,-5.7075,-5.6455,-5.5667,-5.4503,-5.4409,-5.4409,-5.4409,-5.4409,-5.4409,-5.4409,-5.4409,-5.4668,-5.5258,-5.568,-5.659,-5.7994,-5.847,-5.9124,-5.9902,-5.9902,-6.0167,-4.2983,-4.37,-4.4532,-4.6018,-4.7078,-4.7993,-4.8983,-5.0213,-5.1253,-5.1602,-5.229,-5.3083,-5.4038,-5.5085,-5.6129,-5.7042,-5.7947,-5.8593,-5.8696,-5.8716,-5.8716,-5.8716,-5.8716,-5.8716,-5.8716,-5.8716,-5.8716,-5.8716,-5.8716,-5.8716,-5.8716,-5.8921,-5.9311,-5.9887,-6.0964,-6.1819,-6.2394,-6.3212,-6.3602,-6.3602,-6.3602,-6.3602,-6.3602,-6.3602,-6.3602,-6.3602,-6.3602,-6.3602,-6.3669,-6.383,-6.3918,-6.3977,-6.4224,-6.4284,-6.4284,-6.4284,-6.4284,-6.4284,-6.4284,-6.4284,-6.419,-6.3608,-6.3421,-6.3308,-6.267,-6.2482,-6.2482,-6.2482,-6.2332,-6.2163,-6.2163,-6.1975,-6.1637,-6.1074,-6.0924,-6.0924,-6.0924,-6.0924,-6.1111,-6.1693,-6.1787,-6.1543,-6.0736,-6.0604,-6.0304,-5.9422,-5.929,-5.929,-5.929,-5.8915,-5.8182,-5.7018,-5.593,-5.5047,-5.4446,-5.4409,-5.4409,-5.4409,-5.4409,-5.4409,-5.4409,-5.4615,-5.5063,-5.5804,-5.6321,-5.7213,-5.8486,-5.8868,-5.9317,-5.9921,-6.0132,-6.053,0.0,0.0,-4.6143,-4.7118,-4.8019,-4.9081,-5.0674,-5.1162,-5.1529,-5.2386,-5.2698,-5.3083,-5.4038,-5.5132,-5.6177,-5.7063,-5.805,-5.8696,-5.8716,-5.8716,-5.8716,-5.8716,-5.8716,-5.8716,0.0,-5.8716,-5.8716,-5.8716,-5.8716,-5.8716,-5.8716,-5.9438,-5.9865,-5.9884,-6.1503,-6.2394,-6.2413,-6.3212,-6.3602,-6.3602,-6.3602,-6.3602,-6.3602,-6.3602,-6.3602,-6.3602,-6.3602,-6.3669,-6.3798,-6.387,-6.3977,-6.4102,-6.4244,-6.4284,-6.4284,-6.4284,-6.4284,-6.4284,-6.4284,-6.4284,-6.4284,-6.4286,-6.4247,-6.4247,-6.4228,-6.4209,-6.4209,-6.4209,-6.3665,-6.3064,-6.3064,-6.2426,-6.1787,-6.1768,-6.175,-6.175,-6.175,-6.175,-6.1768,-6.1787,-6.1787,-6.1543,-6.0736,-6.0604,-6.0304,-5.9422,-5.929,-5.929,-5.929,-5.7938,-5.6943,-5.6906,-5.5423,-5.4428,-5.4409,-5.4409,-5.4409,-5.4409,-5.4409,-5.4409,-5.4409,-5.5142,-5.5645,-5.5787,-5.7469,-5.8384,-5.8486,-5.9417,-5.9883,-5.9921,-6.07,-6.1096,0.0,0.0,-4.6489,-4.7911,-4.8963,-4.9919,-5.0986,-5.1678,-5.2223,-5.264,-5.2761,-5.3105,-5.4126,-5.4754,-5.5549,-5.6971,-5.7606,-5.8103,-5.8624,-5.8716,-5.8716,-5.8716,-5.8716,0.0,0.0,0.0,0.0,-5.8716,-5.8716,-5.8939,-5.9457,-5.9735,-6.0425,-6.1521,-6.2116,-6.2673,-6.3193,-6.3472,-6.3602,-6.3602,-6.3602,-6.3602,-6.3602,-6.3602,-6.3602,-6.3602,-6.3602,-6.3688,-6.382,-6.387,-6.3979,-6.4102,-6.4244,-6.4284,-6.4284,-6.4284,-6.4284,-6.4284,-6.4284,-6.4284,-6.4284,-6.4284,-6.4284,-6.4284,-6.4284,-6.4284,-6.4284,-6.4284,-6.4096,-6.389,-6.389,-6.3665,-6.3308,-6.2782,-6.267,-6.267,-6.267,-6.267,-6.282,-6.3345,-6.3458,-6.3008,-6.1618,-6.1393,-6.0924,-5.9515,-5.929,-5.929,-5.929,-5.7901,-5.6887,-5.6887,-5.5404,-5.4409,-5.4409,-5.4409,-5.4409,-5.4409,-5.4916,-5.5199,-5.5199,-5.6023,-5.6736,-5.7317,-5.7949,-5.8565,-5.9148,-5.9605,-6.0125,-6.0636,-6.0949,-6.1705,0.0,-4.6474,-4.7381,-4.8832,-4.9882,-5.0723,-5.1538,-5.19,-5.2132,-5.2342,-5.2127,-5.2269,-5.3329,-5.3946,-5.4718,-5.6085,-5.6976,-5.7676,-5.8215,-5.8531,-5.8716,-5.8716,-5.8716,-5.8716,0.0,0.0,0.0,-5.8716,-5.8716,-5.9051,-5.9847,-6.0202,-6.1001,-6.2376,-6.2692,-6.3082,-6.3579,-6.3602,-6.3602,-6.3602,-6.3602,-6.3602,-6.3602,-6.3602,-6.3602,-6.3602,-6.3602,-6.3691,-6.3845,-6.3891,-6.4019,-6.4183,-6.4264,-6.4284,-6.4284,-6.4284,-6.4284,-6.4284,-6.4284,-6.4284,-6.4284,-6.4284,-6.4284,-6.4284,-6.4284,-6.4284,-6.4284,-6.4284,-6.4284,-6.4284,-6.4284,-6.4284,-6.4153,-6.3646,-6.3533,-6.3533,-6.3533,-6.3533,-6.3683,-6.421,-6.4284,-6.3852,-6.2501,-6.1768,-6.0905,-5.9515,-5.929,-5.929,-5.929,-5.8145,-5.7225,-5.6925,-5.5667,-5.4709,-5.4428,-5.4409,-5.4521,-5.4822,-5.5311,-5.5743,-5.6061,-5.6887,-5.7582,-5.8089,-5.8461,-5.8928,-5.9493,-5.9973,-6.0475,-6.102,-6.1656,-6.2542,-4.6165,-4.7392,-4.8789,-4.9882,-5.0746,-5.1484,-5.2263,-5.1846,-5.1334,-5.1504,-5.0946,-5.0717,0.0,0.0,-5.3702,-5.4496,-5.6197,-5.7453,-5.749,-5.8196,-5.8716,0.0,0.0,0.0,0.0,0.0,0.0,-5.8828,0.0,-5.9144,-5.9977,-6.0815,-6.1633,-6.245,-6.3212,-6.3602,-6.3602,-6.3602,-6.3602,-6.3602,-6.3602,-6.3602,-6.3602,-6.3602,-6.3602,-6.3602,-6.3602,-6.3695,-6.3894,-6.3894,-6.4061,-6.4284,-6.4284,-6.4284,-6.4284,-6.4284,-6.4284,-6.4284,-6.4284,-6.4284,-6.4284,-6.4284,-6.4284,-6.4284,-6.4284,-6.4284,-6.4284,-6.4284,-6.4284,-6.4284,-6.4284,-6.4284,-6.4284,-6.4284,-6.4284,-6.4284,-6.4284,-6.4284,-6.4284,-6.4284,-6.4286,-6.3965,-6.3177,-6.1675,-6.0304,-5.9422,-5.929,-5.929,-5.929,-5.8596,-5.7807,-5.7037,-5.6155,-5.5311,-5.4597,-5.4484,-5.4822,-5.5612,-5.5706,-5.61,-5.6925,-5.7732,-5.8145,-5.8145,-5.9044,-5.9512,-5.9568,-6.0449,-6.0972,-6.1154,-6.2759,-6.3569,-4.7501,-4.8267,-4.9023,-5.061,-5.114,-5.1339,-5.1556,-5.1448,-5.1189,-5.079,-5.0542,-5.0553,0.0,0.0,0.0,-5.3665,-5.5382,0.0,-5.7416,-5.8196,0.0,-5.8716,0.0,-5.8939,-5.9552,-5.9587,0.0,0.0,-5.9961,-6.024,-6.1689,-6.1986,-6.2469,-6.3286,-6.349,-6.3602,-6.3602,-6.3602,-6.3602,-6.3602,-6.3602,-6.3602,-6.3602,-6.3602,-6.3602,-6.3602,-6.3602,-6.3717,-6.3897,-6.3894,-6.4061,-6.4284,-6.4284,-6.4284,-6.4284,-6.4284,-6.4284,-6.4284,-6.4284,-6.4284,-6.4284,-6.4284,-6.4284,-6.4284,-6.4284,-6.4284,-6.4284,-6.4284,-6.4284,-6.4284,-6.4284,-6.4284,-6.4284,-6.4284,-6.4284,-6.4284,-6.4284,-6.4284,-6.4284,-6.4284,-6.3815,-6.312,-6.2275,-6.128,-6.0304,-5.9422,-5.929,-5.929,-5.929,-5.8596,-5.8032,-5.7826,-5.6475,-5.5781,-5.6211,-5.5667,-5.5667,-5.6512,-5.7131,-5.7545,-5.7788,-5.8577,-5.899,-5.899,-5.9215,-5.9665,-6.0323,-6.0604,-6.1449,-6.2803,-6.3272,-6.3872,-4.8205,-4.9118,-5.001,-5.1045,-5.1285,-5.1285,-5.1285,-5.0741,-5.0083,-4.9479,-4.9065,-4.9001,-4.9588,-5.0244,-5.1172,0.0,0.0,0.0,-5.6822,-5.7676,-5.8308,0.0,-5.9014,0.0,-5.9847,-6.0258,-6.0834,0.0,-6.0964,-6.1057,-6.2339,-6.2413,-6.2784,-6.3583,-6.3602,-6.3602,-6.3602,-6.3602,-6.3602,-6.3602,-6.3602,-6.3602,-6.3602,-6.3602,-6.3602,-6.3602,-6.3602,-6.3717,-6.3897,-6.3894,-6.4061,-6.4284,-6.4284,-6.4284,-6.4284,-6.4284,-6.4284,-6.4284,-6.4284,-6.4284,-6.4284,-6.4284,-6.4284,-6.4284,-6.4284,-6.4284,-6.4284,-6.4284,-6.4284,-6.4284,-6.4284,-6.4284,-6.4284,-6.4284,-6.4284,-6.4284,-6.4284,-6.4284,-6.4284,-6.4284,-6.3928,-6.3233,-6.2013,-6.143,-6.0717,-5.9478,-5.929,-5.929,-5.929,-5.8915,-5.8502,-5.8127,-5.7245,-5.6738,-5.6887,-5.6455,-5.653,-5.7375,-5.7863,-5.8276,-5.8614,-5.9065,-5.929,-5.929,-5.9684,-6.0116,-6.0604,-6.1375,-6.2316,-6.3408,-6.3803,-6.4309,-4.8587,-4.9884,-5.1171,-5.1389,-5.1375,-5.1267,-5.118,-4.9908,-4.8575,-4.7968,-4.7206,-4.692,-4.7827,-4.831,-4.9289,-5.1449,0.0,-5.4314,-5.5763,-5.6859,-5.7769,-5.8475,-5.9255,-5.9831,-6.0033,-6.076,-6.1577,-6.2506,-6.1911,-6.1819,-6.2524,-6.2562,-6.2896,-6.3583,-6.3602,-6.3602,-6.3602,-6.3602,-6.3602,-6.3602,-6.3602,-6.3602,-6.3602,-6.3602,-6.3602,-6.3643,-6.3643,-6.3739,-6.3915,-6.3915,-6.4081,-6.4284,-6.4284,-6.4284,-6.4284,-6.4284,-6.4284,-6.4284,-6.4284,-6.4284,-6.4284,-6.4284,-6.4284,-6.4284,-6.4284,-6.4284,-6.4284,-6.4284,-6.4284,-6.4284,-6.4284,-6.4284,-6.4284,-6.4284,-6.4284,-6.4284,-6.4284,-6.4284,-6.4284,-6.4284,-6.4284,-6.3759,-6.2088,-6.1787,-6.1224,-5.9553,-5.929,-5.929,-5.929,-5.929,-5.9027,-5.8333,-5.8145,-5.7863,-5.7263,-5.7112,-5.7394,-5.822,-5.8276,-5.8577,-5.9271,-5.929,-5.9347,-5.9478,-6.021,-6.0717,-6.0942,-6.2407,-6.3275,-6.3577,-6.4275,-6.4726,-4.9451,-5.043,-5.1425,-5.2118,-5.1774,-5.1122,-5.0474,-4.9057,0.0,-4.713,-4.6369,-4.5897,-4.625,-4.7555,-4.8753,-4.9178,-5.1806,-5.3905,-5.4203,-5.6116,-5.7565,0.0,-5.8419,-5.9459,-6.0853,-6.1113,0.0,0.0,-6.3267,-6.3249,-6.3397,-6.3397,-6.3472,-6.3602,-6.3602,-6.3602,-6.3602,-6.3602,-6.3602,-6.3602,-6.3602,-6.3602,-6.3602,-6.3602,-6.3665,-6.3776,-6.3776,-6.3888,-6.4061,-6.4061,-6.4162,-6.4284,-6.4284,-6.4284,-6.4284,-6.4284,-6.4284,-6.4284,-6.4284,-6.4284,-6.4284,-6.4284,-6.4284,-6.4284,-6.4284,-6.4284,-6.4284,-6.4284,-6.4284,-6.4284,-6.4284,-6.4284,-6.4284,-6.4284,-6.4284,-6.4284,-6.4284,-6.4284,-6.4284,-6.4284,-6.4284,-6.3759,-6.2088,-6.1787,-6.1224,-5.9553,-5.929,-5.929,-5.929,-5.929,-5.9253,-5.9102,-5.8502,-5.8314,-5.884,-5.8276,-5.8239,-5.9046,-5.9084,-5.9159,-5.929,-5.929,-5.9647,-6.036,-6.0529,-6.128,-6.267,-6.3011,-6.3596,-6.4389,-6.4595,-6.4762,-4.9744,-5.0891,-5.1919,-5.1864,-5.1267,-5.0452,-4.9655,0.0,0.0,-4.631,-4.5605,-4.5132,-4.5295,-4.6449,0.0,-4.8549,-5.0861,-5.2847,-5.3683,-5.5577,-5.7026,-5.7453,-5.8586,-5.9645,-6.0463,-6.1317,-6.2153,-6.2933,-6.3379,-6.3602,-6.3602,-6.3602,-6.3602,-6.3602,-6.3602,-6.3602,-6.3602,-6.3602,-6.3602,-6.3602,-6.3688,-6.3691,-6.371,-6.3758,-6.3783,-6.3848,-6.3848,-6.3934,-6.4102,-6.4102,-6.4183,-6.4284,-6.4284,-6.4284,-6.4284,-6.4284,-6.4284,-6.4284,-6.4284,-6.4284,-6.4284,-6.4284,-6.4284,-6.4284,-6.4284,-6.4284,-6.4284,-6.4284,-6.4284,-6.4284,-6.4284,-6.4284,-6.4284,-6.4284,-6.4284,-6.4284,-6.4284,-6.4284,-6.4284,-6.4284,-6.4284,-6.3909,-6.2688,-6.2088,-6.1393,-6.0154,-5.9591,-5.929,-5.929,-5.929,-5.929,-5.929,-5.8952,-5.8877,-5.9271,-5.8952,-5.8896,-5.9271,-5.929,-5.929,-5.929,-5.929,-5.9703,-6.0586,-6.1017,-6.1844,-6.3142,-6.3595,-6.4105,-6.4652,-6.4689,-6.4761,-4.9622,-5.0801,-5.1828,-5.1194,-5.0434,-4.9637,-4.8843,-4.7493,0.0,-4.5529,-4.4821,-4.4381,-4.4521,-4.5305,-4.6443,0.0,-4.9729,-5.1435,-5.307,-5.4723,-5.6134,0.0,-5.8512,0.0,-5.9865,-6.1094,0.0,-6.2376,-6.3156,-6.3602,-6.3602,-6.3602,-6.3602,-6.3602,-6.3602,-6.3602,-6.3602,-6.3602,-6.3602,-6.3624,-6.3754,-6.382,-6.3823,-6.3891,-6.3915,-6.3937,-6.3937,-6.4019,-6.4143,-6.4143,-6.4184,-6.4284,-6.4284,-6.4284,-6.4284,-6.4284,-6.4284,-6.4284,-6.4284,-6.4284,-6.4284,-6.4284,-6.4284,-6.4284,-6.4284,-6.4284,-6.4284,-6.4284,-6.4284,-6.4284,-6.4284,-6.4284,-6.4284,-6.4284,-6.4284,-6.4284,-6.4284,-6.4284,-6.4284,-6.4284,-6.4284,-6.404,-6.3233,-6.2369,-6.1524,-6.0717,-5.9853,-5.929,-5.929,-5.929,-5.929,-5.929,-5.929,-5.929,-5.929,-5.929,-5.929,-5.929,-5.929,-5.929,-5.929,-5.929,-5.9797,-6.0848,-6.1506,-6.2371,-6.3464,-6.4124,-6.4558,-6.4688,-6.4725,-6.4798,-4.8916,-4.9655,-5.0311,-5.0238,-4.9601,-4.8825,-4.8076,0.0,-4.5434,-4.4821,-4.4071,-4.3539,-4.3693,-4.4475,-4.5426,-4.638,0.0,-4.9707,-5.1398,-5.3014,-5.463,-5.6227,0.0,0.0,-5.9775,-6.0054,-6.0757,-6.2301,-6.3156,-6.3602,-6.3602,-6.3602,-6.3602,-6.3602,-6.3602,-6.3602,-6.3602,-6.3602,-6.3665,-6.3776,-6.3798,-6.3823,-6.3894,-6.3894,-6.3977,-6.4081,-6.4081,-6.4162,-6.4284,-6.4284,-6.4284,-6.4284,-6.4284,-6.4284,-6.4284,-6.4284,-6.4284,-6.4284,-6.4284,-6.4284,-6.4284,-6.4284,-6.4284,-6.4284,-6.4284,-6.4284,-6.4284,-6.4284,-6.4284,-6.4284,-6.4284,-6.4284,-6.4284,-6.4284,-6.4284,-6.4284,-6.4284,-6.4284,-6.4284,-6.4284,-6.4284,-6.404,-6.3233,-6.2369,-6.1524,-6.0717,-5.9853,-5.929,-5.929,-5.929,-5.929,-5.929,-5.929,-5.929,-5.929,-5.929,-5.929,-5.929,-5.929,-5.929,-5.929,-5.929,-6.0041,-6.1656,-6.1883,-6.273,-6.4292,-6.4558,-6.467,-6.4706,-6.4816,-6.489,-4.8721,-4.9492,-4.9985,-4.9492,-4.9191,-4.8675,-4.7427,0.0,-4.5478,-4.4748,-4.4032,-4.3549,-4.3703,-4.4449,-4.5197,-4.563,0.0,0.0,-4.98,-5.2159,-5.4054,-5.4723,-5.6413,0.0,0.0,0.0,-6.0611,-6.2283,-6.3156,-6.3602,-6.3602,-6.3602,-6.3602,-6.3602,-6.3602,-6.3602,-6.3602,-6.3688,-6.3754,-6.3798,-6.3931,-6.3998,-6.4019,-6.4102,-6.4164,-6.4224,-6.4224,-6.4244,-6.4284,-6.4284,-6.4284,-6.4284,-6.4284,-6.4284,-6.4284,-6.4284,-6.4284,-6.4284,-6.4284,-6.4284,-6.4284,-6.4284,-6.4284,-6.4284,-6.4284,-6.4284,-6.4284,-6.4284,-6.4284,-6.4284,-6.4284,-6.4284,-6.4284,-6.4284,-6.4284,-6.4284,-6.4284,-6.4284,-6.4284,-6.4284,-6.4284,-6.421,-6.3871,-6.312,-6.2294,-6.1449,-6.0604,-5.9891,-5.9365,-5.929,-5.929,-5.929,-5.929,-5.929,-5.929,-5.929,-5.929,-5.929,-5.929,-5.929,-5.929,-5.929,-6.0079,-6.1768,-6.1921,-6.2843,-6.452,-6.4652,-6.4743,-6.4816,-6.489,-6.4907,-4.7946,-4.8605,-4.8916,-4.8394,-4.8312,-4.7977,0.0,0.0,-4.5224,-4.4454,-4.3936,-4.3651,-4.3802,-4.433,-4.4874,0.0,0.0,-4.837,-4.8834,-5.1323,-5.3274,-5.3738,0.0,-5.697,0.0,-5.8997,-6.0542,-6.1974,-6.2851,-6.3431,-6.3673,-6.345,-6.3316,-6.3249,-6.349,-6.349,-6.3312,-6.3624,-6.3842,-6.3888,-6.4019,-6.4123,-6.4164,-6.4264,-6.4284,-6.4284,-6.4284,-6.4284,-6.4284,-6.4284,-6.4284,-6.4284,-6.4284,-6.4284,-6.4284,-6.4284,-6.4284,-6.4284,-6.4284,-6.4284,-6.4284,-6.4284,-6.4284,-6.4284,-6.4284,-6.4284,-6.4284,-6.4284,-6.4284,-6.4284,-6.4284,-6.4284,-6.4284,-6.4284,-6.4284,-6.4284,-6.4284,-6.4284,-6.4284,-6.4284,-6.4284,-6.4284,-6.4284,-6.3627,-6.2895,-6.2275,-6.1487,-6.0661,-5.9797,-5.9684,-5.9591,-5.9328,-5.929,-5.929,-5.929,-5.929,-5.929,-5.929,-5.929,-5.929,-5.929,-5.929,-6.0116,-6.1845,-6.1977,-6.288,-6.4634,-6.4726,-6.4798,-6.4907,-6.4907,-6.4907,-4.6264,-4.654,-4.6561,-4.668,-4.6721,-4.6362,0.0,-4.462,-4.4418,-4.3767,-4.3599,-4.3649,-4.3865,-4.3915,-4.4225,-4.514,-4.5992,0.0,-4.8686,-5.0358,-5.2029,0.0,0.0,-5.5689,-5.7342,-5.9078,-6.0445,-6.1246,-6.219,0.0,-6.3857,-6.3128,-6.2633,-6.2413,-6.3193,-6.3275,-6.2606,-6.3389,-6.3888,-6.4102,-6.4102,-6.4164,-6.4284,-6.4284,-6.4284,-6.4284,-6.4284,-6.4284,-6.4284,-6.4284,-6.4284,-6.4284,-6.4284,-6.4284,-6.4284,-6.4284,-6.4284,-6.4284,-6.4284,-6.4284,-6.4284,-6.4284,-6.4284,-6.4284,-6.4284,-6.4284,-6.4284,-6.4284,-6.4284,-6.4284,-6.4284,-6.4284,-6.4284,-6.4284,-6.4284,-6.4284,-6.4284,-6.4284,-6.4284,-6.4284,-6.4284,-6.4284,-6.4284,-6.3627,-6.3101,-6.3101,-6.235,-6.1487,-6.0698,-6.0604,-6.0266,-5.9384,-5.929,-5.929,-5.929,-5.929,-5.929,-5.929,-5.929,-5.929,-5.929,-5.929,-6.0154,-6.1958,-6.2069,-6.2953,-6.4688,-6.4816,-6.4907,-6.4907,-6.4907,-6.4907,-4.5454,-4.5689,-4.5709,-4.5847,-4.5907,-4.5712,-4.4803,-4.4674,-4.4523,-4.3747,-4.3718,-4.3832,-4.3881,-4.3945,-4.4066,-4.4358,-4.5584,0.0,0.0,0.0,0.0,-5.2029,-5.437,-5.6322,0.0,0.0,-6.0224,-6.053,-6.1877,-6.2571,-6.229,-6.2552,-6.2678,-6.2614,-6.2335,-6.2076,-6.1857,-6.2741,-6.3217,-6.3278,-6.3922,-6.4264,-6.4284,-6.4284,-6.4284,-6.4284,-6.4284,-6.4284,-6.4284,-6.4284,-6.4284,-6.4284,-6.4284,-6.4284,-6.4284,-6.4284,-6.4284,-6.4284,-6.4284,-6.4284,-6.4284,-6.4284,-6.4284,-6.4284,-6.4284,-6.4284,-6.4284,-6.4284,-6.4284,-6.4284,-6.4284,-6.4284,-6.4284,-6.4284,-6.4284,-6.4284,-6.4284,-6.4284,-6.4284,-6.4284,-6.4284,-6.4284,-6.4284,-6.4078,-6.3721,-6.3177,-6.2876,-6.2181,-6.0792,-6.0604,-6.0266,-5.9384,-5.929,-5.929,-5.929,-5.929,-5.929,-5.929,-5.929,-5.929,-5.929,-5.9928,-6.0811,-6.1977,-6.269,-6.3611,-6.4688,-6.4816,-6.4907,-6.4907,-6.4907,-6.4907,0.0,-4.4915,-4.4954,-4.5108,-4.5184,0.0,0.0,-4.4285,-4.4223,-4.3793,-4.3816,-4.3897,-4.3929,-4.3974,-4.4005,-4.4005,-4.5417,0.0,0.0,0.0,0.0,-5.1714,0.0,0.0,0.0,-5.8438,-5.9582,-6.0318,-6.1329,-6.1875,-6.1728,-6.1876,-6.1949,-6.1949,-6.1661,-6.1377,-6.1081,-6.1965,-6.2606,-6.2983,-6.357,-6.4003,-6.4284,-6.4284,-6.4284,-6.4284,-6.4284,-6.4284,0.0,-6.4284,-6.4284,-6.4284,-6.4284,-6.4284,-6.4284,-6.4284,-6.4284,-6.4284,-6.4284,-6.4284,-6.4284,-6.4284,-6.4284,-6.4284,-6.4284,-6.4284,-6.4284,-6.4284,-6.4284,-6.4284,-6.4284,-6.4284,-6.4284,-6.4284,-6.4284,-6.4284,-6.4284,-6.4284,-6.4284,-6.4284,-6.4284,-6.4284,-6.4284,-6.4284,-6.4115,-6.3627,-6.3552,-6.3064,-6.1731,-6.1262,-6.0736,-5.9891,-5.9497,-5.929,-5.929,-5.929,-5.929,-5.929,-5.929,-5.9459,-5.9815,-6.0397,-6.128,-6.2541,-6.3178,-6.3912,-6.478,-6.4853,-6.4907,-6.4907,-6.4907,-6.4907,0.0,-4.4142,-4.4216,-4.4437,-4.4528,-4.4363,-4.3749,-4.3599,0.0,-4.3865,-4.3897,-4.3929,-4.3989,-4.4005,-4.4023,-4.4079,-4.5454,0.0,0.0,-4.8667,0.0,0.0,-5.413,0.0,-5.6348,-5.7323,-5.8634,-6.0398,-6.0642,-6.1073,-6.188,-6.1148,-6.0697,-6.0622,-6.1108,-6.1026,-6.0319,-6.1125,-6.2008,-6.2914,-6.3045,-6.3496,-6.4209,-6.4286,-6.4284,-6.4284,-6.4284,-6.4284,-6.4284,-6.4284,-6.4284,-6.4284,-6.4284,-6.4284,-6.4284,-6.4284,-6.4284,-6.4284,-6.4284,-6.4284,-6.4284,-6.4284,-6.4284,-6.4284,-6.4284,-6.4284,-6.4284,-6.4284,-6.4284,-6.4284,-6.4284,-6.4284,-6.4284,-6.4284,-6.4284,-6.4284,-6.4284,-6.4284,-6.4284,-6.4284,-6.4284,-6.4284,-6.4284,-6.4284,-6.4284,-6.4284,-6.4284,-6.4003,-6.3195,-6.2388,-6.1581,-6.0773,-5.991,-5.9384,-5.9384,-5.9347,-5.929,-5.929,-5.9309,-5.9721,-6.066,-6.0772,-6.1655,-6.3459,-6.3571,-6.4023,-6.4907,-6.4907,-6.4907,-6.4907,-6.4907,-6.4907,-4.2156,0.0,-4.2722,-4.3487,-4.3703,-4.3736,0.0,0.0,0.0,0.0,0.0,0.0,0.0,-4.4005,-4.4228,-4.4878,0.0,-4.6717,-4.733,0.0,0.0,-5.2548,-5.4168,-5.5566,-5.6538,-5.7491,-5.8539,-5.9682,-6.0432,-6.0673,-6.0202,-6.0617,-6.0542,-5.9865,-5.9981,-5.989,-5.9553,-6.0416,-6.0942,-6.1205,-6.2501,-6.3177,-6.3327,-6.4003,-6.4284,-6.4284,-6.4284,-6.4284,-6.4284,-6.4284,-6.4284,-6.4284,-6.4284,-6.4284,-6.4284,-6.4284,-6.4284,-6.4284,-6.4284,-6.4284,-6.4284,-6.4284,-6.4284,-6.4284,-6.4284,-6.4284,-6.4284,-6.4284,-6.4284,-6.4284,-6.4284,-6.4284,-6.4284,-6.4284,-6.4284,-6.4284,-6.4284,-6.4284,-6.4284,-6.4284,-6.4284,-6.4284,-6.4284,-6.4284,-6.4284,-6.4284,-6.4284,-6.4003,-6.3195,-6.2914,-6.2463,-6.1599,-6.0792,-6.0304,-6.0304,-5.9684,-5.929,-5.929,-5.9401,-5.9832,-6.066,-6.1483,-6.2421,-6.3478,-6.4211,-6.4681,-6.4907,-6.4907,-6.4907,-6.4907,-6.4907,-6.4907,-4.1214,-4.1911,-4.237,-4.3261,-4.3567,-4.3669,-4.3718,0.0,0.0,0.0,0.0,0.0,0.0,0.0,0.0,0.0,-4.6271,0.0,0.0,0.0,-5.1767,-5.2603,-5.3925,-5.5323,0.0,-5.7281,-5.8158,-5.9542,-6.0138,-6.0261,-5.9822,-6.0205,-6.0208,-5.9736,-5.965,-5.9526,-5.9401,-5.9871,-6.0266,-6.0623,-6.1524,-6.235,-6.3064,-6.3533,-6.3946,-6.4284,-6.4284,-6.4284,-6.4284,-6.4284,-6.4284,-6.4284,-6.4284,-6.4284,-6.4284,-6.4284,-6.4284,-6.4284,-6.4284,-6.4284,-6.4284,-6.4284,-6.4284,-6.4284,-6.4284,-6.4284,-6.4284,-6.4284,-6.4284,-6.4284,-6.4284,-6.4284,-6.4284,-6.4284,-6.4284,-6.4284,-6.4284,-6.4284,-6.4284,-6.4284,-6.4284,-6.4284,-6.4284,-6.4284,-6.4284,-6.4284,-6.4284,-6.4134,-6.3702,-6.3327,-6.2914,-6.2444,-6.1656,-6.1187,-6.1225,-6.0811,-6.021,-5.9439,-5.9457,-6.0075,-6.1389,-6.1988,-6.2872,-6.4117,-6.4626,-6.4907,-6.4907,-6.4907,-6.4907,-6.4907,-6.4907,-6.4699,-4.0503,-4.1546,-4.2408,-4.3395,-4.3736,-4.3837,-4.3899,-4.3897,0.0,0.0,0.0,0.0,0.0,-4.4804,0.0,0.0,0.0,0.0,-5.0189,-5.117,-5.2024,-5.2862,-5.3752,0.0,-5.6567,-5.6916,-5.7769,-5.9488,-5.9796,-5.995,-6.001,-5.9966,-5.9934,-5.9934,-5.9786,-5.965,-5.9564,-5.9529,-5.9814,-6.0436,-6.0567,-6.1337,-6.2726,-6.2989,-6.3458,-6.4115,-6.4247,-6.4284,-6.4284,-6.4284,-6.4284,-6.4284,-6.4284,-6.4284,-6.4284,-6.4284,-6.4284,-6.4284,-6.4284,-6.4284,-6.4284,-6.4284,-6.4284,-6.4284,-6.4284,-6.4284,-6.4284,-6.4284,-6.4284,-6.4284,-6.4284,-6.4284,-6.4284,-6.4284,-6.4284,-6.4284,-6.4284,-6.4284,-6.4284,-6.4284,-6.4284,-6.4284,-6.4284,-6.4284,-6.4284,-6.4284,-6.4284,-6.4304,-6.4304,-6.3722,-6.3309,-6.3329,-6.2578,-6.2089,-6.2203,-6.209,-6.1431,-6.0018,-5.9792,-6.0503,-6.2247,-6.255,-6.338,-6.4869,-6.4907,-6.4907,-6.4907,-6.4907,-6.4907,-6.4907,-6.4775,-6.432,-3.9905,-4.0877,-4.1967,-4.34,-4.3818,-4.3899,-4.3915,-4.3926,-4.3989,0.0,0.0,0.0,0.0,-4.5212,-4.5751,0.0,0.0,-5.0255,0.0,0.0,-5.3025,-5.3956,0.0,-5.4801,-5.5864,-5.6748,-5.7673,-5.8697,-5.9533,-6.001,-6.0068,-6.0068,-6.0072,-6.0072,-6.0038,-5.9963,-5.9836,-5.9668,-5.9621,-5.9682,-6.0359,-6.0792,-6.1036,-6.2444,-6.3177,-6.3327,-6.4003,-6.4284,-6.4284,-6.4284,-6.4284,-6.4284,-6.4284,-6.4284,-6.4284,-6.4284,-6.4284,-6.4284,-6.4284,-6.4284,-6.4284,-6.4284,-6.4284,-6.4284,-6.4284,-6.4284,-6.4284,-6.4284,-6.4284,-6.4284,-6.4284,-6.4284,-6.4284,-6.4284,-6.4284,-6.4284,-6.4284,-6.4284,-6.4284,-6.4284,-6.4284,-6.4284,-6.4284,-6.4284,-6.4284,-6.4284,-6.4284,-6.4324,-6.4385,-6.4272,-6.4236,-6.4351,-6.3653,-6.3163,-6.3163,-6.2503,-6.2011,-6.1892,-6.1193,-6.1265,-6.2334,-6.3753,-6.4624,-6.4888,-6.4907,-6.4907,-6.4907,-6.4907,-6.4907,-6.4888,-6.4132,-6.3715,-3.9859,-4.0811,-4.1842,-4.303,-4.3692,-4.4058,-4.4058,-4.4101,-4.4162,0.0,0.0,0.0,0.0,0.0,-4.729,-4.8895,0.0,-5.0807,-5.2111,-5.2686,-5.33,0.0,0.0,-5.4811,-5.576,-5.6336,-5.7027,-5.7939,-5.8479,-5.8762,-5.8806,-5.9244,-5.9511,-5.9511,-5.9885,-6.0072,-6.001,-5.9883,-5.9717,-5.9564,-5.9887,-6.0265,-6.068,-6.1412,-6.2238,-6.312,-6.3496,-6.389,-6.4284,-6.4284,-6.4284,-6.4284,-6.4284,-6.4284,-6.4284,-6.4284,-6.4284,-6.4284,-6.4284,-6.4284,-6.4284,-6.4284,-6.4284,-6.4284,-6.4284,-6.4284,-6.4284,-6.4284,-6.4284,-6.4284,-6.4284,-6.4284,-6.4284,-6.4284,-6.4284,-6.4284,-6.4284,-6.4284,-6.4284,-6.4284,-6.4284,-6.4284,-6.4284,-6.4284,-6.4284,-6.4284,-6.4344,-6.4365,-6.4404,-6.4463,-6.452,-6.4596,-6.4275,-6.4049,-6.4104,-6.3745,-6.3158,-6.2343,-6.2359,-6.2601,-6.3014,-6.4244,-6.4907,-6.4907,-6.4907,-6.4907,-6.4907,-6.4434,-6.4206,-6.4187,-6.3336,-6.2709,-3.9752,-4.0777,-4.1812,-4.2485,-4.3431,-4.4229,-4.4229,-4.4423,-4.458,-4.458,0.0,0.0,0.0,-4.7439,0.0,-5.0239,-5.0763,-5.1471,-5.2796,-5.3184,-5.3575,-5.4284,-5.4458,-5.4851,-5.5589,-5.5958,-5.6474,-5.7209,-5.7535,-5.77,-5.7747,-5.8377,-5.8835,-5.9026,-5.9564,-5.9972,-6.0148,-6.0106,-5.995,-5.9668,-5.9599,-5.9868,-6.0415,-6.0548,-6.1318,-6.2538,-6.2707,-6.3252,-6.4021,-6.4021,-6.4115,-6.4284,-6.4284,-6.4284,-6.4284,-6.4284,-6.4284,-6.4284,-6.4284,-6.4284,-6.4284,-6.4284,-6.4284,-6.4284,-6.4284,-6.4284,-6.4284,-6.4284,-6.4284,-6.4284,-6.4284,-6.4284,-6.4284,-6.4284,-6.4284,-6.4284,-6.4284,-6.4284,-6.4284,-6.4284,-6.4284,-6.4284,-6.4284,-6.4284,-6.4304,-6.4324,-6.4365,-6.4405,-6.4463,-6.4558,-6.4652,-6.4671,-6.4671,-6.469,-6.4743,-6.4743,-6.4214,-6.2984,-6.3339,-6.3601,-6.3601,-6.4453,-6.4907,-6.4907,-6.4907,-6.4813,-6.4604,-6.3923,-6.3488,-6.3298,-6.2482,-6.1743,-3.9161,-4.0444,-4.1806,-4.1862,-4.3108,-4.4285,-4.4285,-4.4864,-4.5406,-4.5406,0.0,0.0,0.0,-4.9139,-5.0314,-5.0565,-5.1838,-5.2902,-5.3134,0.0,-5.4351,-5.4472,-5.4606,-5.4755,-5.4947,-5.5776,-5.6368,-5.6548,-5.7281,-5.7747,-5.7873,-5.7963,-5.8312,-5.9076,-5.9153,-5.9531,-6.0279,-6.0279,-6.0141,-5.9869,-5.9807,-5.9708,-5.9606,-6.0359,-6.0717,-6.083,-6.1562,-6.2388,-6.3195,-6.3195,-6.3627,-6.4284,-6.4284,-6.4284,-6.4284,-6.4284,-6.4284,-6.4284,-6.4284,-6.4284,-6.4284,-6.4284,-6.4284,-6.4284,-6.4284,-6.4284,-6.4284,-6.4284,-6.4284,-6.4284,-6.4284,-6.4284,-6.4284,-6.4284,-6.4284,-6.4284,-6.4284,-6.4284,-6.4284,-6.4284,-6.4284,-6.4284,-6.4284,-6.4284,-6.4324,-6.4366,-6.4404,-6.4463,-6.4651,-6.4688,-6.4743,-6.4872,-6.489,-6.489,-6.489,-6.489,-6.4833,-6.4719,-6.3999,-6.3601,-6.3601,-6.4453,-6.4907,-6.4907,-6.4907,-6.4509,-6.3677,-6.362,-6.3203,-6.2465,-6.1591,-6.1155,-3.9261,-4.0549,-4.1851,-4.1851,-4.3152,0.0,0.0,-4.5375,-4.5779,-4.6323,-4.7072,0.0,0.0,0.0,-5.093,-5.2032,-5.2742,-5.3324,-5.3864,-5.4202,-5.4424,-5.4505,-5.4606,-5.4752,-5.4886,-5.5303,-5.5588,-5.5679,-5.6044,-5.6294,-5.6339,-5.6816,-5.7218,-5.7542,-5.8555,-5.9253,-5.955,-6.0041,-6.025,-6.016,-5.9953,-5.9807,-5.969,-5.992,-6.0245,-6.068,-6.098,-6.1563,-6.2294,-6.2294,-6.2463,-6.2801,-6.3345,-6.3852,-6.4284,-6.4284,-6.4284,-6.4284,-6.4284,-6.4284,-6.4284,-6.4284,-6.4284,-6.4284,-6.4284,-6.4284,-6.4284,-6.4284,-6.4284,-6.4284,-6.4284,-6.4284,-6.4284,-6.4284,-6.4284,-6.4284,-6.4284,-6.4284,-6.4284,-6.4284,-6.4284,-6.4284,-6.4284,-6.4325,-6.4365,-6.4404,-6.4521,-6.4614,-6.4688,-6.4761,-6.4853,-6.4888,-6.4907,-6.4907,-6.4907,-6.4907,-6.4907,-6.4907,-6.4604,-6.4415,-6.4415,-6.4718,-6.4907,-6.4907,-6.4377,-6.3923,-6.3601,-6.2557,-6.1894,-6.1572,-6.0738,-6.0357,-3.9386,-4.0662,-4.1932,-4.1959,0.0,0.0,-4.5848,-4.611,-4.6354,-4.7199,-4.8232,-4.934,-5.0501,0.0,0.0,0.0,-5.3412,-5.377,-5.4315,-5.4409,-5.4441,-5.4538,-5.4641,-5.4767,-5.496,-5.5057,-5.5154,-5.5248,-5.5358,-5.5403,-5.5403,-5.5919,-5.6339,-5.6587,-5.7714,-5.8555,-5.9076,-5.9645,-6.0041,-6.0298,-6.011,-5.9953,-5.9824,-5.9755,-5.9954,-6.0357,-6.0357,-6.0773,-6.145,-6.145,-6.16,-6.1862,-6.2463,-6.3026,-6.3496,-6.3496,-6.3665,-6.3909,-6.3909,-6.4078,-6.4284,-6.4284,-6.4284,-6.4284,-6.4284,-6.4284,-6.4284,-6.4284,-6.4284,-6.4284,-6.4284,-6.4284,-6.4284,-6.4284,-6.4284,-6.4284,-6.4284,-6.4284,-6.4284,-6.4284,-6.4284,-6.4304,-6.4324,-6.4365,-6.4424,-6.4482,-6.4596,-6.4725,-6.4743,-6.4853,-6.4907,-6.4907,-6.4907,-6.4907,-6.4907,-6.4907,-6.4907,-6.4907,-6.4907,-6.4907,-6.4907,-6.4907,-6.4907,-6.4907,-6.4055,-6.3469,-6.3203,-6.178,-6.0966,-6.0717,-6.0167,-5.9902,-3.9514,-4.0727,-4.2018,-4.2096,0.0,0.0,-4.6792,-4.7109,-4.7237,-4.8063,-4.9562,-5.0707,-5.0726,-5.2078,0.0,-5.3205,-5.3883,-5.4409,-5.4409,-5.4409,-5.4476,-5.4692,-5.4708,-5.4814,-5.5066,-5.5094,-5.5181,-5.539,-5.5403,-5.5403,-5.5403,-5.5403,-5.5766,-5.6549,-5.66,-5.739,-5.9057,-5.9076,-5.9507,-6.0294,-6.0313,-6.0175,-5.9902,-5.9902,-5.9786,-5.9597,-5.9597,-6.0016,-6.0679,-6.0678,-6.1112,-6.1787,-6.1787,-6.1787,-6.1787,-6.1787,-6.235,-6.3101,-6.3101,-6.3608,-6.4286,-6.4284,-6.4284,-6.4284,-6.4284,-6.4284,-6.4284,-6.4284,-6.4284,-6.4284,-6.4284,-6.4284,-6.4284,-6.4284,-6.4284,-6.4284,-6.4284,-6.4284,-6.4284,-6.4284,-6.4304,-6.4324,-6.4385,-6.4405,-6.4463,-6.467,-6.4688,-6.4743,-6.4871,-6.4907,-6.4907,-6.4907,-6.4907,-6.4907,-6.4907,-6.4907,-6.4907,-6.4907,-6.4907,-6.4907,-6.4907,-6.4907,-6.4907,-6.4907,-6.4055,-6.3185,-6.2389,-6.1515,-6.0679,-5.9902,-5.9902,-5.9902,-4.0315,-4.1274,0.0,-4.2919,0.0,0.0,0.0,-4.7174,0.0,0.0,-5.0428,-5.1127,-5.2247,-5.2867,0.0,-5.3939,-5.424,-5.4409,-5.4409,-5.4441,-5.4541,-5.4673,-5.4736,-5.4856,-5.508,-5.5094,-5.5181,-5.539,-5.5403,-5.5396,-5.5409,-5.539,-5.5504,-5.5753,-5.6359,-5.6888,-5.7332,-5.8517,-5.9229,-5.9468,-6.0094,-6.0241,-6.0041,-5.9979,-5.9918,-5.9803,-5.9755,-5.9801,-5.9921,-5.9886,-6.0285,-6.0961,-6.0961,-6.1299,-6.1787,-6.1787,-6.1956,-6.2181,-6.2181,-6.2332,-6.2632,-6.3252,-6.3458,-6.3552,-6.4115,-6.4284,-6.4284,-6.4284,-6.4284,-6.4284,-6.4284,-6.4284,-6.4284,-6.4284,-6.4284,-6.4284,-6.4284,-6.4344,-6.4365,-6.4365,-6.4462,-6.452,-6.4539,-6.4577,-6.4633,-6.4688,-6.478,-6.4853,-6.4888,-6.4907,-6.4907,-6.4907,-6.4907,-6.4907,-6.4907,-6.4907,-6.4907,-6.4907,-6.4907,-6.4907,-6.4907,-6.4907,-6.4907,-6.4907,-6.3505,-6.2635,-6.2389,-6.0966,-6.0132,-5.9902,-5.9902,-5.9902,-4.0684,-4.1519,0.0,-4.3693,-4.5047,-4.635,-4.7524,0.0,0.0,0.0,-5.1058,-5.1685,-5.2991,-5.3485,0.0,-5.4315,-5.4409,-5.4409,-5.4409,-5.4455,-5.4538,-5.4673,-5.4771,-5.4871,-5.508,-5.5094,-5.5181,-5.539,-5.5409,-5.5396,-5.5395,-5.5432,-5.5444,-5.5444,-5.5918,-5.6333,-5.6639,-5.7613,-5.8454,-5.915,-5.9658,-6.0017,-6.0251,-6.0167,-6.006,-5.9963,-5.9872,-5.9791,-5.9669,-5.9582,-5.9794,-6.0154,-6.0154,-6.0436,-6.0811,-6.0811,-6.1036,-6.1318,-6.1318,-6.1562,-6.1958,-6.2484,-6.2878,-6.3235,-6.3724,-6.4081,-6.4325,-6.4325,-6.4384,-6.4423,-6.4423,-6.4423,-6.4403,-6.4304,-6.4324,-6.4325,-6.4325,-6.4404,-6.4482,-6.4482,-6.4539,-6.4615,-6.4634,-6.467,-6.4725,-6.4761,-6.4853,-6.4907,-6.4907,-6.4907,-6.4907,-6.4907,-6.4907,-6.4907,-6.4907,-6.4907,-6.4907,-6.4907,-6.4907,-6.4907,-6.4907,-6.4907,-6.4907,-6.4907,-6.3259,-6.2389,-6.2389,-6.0719,-5.9902,-5.9902,-5.9902,-5.9902,-4.0851,-4.1649,-4.2655,-4.4468,-4.5634,0.0,-4.8439,-4.9272,-4.9967,-5.0839,0.0,-5.2303,-5.3244,-5.3969,-5.4407,-5.4409,-5.4409,-5.4409,-5.4409,-5.4474,-5.4554,-5.4692,-5.4752,-5.4886,-5.508,-5.5094,-5.5181,-5.539,-5.5409,-5.5408,-5.5408,-5.5468,-5.5516,-5.5516,-5.5456,-5.5803,-5.6569,-5.6601,-5.7442,-5.9096,-5.9112,-5.9622,-6.0499,-6.0366,-6.0231,-6.0084,-5.9947,-5.9872,-5.9809,-5.9686,-5.9582,-5.9511,-5.9511,-5.9438,-5.9327,-5.9327,-5.9816,-6.0511,-6.0511,-6.1056,-6.1789,-6.1883,-6.2391,-6.3031,-6.3163,-6.3727,-6.4311,-6.4386,-6.4501,-6.4596,-6.4596,-6.4596,-6.4558,-6.4364,-6.4365,-6.4424,-6.4424,-6.452,-6.4615,-6.4615,-6.4615,-6.4652,-6.4707,-6.4725,-6.4761,-6.4871,-6.4907,-6.4907,-6.4907,-6.4907,-6.4907,-6.4907,-6.4907,-6.4907,-6.4907,-6.4907,-6.4907,-6.4907,-6.4907,-6.4907,-6.4907,-6.4907,-6.4907,-6.4907,-6.3334,-6.2465,-6.2389,-6.0795,-5.9961,-5.9902,-5.9902,-5.9902,0.0,-4.2155,0.0,0.0,-4.7024,-4.8388,-4.9419,-4.9752,-5.026,-5.1697,-5.2141,-5.2647,-5.3992,-5.4376,-5.4455,-5.4407,-5.4409,-5.4409,-5.4409,-5.4559,-5.4673,-5.4708,-5.4814,-5.4946,-5.508,-5.5094,-5.5181,-5.539,-5.5409,-5.542,-5.548,-5.5539,-5.5573,-5.5573,-5.5562,-5.5623,-5.5749,-5.6426,-5.7289,-5.8336,-5.8962,-5.9709,-6.0578,-6.038,-6.0231,-6.0103,-6.001,-5.9934,-5.9872,-5.9791,-5.9705,-5.9581,-5.9581,-5.9563,-5.9545,-5.9545,-5.964,-5.9809,-5.9809,-5.9959,-6.0222,-6.09,-6.124,-6.1636,-6.2899,-6.3408,-6.3691,-6.4351,-6.4577,-6.4596,-6.4596,-6.4596,-6.4596,-6.4539,-6.4558,-6.4558,-6.4558,-6.4634,-6.4689,-6.4689,-6.4762,-6.4835,-6.4853,-6.4853,-6.4871,-6.4907,-6.4907,-6.4907,-6.4907,-6.4907,-6.4907,-6.4907,-6.4907,-6.4907,-6.4907,-6.4907,-6.4907,-6.4907,-6.4907,-6.4907,-6.4907,-6.4907,-6.4907,-6.4907,-6.3884,-6.3014,-6.2389,-6.1345,-6.0527,-5.9902,-5.9902,-5.9902,0.0,0.0,0.0,-4.6032,0.0,-4.8907,-4.9722,-4.9912,-5.0258,-5.1509,-5.1726,-5.216,-5.3729,-5.397,-5.4037,-5.4382,-5.4424,-5.4409,-5.4409,-5.4576,-5.4708,-5.4708,-5.4829,-5.4941,-5.508,-5.5094,-5.5181,-5.539,-5.5434,-5.5468,-5.5504,-5.5596,-5.564,-5.564,-5.5607,-5.5585,-5.5551,-5.5976,-5.6628,-5.7546,-5.8335,-5.9383,-6.0591,-6.0464,-6.0347,-6.0241,-6.0167,-6.0091,-5.9979,-5.9918,-5.9839,-5.9736,-5.9704,-5.9669,-5.9616,-5.9616,-5.9616,-5.9616,-5.9616,-5.9633,-5.9762,-6.0232,-6.0629,-6.1101,-6.1933,-6.2462,-6.2971,-6.384,-6.4103,-6.4216,-6.465,-6.4745,-6.4745,-6.4745,-6.4689,-6.4652,-6.4652,-6.4726,-6.4798,-6.4798,-6.4853,-6.4907,-6.4907,-6.4907,-6.4907,-6.4907,-6.4907,-6.4907,-6.4907,-6.4907,-6.4907,-6.4907,-6.4907,-6.4907,-6.4907,-6.4907,-6.4907,-6.4907,-6.4907,-6.4907,-6.4907,-6.4907,-6.4907,-6.4907,-6.4055,-6.3185,-6.2389,-6.1534,-6.0681,-5.9902,-5.9902,-5.9902,0.0,0.0,-4.3568,-4.662,-4.8073,0.0,-4.9722,-4.9912,-5.0101,-5.0827,-5.0998,-5.1504,-5.3021,-5.3201,-5.3333,-5.4011,-5.4155,-5.42,-5.42,-5.4482,-5.4708,-5.4708,-5.4829,-5.4941,-5.508,-5.5094,-5.5181,-5.539,-5.547,-5.5504,-5.5504,-5.5618,-5.5703,-5.5703,-5.566,-5.5618,-5.5618,-5.5562,-5.6003,-5.6925,-5.7884,-5.9146,-6.0629,-6.0565,-6.0499,-6.0431,-6.0352,-6.026,-6.0148,-6.0057,-5.9982,-5.9902,-5.9857,-5.9755,-5.965,-5.965,-5.965,-5.965,-5.965,-5.9721,-5.9826,-5.9826,-6.0261,-6.0829,-6.098,-6.1472,-6.2191,-6.3061,-6.3435,-6.3753,-6.449,-6.4794,-6.4907,-6.4907,-6.4816,-6.4743,-6.4743,-6.4816,-6.4907,-6.4907,-6.4907,-6.4907,-6.4907,-6.4907,-6.4907,-6.4907,-6.4907,-6.4907,-6.4907,-6.4907,-6.4907,-6.4907,-6.4907,-6.4907,-6.4907,-6.4907,-6.4907,-6.4907,-6.4907,-6.4907,-6.4907,-6.4907,-6.4907,-6.4907,-6.4206,-6.3336,-6.2389,-6.1686,-6.0833,-5.9902,-5.9902,-5.9902,0.0,0.0,-4.5028,0.0,-4.8073,-4.8907,0.0,0.0,-4.9931,0.0,-5.0661,-5.1448,-5.2298,-5.2458,-5.2451,-5.2488,-5.3031,-5.3454,-5.3454,-5.4172,-5.4708,-5.4708,-5.4829,-5.4941,-5.508,-5.5094,-5.5181,-5.539,-5.547,-5.5504,-5.5504,-5.5618,-5.5703,-5.5703,-5.5703,-5.5692,-5.5692,-5.5692,-5.6115,-5.7011,-5.8566,-5.9835,-6.0777,-6.0697,-6.0642,-6.0565,-6.0444,-6.0375,-6.0347,-6.0163,-6.0057,-5.9998,-5.9982,-5.9934,-5.9853,-5.9853,-5.9853,-5.9853,-5.9853,-5.9869,-5.9888,-5.9888,-5.9964,-6.0172,-6.0873,-6.1157,-6.1423,-6.2313,-6.3052,-6.362,-6.3734,-6.4339,-6.4907,-6.4907,-6.489,-6.4871,-6.4871,-6.489,-6.4907,-6.4907,-6.4907,-6.4907,-6.4907,-6.4907,-6.4907,-6.4907,-6.4907,-6.4907,-6.4907,-6.4907,-6.4907,-6.4907,-6.4907,-6.4907,-6.4907,-6.4907,-6.4907,-6.4907,-6.4907,-6.4907,-6.4907,-6.4907,-6.4907,-6.4907,-6.4794,-6.396,-6.2389,-6.2292,-6.142,-5.9902,-5.9902,-5.9902,-4.0745,-4.2678,-4.4516,0.0,-4.6639,-4.7637,-4.8926,-4.9229,-4.9362,-4.9817,-5.0201,-5.0718,-5.1542,-5.1613,-5.1721,-5.2182,-5.2503,-5.2837,-5.3289,-5.3745,-5.4207,-5.4714,-5.4845,-5.4941,-5.508,-5.5094,-5.5181,-5.539,-5.547,-5.5504,-5.5504,-5.5618,-5.5703,-5.5703,-5.5703,-5.5703,-5.5703,-5.5703,-5.6376,-5.7742,-5.8473,-5.9511,-6.08,-6.0777,-6.0729,-6.0655,-6.0552,-6.0485,-6.0444,-6.0313,-6.0226,-6.0156,-6.0091,-6.001,-5.9966,-5.9966,-5.9934,-5.9902,-5.9902,-5.9902,-5.9902,-5.9902,-5.9902,-5.9961,-6.0321,-6.0432,-6.0586,-6.1439,-6.1932,-6.2425,-6.3372,-6.3867,-6.4301,-6.4794,-6.4907,-6.4907,-6.4907,-6.4907,-6.4907,-6.4907,-6.4907,-6.4907,-6.4907,-6.4907,-6.4907,-6.4907,-6.4907,-6.4907,-6.4907,-6.4907,-6.4907,-6.4907,-6.4907,-6.4907,-6.4907,-6.4907,-6.4907,-6.4907,-6.4907,-6.4907,-6.4907,-6.4907,-6.4907,-6.4907,-6.4907,-6.4301,-6.3071,-6.2616,-6.1875,-6.083,-6.0205,-5.9902,0.0,0.0,-4.336,-4.4592,-4.5388,-4.6297,0.0,0.0,-4.8604,0.0,-4.9608,-4.9874,-5.0713,-5.0804,-5.0932,-5.1575,-5.1819,-5.21,-5.2704,-5.3203,-5.3743,-5.4386,-5.4708,-5.4941,-5.508,-5.5094,-5.5181,-5.539,-5.547,-5.5504,-5.5504,-5.5618,-5.5703,-5.5703,-5.5703,-5.5703,-5.5703,-5.5703,-5.6453,-5.7973,-5.8184,-5.9069,-6.0473,-6.0704,-6.0777,-6.071,-6.0648,-6.0604,-6.0552,-6.0485,-6.0389,-6.0308,-6.0226,-6.0118,-6.0026,-6.0026,-5.9979,-5.9918,-5.9918,-5.9918,-5.9902,-5.9902,-5.9902,-5.9902,-5.9902,-5.9902,-6.0034,-6.0641,-6.0928,-6.1382,-6.2652,-6.3145,-6.3524,-6.4377,-6.4566,-6.4642,-6.485,-6.4907,-6.4907,-6.4907,-6.4907,-6.4907,-6.4907,-6.4907,-6.4907,-6.4907,-6.4907,-6.4907,-6.4907,-6.4907,-6.4907,-6.4907,-6.4907,-6.4907,-6.4907,-6.4907,-6.4907,-6.4907,-6.4907,-6.4907,-6.4907,-6.4907,-6.4907,-6.4907,-6.4907,-6.4453,-6.3507,-6.2899,-6.2103,-6.1153,-6.03,-5.9902,0.0,-4.1264,0.0,-4.4308,-4.4933,0.0,0.0,0.0,-4.77,-4.8585,-4.8755,-4.9021,-4.9817,-4.9955,-4.9974,-5.0012,-5.0605,-5.1078,-5.1116,-5.2496,-5.3517,-5.3554,-5.4349,-5.4941,-5.508,-5.5094,-5.5181,-5.539,-5.547,-5.5504,-5.5504,-5.5618,-5.5703,-5.5703,-5.5703,-5.5703,-5.5703,-5.5703,-5.6145,-5.708,-5.7915,-5.8742,-5.9608,-6.0416,-6.08,-6.08,-6.0722,-6.0685,-6.0673,-6.0617,-6.0512,-6.0389,-6.0389,-6.027,-6.0084,-6.0084,-6.0057,-5.9994,-5.9994,-5.9966,-5.9902,-5.9902,-5.9902,-5.9902,-5.9902,-5.9902,-5.9921,-5.9958,-6.0527,-6.1117,-6.1212,-6.1837,-6.2654,-6.3469,-6.3658,-6.3886,-6.4718,-6.4907,-6.4907,-6.4907,-6.4907,-6.4907,-6.4907,-6.4907,-6.4907,-6.4907,-6.4907,-6.4907,-6.4907,-6.4907,-6.4907,-6.4907,-6.4907,-6.4907,-6.4907,-6.4907,-6.4907,-6.4907,-6.4907,-6.4907,-6.4907,-6.4907,-6.4907,-6.4907,-6.4907,-6.434,-6.3224,-6.3181,-6.2065,-6.0007,-5.9926,-5.9902,0.0,0.0,0.0,-4.2299,-4.3341,-4.4421,-4.5539,-4.6222,-4.6847,-4.7681,-4.787,-4.8117,-4.8983,-4.9551,-4.9912,-4.9912,-5.0112,-5.0482,-5.105,-5.2077,-5.2986,-5.3568,-5.4394,-5.4941,-5.508,-5.5094,-5.5181,-5.539,-5.547,-5.5504,-5.5504,-5.5618,-5.5703,-5.5703,-5.5703,-5.5703,-5.5703,-5.5703,-5.6137,-5.7003,-5.7877,-5.8723,-5.9531,-6.0396,-6.08,-6.08,-6.0757,-6.0734,-6.0697,-6.066,-6.0617,-6.0525,-6.0525,-6.0425,-6.0299,-6.0299,-6.0212,-6.0053,-6.0053,-6.0057,-6.0026,-6.0026,-6.0026,-6.0026,-6.0026,-6.0026,-6.0026,-5.9982,-6.0156,-6.05,-6.0982,-6.1326,-6.1913,-6.3296,-6.3601,-6.3829,-6.4718,-6.4907,-6.4907,-6.4907,-6.4907,-6.4907,-6.4907,-6.4907,-6.4907,-6.4907,-6.4907,-6.4907,-6.4907,-6.4907,-6.4907,-6.4907,-6.4907,-6.4907,-6.4907,-6.4907,-6.4907,-6.4907,-6.4907,-6.4907,-6.4907,-6.4907,-6.4907,-6.4907,-6.4907,-6.4699,-6.4283,-6.4298,-6.3879,-6.3061,-6.0909,-5.9907,-3.902,0.0,0.0,0.0,0.0,-4.3076,-4.3891,0.0,-4.5596,-4.6392,-4.679,-4.7264,-4.8111,-4.8945,-4.9589,-4.9855,-4.9912,-5.0101,-5.0675,-5.149,-5.2324,-5.3158,-5.3992,-5.4657,-5.5061,-5.5094,-5.5181,-5.5377,-5.5463,-5.5516,-5.5527,-5.5629,-5.5703,-5.5703,-5.5703,-5.5703,-5.5703,-5.5703,-5.5992,-5.6579,-5.7453,-5.8292,-5.9141,-6.0007,-6.0577,-6.0858,-6.0858,-6.0823,-6.0722,-6.0722,-6.0685,-6.0642,-6.0642,-6.0565,-6.0472,-6.0472,-6.0356,-6.0193,-6.0193,-6.0163,-6.0099,-6.0099,-6.0099,-6.0099,-6.0099,-6.0099,-6.0084,-6.0057,-6.001,-6.0111,-6.0595,-6.0923,-6.1382,-6.2501,-6.2993,-6.3355,-6.3941,-6.4509,-6.4907,-6.4907,-6.4907,-6.4907,-6.4907,-6.4907,-6.4907,-6.4907,-6.4907,-6.4907,-6.4907,-6.4907,-6.4907,-6.4907,-6.4907,-6.4907,-6.4907,-6.4907,-6.4907,-6.4907,-6.4907,-6.4907,-6.4907,-6.4907,-6.4907,-6.4907,-6.4907,-6.4907,-6.4907,-6.4886,-6.4315,-6.316,-6.0932,-5.9926,0.0,0.0,0.0,0.0,0.0,0.0,-4.2192,0.0,-4.3891,-4.4706,-4.5539,-4.6373,-4.7207,-4.8073,-4.8888,-4.9703,-4.9874,-4.9912,-4.9912,-5.0656,-5.1476,-5.2272,-5.3158,-5.405,-5.4985,-5.5094,-5.5189,-5.5383,-5.5468,-5.5527,-5.5596,-5.5651,-5.5703,-5.5703,-5.5703,-5.5703,-5.5703,-5.5714,-5.5714,-5.5714,-5.6599,-5.7459,-5.8301,-5.9177,-6.0057,-6.091,-6.0948,-6.0894,-6.0773,-6.0812,-6.0777,-6.0697,-6.0717,-6.0648,-6.0604,-6.0604,-6.0525,-6.0403,-6.0403,-6.0285,-6.0114,-6.0114,-6.0114,-6.0114,-6.0114,-6.0114,-6.0099,-6.0099,-6.0057,-5.9994,-5.9994,-6.0519,-6.1077,-6.1079,-6.1743,-6.237,-6.2389,-6.3694,-6.4832,-6.4869,-6.4888,-6.4907,-6.4907,-6.4907,-6.4907,-6.4907,-6.4907,-6.4907,-6.4907,-6.4907,-6.4907,-6.4907,-6.4907,-6.4907,-6.4907,-6.4907,-6.4907,-6.4907,-6.4907,-6.4907,-6.4907,-6.4907,-6.4907,-6.4907,-6.4907,-6.4907,-6.4907,-6.4886,-6.3185,-5.9982,-5.9935,-5.9977,-3.8974,0.0,0.0,0.0,0.0,0.0,0.0,0.0,-4.3,-4.3853,-4.4213,-4.4819,-4.6259,-4.6733,-4.715,-4.7946,-4.9115,-4.9912,-4.9912,-5.0656,-5.1268,-5.1514,-5.2817,-5.3841,-5.4199,-5.4765,-5.5189,-5.5383,-5.5468,-5.5527,-5.5596,-5.5651,-5.5703,-5.5703,-5.5703,-5.5703,-5.5703,-5.5745,-5.5766,-5.5785,-5.6713,-5.7273,-5.7544,-5.8363,-5.8874,-5.9154,-5.9791,-6.005,-6.0057,-6.0674,-6.0933,-6.0922,-6.0858,-6.08,-6.0741,-6.0704,-6.0629,-6.0539,-6.0539,-6.0512,-6.0466,-6.0466,-6.0466,-6.0466,-6.0466,-6.0425,-6.0384,-6.0328,-6.0275,-6.0171,-6.0045,-6.0121,-6.0378,-6.0947,-6.1269,-6.1629,-6.2256,-6.2749,-6.326,-6.3865,-6.4471,-6.4907,-6.4907,-6.4907,-6.4907,-6.4907,-6.4907,-6.4907,-6.4907,-6.4907,-6.4907,-6.4907,-6.4907,-6.4907,-6.4907,-6.4907,-6.4907,-6.4907,-6.4907,-6.4907,-6.4907,-6.4907,-6.4907,-6.4907,-6.4907,-6.4907,-6.4907,-6.4906,-6.3808,-6.1673,-6.0562,-6.0051,-3.9191,-3.9551,0.0,0.0,0.0,0.0,-4.0658,-4.1302,-4.2041,-4.2564,-4.2924,-4.3568,-4.4914,-4.5426,-4.5918,-4.6752,-4.7984,-4.8983,-4.9362,-5.0126,-5.0789,-5.1154,-5.2362,-5.3348,-5.3857,-5.4632,-5.5203,-5.5432,-5.548,-5.5539,-5.5649,-5.5692,-5.5714,-5.5745,-5.5745,-5.5756,-5.5776,-5.5826,-5.5836,-5.5836,-5.6406,-5.686,-5.7226,-5.769,-5.8105,-5.851,-5.9012,-5.9244,-5.9302,-6.0171,-6.073,-6.1006,-6.0955,-6.0922,-6.0869,-6.0835,-6.0765,-6.0692,-6.0692,-6.0655,-6.0604,-6.0604,-6.0604,-6.0604,-6.0604,-6.0578,-6.0525,-6.0458,-6.038,-6.025,-6.006,-5.9963,-6.0048,-6.0489,-6.0603,-6.0738,-6.125,-6.1629,-6.2103,-6.2938,-6.3772,-6.4358,-6.4358,-6.4661,-6.4907,-6.4907,-6.4907,-6.4907,-6.4907,-6.4907,-6.4907,-6.4907,-6.4907,-6.4907,-6.4907,-6.4907,-6.4907,-6.4907,-6.4907,-6.4907,-6.4907,-6.4907,-6.4907,-6.4907,-6.4907,-6.4697,-6.4277,-6.3998,-6.3014,-6.1418,-6.0507,-6.0125,-3.9911,-3.9911,-3.9911,-3.99,-3.99,0.0,-3.99,-4.0506,-4.1075,-4.1169,-4.1757,-4.2533,-4.3398,-4.4137,-4.4876,-4.5653,-4.6525,-4.7453,-4.8433,-4.9248,-5.005,-5.0827,-5.1722,-5.2665,-5.3666,-5.4485,-5.5121,-5.5461,-5.5516,-5.5573,-5.5695,-5.5714,-5.5745,-5.5816,-5.5816,-5.5836,-5.5895,-5.5905,-5.5905,-5.5905,-5.5914,-5.6329,-5.708,-5.708,-5.7523,-5.8314,-5.841,-5.8449,-5.8526,-5.9493,-6.0288,-6.0892,-6.0969,-6.0997,-6.0997,-6.0997,-6.0933,-6.0823,-6.0823,-6.0741,-6.0642,-6.0642,-6.0642,-6.0642,-6.0642,-6.0629,-6.0604,-6.0525,-6.0422,-6.0264,-6.0076,-6.001,-5.9994,-5.9934,-5.9918,-5.9918,-5.9918,-6.0487,-6.1226,-6.1987,-6.2861,-6.3469,-6.3469,-6.4187,-6.4775,-6.4775,-6.485,-6.4907,-6.4907,-6.4907,-6.4907,-6.4907,-6.4907,-6.4907,-6.4907,-6.4907,-6.4907,-6.4907,-6.4907,-6.4907,-6.4907,-6.4907,-6.4907,-6.4925,-6.483,-6.4313,-6.3318,-6.2707,-6.1667,-6.0247,-6.0148,-6.0182,-4.0005,-3.9975,-3.9965,-3.9911,-3.99,0.0,-3.99,-4.0033,-4.0355,-4.1056,-4.1321,-4.1681,-4.2507,-4.2791,-4.2943,-4.3114,-4.4402,-4.5918,-4.7434,-4.8395,-4.9002,-4.9172,-5.0523,-5.1811,-5.2772,-5.3642,-5.451,-5.5423,-5.5596,-5.5703,-5.5776,-5.5776,-5.5816,-5.5885,-5.5885,-5.5885,-5.5895,-5.5962,-5.5981,-5.5981,-5.5979,-5.6063,-5.6227,-5.6227,-5.6332,-5.6553,-5.725,-5.7559,-5.7675,-5.9242,-5.9987,-6.0171,-6.077,-6.1011,-6.1001,-6.0989,-6.0976,-6.0955,-6.0955,-6.0944,-6.0922,-6.0922,-6.0922,-6.0911,-6.0846,-6.08,-6.071,-6.0552,-6.0444,-6.0366,-6.0264,-6.0152,-6.0087,-6.0053,-6.0072,-6.0072,-6.0072,-6.0186,-6.0357,-6.0513,-6.1674,-6.2616,-6.2616,-6.3298,-6.3848,-6.3848,-6.4453,-6.4907,-6.4907,-6.4907,-6.4907,-6.4907,-6.4907,-6.4907,-6.4907,-6.4907,-6.4907,-6.4907,-6.4907,-6.4907,-6.4907,-6.4907,-6.4942,-6.5067,-6.4415,-6.3647,-6.2769,-6.2623,-6.2104,-6.121,-6.0555,-6.0289,-4.0171,-4.0057,-4.0046,-4.0015,-4.0005,0.0,0.0,-3.964,-3.9583,-4.0385,-4.0233,-4.0328,-4.1567,-4.1795,-4.1927,-4.2325,-4.3114,-4.3947,-4.4781,-4.6714,-4.8054,-4.8054,-4.9546,-5.0789,-5.1307,-5.2571,-5.3798,-5.4875,-5.5451,-5.5766,-5.5787,-5.5836,-5.5885,-5.5953,-5.5953,-5.5952,-5.5951,-5.5979,-5.5987,-5.5996,-5.5995,-5.6012,-5.6012,-5.6012,-5.6012,-5.6031,-5.6448,-5.6641,-5.6738,-5.8062,-5.8855,-5.9377,-6.0587,-6.1041,-6.1061,-6.1051,-6.1021,-6.1,-6.1,-6.0999,-6.0987,-6.0987,-6.0987,-6.0987,-6.0955,-6.0869,-6.0777,-6.0642,-6.0539,-6.0431,-6.0366,-6.0275,-6.0182,-6.0118,-6.0099,-6.0099,-6.0099,-6.0099,-6.0099,-6.0099,-6.0725,-6.1384,-6.182,-6.2528,-6.3061,-6.3061,-6.3389,-6.3808,-6.4206,-6.4263,-6.4434,-6.485,-6.4907,-6.4907,-6.4907,-6.4907,-6.4907,-6.4907,-6.4907,-6.4944,-6.5053,-6.5015,-6.4822,-6.4505,-6.4149,-6.3305,-6.2048,-6.2075,-6.169,-6.0889,-6.0528,-6.038,-4.0604,-4.0375,-4.0327,-4.0155,-4.0106,-4.0096,0.0,0.0,0.0,-3.9564,0.0,0.0,0.0,0.0,0.0,-4.1601,0.0,0.0,0.0,-4.4642,0.0,-4.6885,-4.8466,-4.9683,-5.0051,-5.1763,-5.3218,-5.4098,-5.4888,-5.5315,-5.5335,-5.5393,-5.5451,-5.5525,-5.5525,-5.5601,-5.578,-5.578,-5.5857,-5.6012,-5.6012,-5.6012,-5.6012,-5.6012,-5.6012,-5.6012,-5.6012,-5.6012,-5.6089,-5.7134,-5.7965,-5.8748,-6.0267,-6.0963,-6.1099,-6.1099,-6.107,-6.1022,-6.1022,-6.1031,-6.1029,-6.1029,-6.1018,-6.1008,-6.1008,-6.0914,-6.0812,-6.0753,-6.0623,-6.0525,-6.0458,-6.0408,-6.0337,-6.0222,-6.0207,-6.0207,-6.0207,-6.0207,-6.0207,-6.0207,-6.0207,-6.0402,-6.1031,-6.1768,-6.229,-6.229,-6.2357,-6.2667,-6.3314,-6.3389,-6.3655,-6.4339,-6.4434,-6.4471,-6.4549,-6.4773,-6.4924,-6.4961,-6.4942,-6.5033,-6.5194,-6.5002,-6.4503,-6.3692,-6.3581,-6.2864,-6.1529,-6.1425,-6.1024,-6.0308,-6.0361,-6.0403,-4.1581,-4.1351,-4.1131,-4.0308,-4.0106,-4.0106,-4.0077,0.0,-3.8822,-3.8907,0.0,0.0,0.0,0.0,0.0,0.0,0.0,0.0,-4.141,-4.2359,-4.3589,-4.5009,-4.672,-4.8378,-4.9949,-5.1847,-5.3083,-5.3317,-5.3484,-5.361,-5.3674,-5.3683,-5.3709,-5.3779,-5.3779,-5.4147,-5.4929,-5.4948,-5.5296,-5.6012,-5.6012,-5.6012,-5.6012,-5.6012,-5.6012,-5.6012,-5.6012,-5.6012,-5.6128,-5.7772,-5.8507,-5.8709,-5.9648,-6.046,-6.1099,-6.1099,-6.1089,-6.1089,-6.1089,-6.1089,-6.1099,-6.1099,-6.1051,-6.0992,-6.0992,-6.0959,-6.0869,-6.0812,-6.0722,-6.0648,-6.0604,-6.0565,-6.0565,-6.0552,-6.0533,-6.0533,-6.0533,-6.0533,-6.0533,-6.0533,-6.0533,-6.0472,-6.0277,-6.0959,-6.1529,-6.1529,-6.2123,-6.2585,-6.2634,-6.2618,-6.2642,-6.2671,-6.2673,-6.2881,-6.3338,-6.4329,-6.4985,-6.516,-6.5171,-6.5182,-6.5199,-6.4521,-6.3752,-6.2929,-6.2222,-6.1788,-6.1597,-6.0955,-6.054,-6.0389,-6.0389,-6.0431,-4.2555,-4.1971,-4.1513,-4.1131,-4.0654,-4.0262,-4.0215,-3.9547,-3.9042,-3.9519,0.0,0.0,0.0,0.0,0.0,0.0,-3.8689,0.0,0.0,0.0,-4.1138,-4.3266,0.0,-4.6885,-4.87,-5.0503,-5.16,-5.1732,-5.2704,-5.332,-5.3402,-5.3436,-5.3481,-5.3498,-5.3498,-5.3672,-5.4039,-5.4542,-5.4967,-5.5316,-5.578,-5.6012,-5.6012,-5.6012,-5.6012,-5.6012,-5.6012,-5.6012,-5.6109,-5.7346,-5.8139,-5.869,-5.9551,-6.0383,-6.1099,-6.1099,-6.1099,-6.1099,-6.1099,-6.1099,-6.1099,-6.1099,-6.108,-6.1041,-6.1012,-6.0972,-6.0939,-6.0924,-6.0858,-6.08,-6.0741,-6.0692,-6.0655,-6.0617,-6.0604,-6.0604,-6.0604,-6.0604,-6.0604,-6.0604,-6.0604,-6.0565,-6.0406,-6.0633,-6.0809,-6.0783,-6.0986,-6.132,-6.1802,-6.1863,-6.2018,-6.248,-6.28,-6.3066,-6.3313,-6.346,-6.359,-6.3704,-6.3502,-6.3511,-6.3794,-6.3528,-6.2977,-6.218,-6.1826,-6.1447,-6.1029,-6.0711,-6.0539,-6.0512,-6.0512,-6.0539,-4.3555,-4.2874,-4.2375,-4.2127,-4.14,-4.075,-4.0696,-3.9818,-3.9181,-3.9775,-3.9185,0.0,0.0,0.0,0.0,0.0,0.0,-3.7871,0.0,-3.8128,0.0,0.0,-4.3621,-4.5496,-4.7154,-4.8602,-4.9709,-5.0325,-5.1546,-5.2382,-5.2704,-5.2766,-5.2782,-5.2782,-5.2782,-5.2898,-5.313,-5.3768,-5.4329,-5.4813,-5.5393,-5.5799,-5.6012,-5.6012,-5.6012,-5.6012,-5.6012,-5.6012,-5.607,-5.6932,-5.7811,-5.869,-5.9551,-6.0383,-6.1099,-6.1099,-6.1099,-6.1099,-6.1099,-6.1099,-6.1099,-6.1099,-6.1099,-6.1089,-6.1032,-6.1012,-6.0992,-6.099,-6.0957,-6.0922,-6.0858,-6.0823,-6.0777,-6.0729,-6.0704,-6.0704,-6.0704,-6.0704,-6.0704,-6.0704,-6.0704,-6.0704,-6.0692,-6.0565,-6.0431,-6.0394,-6.0285,-6.0436,-6.1054,-6.1115,-6.1313,-6.1869,-6.2249,-6.2493,-6.2516,-6.2135,-6.2074,-6.2448,-6.2391,-6.2394,-6.2489,-6.2562,-6.2232,-6.1412,-6.1406,-6.1146,-6.0604,-6.0642,-6.0655,-6.0655,-6.0642,-6.0642,-4.4583,-4.4325,-4.4105,-4.3264,-4.2349,-4.1654,-4.1654,-4.0334,-3.9103,-3.9122,-3.8498,-3.7915,-3.7838,0.0,0.0,0.0,0.0,0.0,0.0,0.0,0.0,0.0,-4.2404,-4.4378,-4.5467,-4.632,-4.7578,-4.9395,-4.9586,-5.0025,-5.0929,-5.0975,-5.0975,-5.0975,-5.0975,-5.1389,-5.2229,-5.2268,-5.313,-5.4793,-5.4832,-5.5258,-5.6012,-5.6012,-5.6012,-5.6012,-5.6012,-5.6012,-5.607,-5.6932,-5.7811,-5.869,-5.9551,-6.0383,-6.1099,-6.1099,-6.1099,-6.1099,-6.1099,-6.1099,-6.1099,-6.1099,-6.1099,-6.1099,-6.1099,-6.1041,-6.1002,-6.1002,-6.1,-6.1006,-6.0987,-6.0987,-6.0987,-6.0976,-6.0976,-6.0976,-6.0976,-6.0976,-6.0976,-6.0976,-6.0976,-6.0965,-6.0911,-6.0729,-6.0591,-6.0591,-6.0539,-6.0472,-6.0441,-6.0375,-6.0288,-6.0194,-6.0213,-6.0236,-6.0304,-6.0228,-6.0722,-6.2031,-6.2663,-6.259,-6.1767,-6.1797,-6.1467,-6.0648,-6.0629,-6.061,-6.0604,-6.0741,-6.08,-6.08,-6.0741,-6.0722,-4.7071,-4.6167,-4.5252,-4.4905,-4.3744,-4.2695,-4.2695,-4.2202,-4.1582,-4.1008,-4.0641,-4.0063,-3.8933,0.0,0.0,0.0,0.0,0.0,0.0,0.0,0.0,0.0,0.0,-4.2106,-4.3636,-4.5065,-4.6224,-4.6926,-4.8544,-4.9677,-5.0086,-5.0608,-5.0898,-5.0898,-5.0898,-5.1033,-5.1351,-5.1912,-5.2782,-5.3942,-5.4523,-5.5219,-5.6012,-5.6012,-5.6012,-5.6012,-5.6012,-5.6012,-5.607,-5.6932,-5.7811,-5.869,-5.9551,-6.0383,-6.1099,-6.1099,-6.1099,-6.1099,-6.1099,-6.1099,-6.1099,-6.1099,-6.1099,-6.1099,-6.1099,-6.1089,-6.107,-6.107,-6.108,-6.106,-6.1001,-6.0991,-6.1,-6.0997,-6.0987,-6.0987,-6.0987,-6.0987,-6.0987,-6.0987,-6.0987,-6.0987,-6.0965,-6.0911,-6.0812,-6.0692,-6.0617,-6.0565,-6.0539,-6.0512,-6.0466,-6.0382,-6.0343,-6.033,-6.0464,-6.0477,-6.0657,-6.1067,-6.1299,-6.1274,-6.0986,-6.1045,-6.0961,-6.0741,-6.0777,-6.0812,-6.0858,-6.0911,-6.0933,-6.0933,-6.0908,-6.0897,-4.8387,-4.7586,-4.6755,-4.6706,-4.5416,-4.4153,-4.4153,-4.3634,-4.2972,-4.2406,-4.2256,-4.1805,-4.0385,0.0,0.0,0.0,0.0,0.0,0.0,-3.6307,0.0,-3.6493,-3.8512,0.0,-4.1872,-4.3605,-4.4934,-4.5653,-4.7529,-4.894,-4.966,-5.0183,-5.0589,-5.0898,-5.0898,-5.0898,-5.0898,-5.1757,-5.2635,-5.3517,-5.4387,-5.5219,-5.6012,-5.6012,-5.6012,-5.6012,-5.6012,-5.6012,-5.6051,-5.6603,-5.754,-5.8671,-5.9223,-6.0112,-6.1099,-6.1099,-6.1099,-6.1099,-6.1099,-6.1099,-6.1099,-6.1099,-6.1099,-6.1099,-6.1099,-6.1099,-6.1099,-6.1099,-6.1099,-6.1089,-6.1061,-6.1032,-6.1041,-6.104,-6.103,-6.103,-6.103,-6.103,-6.103,-6.103,-6.103,-6.103,-6.103,-6.102,-6.0967,-6.0835,-6.0729,-6.068,-6.068,-6.0629,-6.0565,-6.0495,-6.0495,-6.0546,-6.0642,-6.0661,-6.0655,-6.0642,-6.0667,-6.068,-6.0704,-6.0777,-6.0823,-6.0869,-6.0903,-6.0955,-6.0987,-6.0999,-6.1009,-6.103,-6.1051,-6.109]},{"header":{"parameterUnit":"m.s-1","parameterCategory":1,"la1":30.6,"la2":29.2853,"lo1":-89.7004,"lo2":-87.6739,"dy":0.0162,"dx":0.0183,"nx":112,"ny":82,"refTime":"2023-03-05T18:00:00:Z","depth":0,"parameterNumber":3,"parameterNumberName":"V-component_of_WINDS"},"data":[0.0,0.0,0.0,0.0,0.0,0.0,0.0,0.0,0.0,0.0,0.0,0.0,0.0,0.0,0.0,0.0,0.0,0.0,0.0,0.0,0.0,0.0,0.0,0.0,0.0,0.0,0.0,0.0,0.0,0.0,0.0,0.0,0.0,0.0,0.0,0.0,0.0,0.0,0.0,0.0,0.0,0.0,0.0,0.0,0.0,0.0,0.0,0.0,0.0,0.0,0.0,0.0,0.0,0.0,0.0,0.0,0.0,0.0,0.0,0.0,0.0,0.0,0.0,0.0,0.0,0.0,0.0,0.0,0.0,0.0,0.0,0.0,0.0,0.0,0.0,0.0,0.0,0.0,0.0,0.0,0.0,0.0,0.0,0.0,0.0,0.0,0.0,0.0,0.0,0.0,-1.466,-1.4931,-1.509,-1.521,-1.5242,-1.5047,-1.4719,-1.4326,0.0,0.0,0.0,0.0,0.0,0.0,0.0,0.0,0.0,0.0,0.0,0.0,0.0,0.0,0.0,0.0,0.0,0.0,0.0,0.0,0.0,0.0,0.0,0.0,0.0,0.0,0.0,0.0,0.0,0.0,0.0,0.0,0.0,0.0,0.0,0.0,0.0,0.0,0.0,0.0,0.0,0.0,0.0,0.0,0.0,0.0,0.0,0.0,0.0,0.0,0.0,0.0,0.0,0.0,0.0,0.0,0.0,0.0,0.0,0.0,0.0,0.0,0.0,0.0,0.0,0.0,0.0,0.0,0.0,0.0,0.0,0.0,0.0,0.0,0.0,0.0,0.0,0.0,0.0,0.0,0.0,0.0,0.0,0.0,0.0,0.0,0.0,0.0,0.0,0.0,0.0,0.0,0.0,0.0,0.0,0.0,0.0,0.0,0.0,0.0,0.0,0.0,0.0,0.0,-1.4421,-1.4848,-1.5063,-1.5274,-1.5531,-1.5138,-1.4853,-1.4783,0.0,0.0,0.0,0.0,0.0,0.0,0.0,0.0,0.0,0.0,0.0,0.0,0.0,0.0,0.0,0.0,0.0,0.0,0.0,0.0,0.0,0.0,0.0,0.0,0.0,0.0,0.0,0.0,0.0,0.0,0.0,0.0,0.0,0.0,0.0,0.0,0.0,0.0,0.0,0.0,0.0,0.0,0.0,0.0,0.0,0.0,0.0,0.0,0.0,0.0,0.0,0.0,0.0,0.0,0.0,0.0,0.0,0.0,0.0,0.0,0.0,0.0,0.0,0.0,0.0,0.0,0.0,0.0,0.0,0.0,0.0,0.0,0.0,0.0,0.0,0.0,0.0,0.0,0.0,0.0,0.0,0.0,0.0,0.0,0.0,0.0,0.0,0.0,0.0,0.0,0.0,0.0,0.0,0.0,0.0,0.0,0.0,0.0,0.0,0.0,0.0,0.0,0.0,-1.4989,-1.5053,-1.5083,-1.5295,-1.5483,-1.5591,-1.5284,-1.5025,-1.4891,-1.4223,0.0,0.0,0.0,0.0,0.0,0.0,0.0,0.0,0.0,0.0,0.0,0.0,0.0,0.0,0.0,0.0,0.0,0.0,0.0,0.0,0.0,0.0,0.0,0.0,0.0,0.0,0.0,0.0,0.0,0.0,0.0,0.0,0.0,0.0,0.0,0.0,0.0,0.0,0.0,0.0,0.0,0.0,0.0,0.0,0.0,0.0,0.0,0.0,0.0,0.0,0.0,0.0,0.0,0.0,0.0,0.0,0.0,0.0,0.0,0.0,0.0,0.0,0.0,0.0,0.0,0.0,0.0,0.0,0.0,0.0,0.0,0.0,0.0,0.0,0.0,0.0,0.0,0.0,0.0,0.0,0.0,0.0,0.0,0.0,0.0,0.0,0.0,0.0,0.0,0.0,0.0,0.0,0.0,0.0,0.0,0.0,0.0,0.0,0.0,0.0,0.0,0.0,-1.5257,-1.5574,-1.53,-1.5542,-1.5682,-1.5682,-1.5467,-1.5203,-1.4902,-1.4213,0.0,0.0,0.0,0.0,0.0,0.0,0.0,0.0,0.0,0.0,0.0,0.0,0.0,0.0,0.0,0.0,0.0,0.0,0.0,0.0,0.0,0.0,0.0,0.0,0.0,0.0,0.0,0.0,0.0,0.0,0.0,0.0,0.0,0.0,0.0,0.0,0.0,0.0,0.0,0.0,0.0,0.0,0.0,0.0,0.0,0.0,0.0,0.0,0.0,0.0,0.0,0.0,0.0,0.0,0.0,0.0,0.0,0.0,0.0,0.0,0.0,0.0,0.0,0.0,0.0,0.0,0.0,0.0,0.0,0.0,0.0,0.0,0.0,0.0,0.0,0.0,0.0,0.0,0.0,0.0,0.0,0.0,0.0,0.0,0.0,0.0,0.0,0.0,0.0,0.0,0.0,0.0,0.0,0.0,0.0,0.0,0.0,0.0,0.0,0.0,0.0,0.0,-1.542,-1.5698,-1.5585,-1.5785,-1.5985,-1.5985,-1.5709,-1.5375,-1.4912,-1.4213,0.0,0.0,0.0,0.0,0.0,0.0,0.0,0.0,0.0,0.0,0.0,0.0,0.0,0.0,0.0,0.0,0.0,0.0,0.0,0.0,0.0,0.0,0.0,0.0,0.0,0.0,0.0,0.0,0.0,0.0,0.0,0.0,0.0,0.0,0.0,0.0,0.0,0.0,0.0,0.0,0.0,0.0,0.0,0.0,0.0,0.0,0.0,0.0,0.0,0.0,0.0,0.0,0.0,0.0,0.0,0.0,0.0,0.0,0.0,0.0,0.0,0.0,0.0,0.0,0.0,0.0,0.0,0.0,0.0,0.0,0.0,0.0,0.0,0.0,0.0,0.0,0.0,0.0,0.0,0.0,0.0,0.0,0.0,0.0,0.0,0.0,0.0,0.0,0.0,0.0,0.0,0.0,0.0,0.0,0.0,0.0,0.0,0.0,0.0,0.0,0.0,0.0,-1.5659,-1.5928,-1.5883,-1.6032,-1.6113,-1.6023,-1.5926,-1.5607,-1.4923,0.0,0.0,0.0,0.0,0.0,0.0,0.0,0.0,0.0,0.0,0.0,0.0,0.0,0.0,0.0,0.0,0.0,0.0,0.0,0.0,0.0,0.0,0.0,0.0,0.0,0.0,0.0,0.0,0.0,0.0,0.0,0.0,0.0,0.0,0.0,0.0,0.0,0.0,0.0,0.0,0.0,0.0,0.0,0.0,0.0,0.0,0.0,0.0,0.0,0.0,0.0,0.0,0.0,0.0,0.0,0.0,0.0,0.0,0.0,0.0,0.0,0.0,0.0,0.0,0.0,0.0,0.0,0.0,0.0,0.0,0.0,0.0,0.0,0.0,0.0,0.0,0.0,0.0,0.0,0.0,0.0,0.0,0.0,0.0,0.0,0.0,0.0,0.0,0.0,0.0,0.0,0.0,0.0,0.0,0.0,0.0,0.0,0.0,0.0,0.0,0.0,0.0,-1.5534,-1.5847,-1.6096,-1.6127,-1.6215,-1.6247,-1.6136,-1.6055,-1.5704,-1.4929,0.0,0.0,0.0,0.0,0.0,0.0,0.0,0.0,0.0,0.0,0.0,0.0,0.0,0.0,0.0,0.0,0.0,0.0,0.0,0.0,0.0,0.0,0.0,0.0,0.0,0.0,0.0,0.0,0.0,0.0,0.0,0.0,0.0,0.0,0.0,0.0,0.0,0.0,0.0,0.0,0.0,0.0,0.0,0.0,0.0,0.0,0.0,0.0,0.0,0.0,0.0,0.0,0.0,0.0,0.0,0.0,0.0,0.0,0.0,0.0,0.0,0.0,0.0,0.0,0.0,0.0,0.0,0.0,0.0,0.0,0.0,0.0,0.0,0.0,0.0,0.0,0.0,0.0,0.0,0.0,0.0,0.0,0.0,0.0,0.0,0.0,0.0,0.0,0.0,0.0,0.0,0.0,0.0,0.0,0.0,0.0,0.0,0.0,0.0,0.0,0.0,0.0,-1.5664,-1.5955,-1.6163,-1.6298,-1.6312,-1.6312,-1.6312,-1.6153,-1.5704,0.0,0.0,0.0,0.0,0.0,0.0,0.0,0.0,0.0,0.0,0.0,0.0,0.0,0.0,0.0,0.0,0.0,0.0,0.0,0.0,0.0,0.0,0.0,0.0,0.0,0.0,0.0,0.0,0.0,0.0,0.0,0.0,0.0,0.0,0.0,0.0,0.0,0.0,0.0,0.0,0.0,0.0,0.0,0.0,0.0,0.0,0.0,0.0,0.0,0.0,0.0,0.0,0.0,0.0,0.0,0.0,0.0,0.0,0.0,0.0,0.0,0.0,0.0,0.0,0.0,0.0,0.0,0.0,0.0,0.0,0.0,0.0,0.0,0.0,0.0,0.0,0.0,0.0,0.0,0.0,0.0,0.0,0.0,0.0,0.0,0.0,0.0,0.0,0.0,0.0,0.0,0.0,0.0,0.0,0.0,0.0,0.0,0.0,0.0,0.0,0.0,0.0,0.0,-1.5664,-1.5955,-1.6163,-1.6298,-1.6312,-1.6312,-1.6312,-1.6153,-1.5704,-1.4929,0.0,0.0,0.0,0.0,0.0,0.0,0.0,0.0,0.0,0.0,0.0,0.0,0.0,0.0,0.0,0.0,0.0,0.0,0.0,0.0,0.0,0.0,0.0,0.0,0.0,0.0,0.0,0.0,0.0,0.0,0.0,0.0,0.0,0.0,0.0,0.0,0.0,0.0,0.0,0.0,0.0,0.0,0.0,0.0,0.0,0.0,0.0,0.0,0.0,0.0,0.0,0.0,0.0,0.0,0.0,0.0,0.0,0.0,0.0,0.0,0.0,0.0,0.0,0.0,0.0,0.0,0.0,0.0,0.0,0.0,0.0,0.0,0.0,0.0,0.0,0.0,0.0,0.0,0.0,0.0,0.0,0.0,0.0,0.0,0.0,0.0,0.0,0.0,0.0,0.0,0.0,0.0,0.0,0.0,0.0,0.0,0.0,0.0,0.0,0.0,0.0,0.0,-1.5681,-1.5931,-1.6098,-1.6309,-1.6226,-1.6204,-1.6307,-1.6005,-1.5542,-1.4923,0.0,0.0,0.0,0.0,0.0,0.0,0.0,0.0,0.0,0.0,0.0,0.0,0.0,0.0,0.0,0.0,0.0,0.0,0.0,0.0,0.0,0.0,0.0,0.0,0.0,0.0,0.0,0.0,0.0,0.0,0.0,0.0,0.0,0.0,0.0,0.0,0.0,0.0,0.0,0.0,0.0,0.0,0.0,0.0,0.0,0.0,0.0,0.0,0.0,0.0,0.0,0.0,0.0,0.0,0.0,0.0,0.0,0.0,0.0,0.0,0.0,0.0,0.0,0.0,0.0,0.0,0.0,0.0,0.0,0.0,0.0,0.0,0.0,0.0,0.0,0.0,0.0,0.0,0.0,0.0,0.0,0.0,0.0,0.0,0.0,0.0,0.0,0.0,0.0,0.0,0.0,0.0,0.0,0.0,0.0,0.0,0.0,0.0,0.0,0.0,0.0,0.0,-1.5642,-1.587,-1.6063,-1.6264,-1.6075,-1.6021,-1.6291,-1.5876,-1.5392,-1.4912,0.0,0.0,0.0,0.0,0.0,0.0,0.0,0.0,0.0,0.0,0.0,0.0,0.0,0.0,0.0,0.0,0.0,0.0,0.0,0.0,0.0,0.0,0.0,0.0,0.0,0.0,0.0,0.0,0.0,0.0,0.0,0.0,0.0,0.0,0.0,0.0,0.0,0.0,0.0,0.0,0.0,0.0,0.0,0.0,0.0,0.0,0.0,0.0,0.0,0.0,0.0,0.0,0.0,0.0,0.0,0.0,0.0,0.0,0.0,0.0,-1.7517,-1.7505,0.0,0.0,0.0,0.0,0.0,0.0,0.0,0.0,0.0,0.0,0.0,0.0,0.0,0.0,0.0,0.0,0.0,0.0,0.0,0.0,0.0,0.0,0.0,0.0,0.0,0.0,0.0,0.0,0.0,0.0,0.0,0.0,0.0,0.0,0.0,0.0,0.0,0.0,0.0,0.0,-1.5642,-1.5713,-1.5924,-1.6242,-1.593,-1.5849,-1.6274,-1.5876,-1.5392,-1.4912,-1.4837,0.0,0.0,0.0,0.0,0.0,0.0,0.0,0.0,0.0,0.0,0.0,0.0,0.0,0.0,0.0,0.0,0.0,0.0,0.0,0.0,0.0,0.0,0.0,0.0,0.0,0.0,0.0,0.0,0.0,0.0,0.0,0.0,0.0,0.0,0.0,0.0,0.0,0.0,0.0,0.0,0.0,0.0,0.0,0.0,0.0,0.0,0.0,0.0,0.0,0.0,0.0,0.0,0.0,0.0,0.0,0.0,0.0,0.0,0.0,-1.762,-1.7496,0.0,0.0,0.0,0.0,0.0,0.0,0.0,0.0,0.0,0.0,0.0,0.0,0.0,0.0,0.0,0.0,0.0,0.0,0.0,0.0,0.0,0.0,0.0,0.0,0.0,0.0,0.0,0.0,0.0,0.0,0.0,0.0,0.0,0.0,0.0,0.0,0.0,0.0,0.0,0.0,-1.5676,-1.5654,-1.5823,-1.6247,-1.5887,-1.5795,-1.6274,-1.5876,-1.5445,-1.5079,-1.495,0.0,0.0,0.0,0.0,0.0,0.0,0.0,0.0,0.0,0.0,0.0,0.0,0.0,0.0,0.0,0.0,0.0,0.0,0.0,0.0,0.0,0.0,0.0,0.0,0.0,0.0,0.0,0.0,0.0,0.0,0.0,0.0,0.0,0.0,0.0,0.0,0.0,0.0,0.0,0.0,0.0,0.0,0.0,0.0,0.0,0.0,0.0,0.0,0.0,0.0,0.0,0.0,0.0,-1.7503,-1.7673,-1.7987,-1.7987,-1.8112,-1.8301,-1.7849,-1.7623,-1.7564,-1.7597,0.0,0.0,0.0,0.0,0.0,0.0,0.0,0.0,0.0,0.0,0.0,0.0,0.0,0.0,0.0,0.0,0.0,0.0,0.0,0.0,0.0,0.0,-1.7554,-1.7799,-1.7638,-1.7218,-1.6458,0.0,0.0,0.0,0.0,0.0,0.0,0.0,0.0,0.0,0.0,0.0,-1.5767,-1.5715,-1.5828,-1.6269,-1.5924,-1.5838,-1.6274,-1.5876,-1.5499,-1.521,-1.502,-1.4692,0.0,0.0,0.0,0.0,0.0,0.0,0.0,0.0,0.0,0.0,0.0,0.0,0.0,0.0,0.0,0.0,0.0,0.0,0.0,0.0,0.0,0.0,0.0,0.0,0.0,0.0,0.0,0.0,0.0,0.0,0.0,0.0,-1.6887,-1.6915,0.0,0.0,0.0,0.0,0.0,0.0,0.0,0.0,0.0,0.0,0.0,0.0,0.0,-1.6554,-1.6377,-1.6789,-1.7184,-1.7493,-1.7493,-1.776,-1.8252,-1.8252,-1.8277,-1.8307,-1.8234,0.0,-1.7824,-1.7862,0.0,0.0,0.0,0.0,0.0,0.0,0.0,0.0,0.0,0.0,0.0,0.0,0.0,0.0,0.0,0.0,0.0,0.0,0.0,0.0,0.0,0.0,-1.7437,-1.7278,-1.7185,-1.7037,-1.6685,-1.698,-1.7056,-1.6365,-1.6271,-1.6011,0.0,0.0,0.0,0.0,0.0,0.0,-1.6,-1.5963,-1.6072,-1.6285,-1.607,-1.6016,-1.6291,-1.5876,-1.5499,-1.521,-1.502,-1.4767,-1.4448,-1.4056,0.0,0.0,0.0,0.0,0.0,0.0,0.0,0.0,0.0,0.0,0.0,0.0,0.0,0.0,0.0,0.0,0.0,0.0,0.0,0.0,0.0,0.0,0.0,0.0,0.0,0.0,0.0,0.0,0.0,-1.7404,-1.7137,-1.7078,-1.6828,-1.6584,0.0,0.0,0.0,0.0,0.0,0.0,0.0,0.0,0.0,-1.612,-1.6646,-1.6919,-1.6954,-1.7185,-1.7523,-1.7937,-1.7937,-1.8143,-1.8511,-1.8511,-1.8595,-1.8734,-1.8734,-1.8574,-1.8323,-1.8193,-1.8046,-1.7985,0.0,0.0,0.0,0.0,-1.8724,-1.8724,-1.8724,-1.8618,-1.8543,-1.8704,0.0,0.0,0.0,0.0,0.0,0.0,0.0,-1.7945,-1.7785,-1.7609,-1.7496,-1.7511,-1.741,-1.7283,-1.7315,-1.7232,-1.7038,-1.6594,-1.6515,-1.6387,-1.6042,-1.5839,0.0,0.0,0.0,-1.5631,-1.5844,-1.5947,-1.6104,-1.6291,-1.6097,-1.6109,-1.6296,-1.5876,-1.5553,-1.5456,-1.5219,-1.4982,-1.474,-1.4406,-1.4094,0.0,0.0,0.0,0.0,0.0,0.0,0.0,0.0,0.0,0.0,0.0,0.0,0.0,0.0,0.0,0.0,0.0,0.0,0.0,0.0,0.0,0.0,0.0,0.0,0.0,0.0,0.0,0.0,-1.7599,-1.7302,-1.7036,-1.692,-1.672,0.0,0.0,0.0,0.0,0.0,0.0,-1.6226,-1.6617,-1.6684,-1.6427,-1.695,-1.731,-1.7479,-1.7624,-1.7925,-1.8396,-1.8396,-1.8565,-1.8885,-1.8885,-1.903,-1.9283,-1.9283,-1.9175,-1.9009,-1.8582,-1.8349,-1.8329,-1.8351,-1.8389,-1.8389,-1.8507,-1.85,-1.85,-1.85,-1.8426,-1.8255,-1.8539,-1.8535,-1.8391,-1.8455,0.0,0.0,0.0,0.0,-1.8091,-1.7684,-1.7572,-1.7686,-1.7931,-1.7738,-1.7555,-1.7743,-1.7387,-1.6926,-1.6695,-1.6619,-1.6497,-1.6488,-1.6245,0.0,-1.6158,-1.5926,-1.5743,-1.587,-1.5965,-1.6134,-1.6377,-1.6188,-1.6118,-1.6296,-1.5876,-1.5601,-1.5601,-1.5381,-1.5081,-1.4896,-1.4659,-1.4287,-1.3922,0.0,0.0,0.0,0.0,0.0,0.0,0.0,0.0,0.0,0.0,0.0,0.0,0.0,0.0,0.0,0.0,0.0,0.0,0.0,0.0,0.0,0.0,0.0,0.0,0.0,0.0,0.0,0.0,0.0,-1.6757,-1.652,0.0,0.0,0.0,0.0,-1.6613,-1.6899,-1.7056,-1.703,-1.7074,-1.6981,-1.6714,-1.7229,-1.7513,-1.7485,-1.7998,-1.839,-1.8668,-1.8668,-1.8933,-1.9493,-1.9493,-1.9579,-1.9845,-1.9845,-1.9839,-1.9766,-1.8969,-1.8561,-1.8331,-1.8551,-1.8661,-1.8722,-1.9021,-1.9143,-1.9143,-1.9143,-1.913,-1.9117,-1.9178,-1.8816,-1.8281,-1.7747,-1.7582,0.0,0.0,-1.7541,-1.7576,-1.7809,-1.7891,-1.7967,-1.8203,-1.8018,-1.7766,-1.7784,-1.7532,-1.7125,-1.66,-1.6309,-1.6075,-1.5784,0.0,-1.5818,-1.6051,-1.5866,-1.587,-1.6342,-1.6324,-1.6387,-1.6619,-1.6436,-1.6301,-1.6312,-1.5876,-1.5601,-1.5601,-1.5381,-1.5081,-1.4896,-1.4659,-1.4422,-1.418,-1.3943,0.0,0.0,0.0,0.0,0.0,0.0,0.0,0.0,0.0,0.0,0.0,0.0,0.0,0.0,0.0,0.0,0.0,0.0,0.0,0.0,0.0,0.0,0.0,0.0,0.0,0.0,0.0,0.0,-1.7272,-1.7143,0.0,-1.6709,-1.6742,-1.6787,-1.6728,-1.6778,-1.682,-1.6856,-1.7021,-1.714,-1.7201,-1.7545,-1.7901,-1.8251,-1.8444,-1.868,-1.8939,-1.9108,-1.9283,-1.9536,-1.9652,-1.979,-1.9887,-1.9887,-1.9887,-1.9863,-1.9579,-1.9404,-1.932,-1.9443,-1.9443,-1.9508,-1.9631,-1.9515,-1.9419,-1.9419,-1.9197,-1.8877,-1.8883,-1.8751,-1.8617,-1.8595,-1.8591,-1.8538,-1.8361,-1.8251,-1.8231,-1.8161,-1.8137,-1.8215,-1.8481,-1.8099,-1.7702,-1.7863,-1.7399,-1.6866,-1.6684,-1.6764,-1.6808,-1.6723,-1.6521,-1.6429,-1.6513,-1.6293,-1.6177,-1.6284,-1.6455,-1.6571,-1.672,-1.6452,-1.6312,-1.6312,-1.5876,-1.5601,-1.5601,-1.5521,-1.5295,-1.4902,-1.4805,-1.4579,-1.4202,-1.4105,-1.3981,0.0,0.0,0.0,0.0,0.0,0.0,0.0,0.0,0.0,0.0,0.0,0.0,0.0,0.0,0.0,0.0,0.0,0.0,0.0,0.0,0.0,0.0,0.0,0.0,0.0,0.0,-1.7648,-1.7605,-1.7467,-1.7247,-1.6968,-1.7048,-1.7047,-1.6833,-1.6917,-1.7002,-1.7092,-1.7261,-1.7479,-1.775,-1.801,-1.8324,-1.868,-1.877,-1.8945,-1.9211,-1.9451,-1.9561,-1.9814,-1.9935,-2.0068,-2.0152,-2.0152,-2.0152,-2.0152,-2.0152,-2.0152,-2.0134,-1.9813,-1.9614,-1.9547,-1.9547,-1.9434,-1.9262,-1.9304,-1.9176,-1.8954,-1.8778,-1.8723,-1.8705,-1.8852,-1.8888,-1.8827,-1.8649,-1.8588,-1.8545,-1.8464,-1.8426,-1.8493,-1.8752,-1.8237,-1.777,-1.7935,-1.7396,-1.6775,-1.6775,-1.6904,-1.6932,-1.6932,-1.6802,-1.6617,-1.6617,-1.6431,-1.6344,-1.642,-1.6565,-1.6758,-1.677,-1.6501,-1.6312,-1.6312,-1.5876,-1.5601,-1.5601,-1.5601,-1.5418,-1.5025,-1.4929,-1.4702,-1.4315,-1.4234,-1.4116,-1.3943,0.0,0.0,0.0,0.0,0.0,0.0,0.0,0.0,0.0,0.0,0.0,0.0,0.0,0.0,0.0,0.0,0.0,0.0,0.0,0.0,0.0,0.0,0.0,-1.8436,-1.8137,-1.791,-1.7631,-1.7334,-1.7005,-1.6736,-1.6972,-1.7129,-1.7129,-1.7364,-1.7618,-1.7871,-1.7883,-1.8016,-1.83,-1.8553,-1.8686,-1.8698,-1.8957,-1.9217,-1.953,-1.9548,-1.9766,-2.0279,-2.0285,-2.0424,-2.0665,-2.0665,-2.0665,-2.0665,-2.0665,-2.0665,-2.0617,-1.9687,-1.9157,-1.8827,-1.8827,-1.8821,-1.8843,-1.8909,-1.9137,-1.938,-1.8861,-1.8698,-1.865,-1.8396,-1.8318,-1.8318,-1.8318,-1.8318,-1.8372,-1.8632,-1.8698,-1.8764,-1.9018,-1.8553,-1.7969,-1.7975,-1.7453,-1.7001,-1.7001,-1.664,-1.6334,-1.6334,-1.6334,-1.6334,-1.6334,-1.6334,0.0,-1.6709,-1.6736,-1.6759,-1.6969,-1.6587,-1.6312,-1.6301,-1.5871,-1.5601,-1.5601,-1.5601,-1.5494,-1.5199,-1.502,-1.4783,-1.4496,-1.4326,-1.4213,-1.4218,0.0,0.0,0.0,0.0,0.0,0.0,0.0,0.0,0.0,0.0,0.0,0.0,0.0,0.0,0.0,0.0,0.0,0.0,0.0,0.0,0.0,0.0,-1.8459,-1.8131,-1.8026,-1.7861,-1.7585,-1.76,-1.7663,-1.7551,-1.7799,-1.7962,-1.7962,-1.8028,-1.81,-1.8173,-1.8179,-1.83,-1.8565,-1.8644,-1.8776,-1.8963,-1.9229,-1.9457,-1.947,-1.9863,-2.0134,-2.0285,-2.0472,-2.0599,-2.0665,-2.0665,-2.0665,-2.0665,-2.0665,-2.0533,-2.0237,-1.9957,-1.9829,-1.9692,-1.9479,-1.9295,-1.9078,-1.8967,-1.8947,-1.9084,-1.9014,-1.8969,-1.8957,-1.8885,-1.8861,-1.8861,-1.8861,-1.8861,-1.8879,-1.8945,-1.8969,-1.8924,-1.881,-1.8366,-1.791,-1.7723,-1.733,-1.7001,-1.7001,-1.6899,-1.6813,-1.6813,-1.6813,-1.6813,-1.6813,-1.6813,-1.684,-1.6899,-1.691,-1.6872,-1.677,-1.649,-1.6242,-1.6064,-1.5774,-1.5601,-1.5601,-1.5601,-1.5494,-1.5199,-1.5129,-1.5036,-1.4794,-1.4724,-1.4692,0.0,0.0,0.0,0.0,0.0,0.0,0.0,0.0,0.0,0.0,0.0,0.0,0.0,0.0,0.0,0.0,0.0,0.0,0.0,0.0,0.0,0.0,-1.9026,-1.8561,-1.818,-1.8147,-1.8109,-1.7931,-1.7972,-1.8046,-1.8046,-1.8197,-1.8294,-1.8294,-1.8294,-1.8342,-1.845,-1.8456,-1.8577,-1.8843,-1.8849,-1.8976,-1.9235,-1.9392,-1.9579,-1.9808,-2.0122,-2.0334,-2.0448,-2.0599,-2.0665,-2.0665,-2.0665,-2.0665,-2.0665,-2.0665,-2.0533,-2.0318,0.0,0.0,0.0,0.0,-1.9108,-1.9066,-1.8873,-1.88,-1.8866,-1.9001,-1.8976,-1.895,-1.9078,-1.9078,-1.9078,-1.9078,-1.9078,-1.9078,-1.9078,-1.9014,-1.8822,-1.8635,-1.8179,-1.7723,-1.7529,-1.7265,-1.7001,-1.7001,-1.7001,0.0,-1.7001,-1.7001,-1.7001,-1.7001,-1.7001,-1.7001,-1.7001,-1.7001,-1.6915,-1.6689,-1.6452,-1.6215,-1.6028,-1.5731,0.0,0.0,0.0,-1.5494,-1.5199,-1.5194,0.0,0.0,0.0,-1.4829,-1.4664,-1.4912,0.0,0.0,-1.4634,-1.4599,0.0,0.0,0.0,0.0,0.0,0.0,0.0,0.0,0.0,0.0,0.0,0.0,0.0,0.0,0.0,0.0,-1.9241,-1.8799,-1.8472,-1.8483,-1.8467,-1.8394,-1.8356,-1.8342,-1.8342,-1.8366,-1.8384,-1.8384,-1.8384,-1.8481,-1.8716,-1.8728,0.0,0.0,0.0,-1.9205,-1.953,-1.9501,-1.9772,-2.0279,-2.0309,-2.0442,-2.0665,-2.0665,-2.0665,-2.0665,-2.0665,-2.0665,-2.0665,-2.0665,-2.0665,-2.0527,-1.9895,-1.9337,-1.8918,-1.8503,-1.8643,-1.8885,-1.8711,0.0,0.0,-1.8837,-1.8711,-1.8635,-1.895,-1.9078,-1.9078,-1.9078,-1.9078,-1.9014,-1.9014,-1.8764,-1.8507,-1.8507,-1.7986,-1.747,-1.7464,-1.7201,-1.7001,-1.7001,-1.7001,-1.7001,-1.7001,-1.7001,-1.7001,-1.7001,-1.7001,-1.7001,-1.7001,-1.7001,-1.6904,-1.6651,-1.6441,0.0,-1.599,-1.572,-1.5601,-1.5601,-1.5601,-1.5505,-1.5236,-1.5231,-1.5187,-1.4972,-1.4961,-1.4811,-1.4505,-1.49,-1.4934,-1.46,-1.4554,-1.4526,0.0,0.0,0.0,0.0,0.0,0.0,0.0,0.0,0.0,0.0,0.0,0.0,0.0,0.0,0.0,-1.9428,-1.9066,-1.8758,-1.8657,-1.8858,-1.8809,-1.8356,-1.8512,-1.8607,-1.8607,-1.8801,-1.8927,-1.8927,-1.8927,-1.8945,-1.9,-1.9,-1.9024,-1.9078,-1.9078,-1.9205,-1.953,-1.9694,-1.9965,-2.0279,-2.049,0.0,-2.0665,-2.0665,-2.0665,-2.0665,-2.0665,-2.0665,-2.0665,-2.0665,-2.0318,-1.9825,-1.968,-1.9128,-1.8503,-1.8433,-1.8433,-1.8541,-1.8578,-1.8472,-1.8362,-1.8447,-1.8522,-1.8641,-1.8699,-1.8892,0.0,-1.9078,-1.8886,-1.8699,-1.8699,-1.8437,-1.8039,-1.7793,-1.7599,-1.74,-1.7136,-1.7071,-1.7001,-1.7001,-1.7001,-1.7001,-1.7001,-1.7001,-1.7001,-1.7001,-1.7001,-1.7001,-1.7001,-1.7001,-1.6845,-1.6425,-1.6339,-1.614,-1.5704,-1.5623,-1.5601,-1.5601,-1.5601,-1.558,-1.5531,-1.5531,-1.551,-1.5461,-1.5221,-1.5138,-1.5212,-1.5054,-1.4947,-1.4752,-1.5028,-1.4971,0.0,0.0,0.0,0.0,0.0,0.0,0.0,0.0,0.0,0.0,0.0,-2.0286,0.0,0.0,-1.9728,-1.9558,-1.9226,-1.9047,-1.8908,-1.8901,-1.8819,-1.8505,-1.8722,-1.8879,-1.8879,-1.9,-1.9078,-1.9078,-1.9078,-1.9078,-1.9078,-1.9078,-1.9078,-1.9078,-1.9205,-1.9398,-1.9676,-1.9947,-2.0213,-2.0478,-2.0605,-2.0665,-2.0665,-2.0665,-2.0665,-2.0665,-2.0665,-2.0665,-2.0671,-2.0457,-2.011,-1.9611,-1.9401,-1.8918,-1.8433,-1.8433,-1.8433,-1.8417,-1.8507,-1.838,-1.8145,-1.8234,-1.8253,-1.8281,-1.8278,-1.8431,-1.8553,-1.8553,-1.8431,-1.8302,-1.8302,-1.8045,-1.7723,-1.7529,-1.74,-1.7201,-1.7071,-1.7001,-1.7001,-1.7001,-1.7001,-1.7001,-1.7001,-1.7001,-1.7001,-1.7001,-1.7001,-1.7001,-1.7001,-1.7001,-1.6872,-1.6527,-1.6382,-1.6167,-1.5806,-1.5666,-1.5601,-1.5601,-1.5601,-1.5601,-1.5601,-1.5601,-1.5537,-1.5359,-1.5175,-1.5051,-1.4978,-1.491,-1.4831,-1.4731,-1.4954,-1.4949,0.0,0.0,0.0,0.0,0.0,0.0,0.0,0.0,-2.0527,-2.0493,-2.0406,-2.0373,-2.0581,-2.0158,-1.9787,-1.9728,-1.9427,-1.9248,-1.9149,-1.8878,-1.8758,-1.8758,-1.8945,-1.9078,-1.9078,-1.9078,-1.9078,-1.9078,-1.9078,-1.9078,-1.9078,-1.9078,-1.9078,-1.9078,-1.9332,-1.9603,-1.9881,-2.0146,-2.0406,-2.0665,-2.0665,-2.0665,-2.0665,-2.0665,-2.0665,-2.0665,-2.0665,-2.0665,-2.0665,-2.0179,-1.9825,-1.9541,-1.9058,-1.8708,-1.8433,-1.8433,-1.8433,-1.8433,-1.8433,-1.8282,-1.813,-1.814,-1.8106,-1.7994,-1.8049,-1.8123,-1.8188,-1.8188,-1.8083,-1.7978,-1.7978,-1.7692,-1.74,-1.74,-1.7201,-1.7001,-1.7001,-1.7001,-1.7001,-1.7001,-1.7001,-1.7001,-1.7001,-1.7001,-1.7001,-1.7001,-1.7001,-1.7001,-1.7001,-1.7001,-1.6899,-1.6624,-1.6425,-1.6194,-1.5963,-1.5704,-1.5601,-1.5601,-1.5601,-1.5601,-1.5601,-1.5601,-1.5418,-1.5116,-1.5098,-1.4932,-1.4548,-1.4711,-1.474,-1.4631,-1.479,-1.4781,-2.051,-2.0071,-1.9768,-1.9761,-1.9869,-2.0026,0.0,0.0,-2.0567,-2.0602,-2.0633,-2.054,-2.033,-1.9949,-1.9688,-1.9694,-1.9362,-1.9093,-1.9115,-1.9094,-1.9036,-1.9036,-1.906,-1.9078,-1.9078,-1.9078,-1.9078,-1.9078,-1.9078,-1.9078,-1.9078,-1.9078,-1.9078,-1.9078,-1.9332,-1.9603,-1.9881,-2.0146,-2.0406,-2.0665,-2.0665,-2.0665,-2.0665,-2.0665,-2.0665,-2.0665,-2.0665,-2.0665,-2.0671,-1.9965,-1.9611,-1.9541,-1.8784,-1.8433,-1.8433,-1.8433,-1.8433,-1.8433,-1.8433,-1.8282,-1.8089,-1.813,-1.8162,-1.8155,-1.8195,-1.8451,-1.8719,-1.8719,-1.8354,-1.7916,-1.7916,-1.7494,-1.7071,-1.7071,-1.7001,-1.7001,-1.7001,-1.7001,-1.7001,-1.7001,-1.7001,-1.7001,-1.7001,-1.7001,-1.7001,-1.7001,-1.7001,-1.7001,-1.7001,-1.7001,-1.684,-1.6398,-1.6328,-1.6129,-1.5677,-1.5612,-1.5601,-1.5601,-1.5601,-1.5601,-1.5601,-1.5601,-1.5418,-1.5116,-1.5018,-1.4931,-1.4783,-1.4687,-1.47,-1.4903,-1.4856,-1.4922,-2.0319,-1.9843,-1.9542,-1.9811,-1.9995,-2.0141,-2.0471,-2.0742,-2.0841,-2.0707,-2.0547,-2.0408,-2.0312,-1.9965,-1.9709,0.0,-1.95,-1.932,-1.9124,-1.9078,-1.9078,-1.9078,-1.9078,-1.9078,-1.9078,-1.9078,-1.9078,-1.9078,-1.9078,-1.9078,-1.9078,-1.9078,-1.9145,-1.936,-1.9567,-1.9839,-2.011,-2.0376,-2.0563,-2.0665,-2.0665,-2.0665,-2.0665,-2.0665,-2.0665,-2.0665,-2.0665,-2.0665,-2.0665,-1.9889,-1.9541,-1.9541,-1.8714,-1.8433,-1.8433,-1.8433,-1.8433,-1.8433,-1.8433,-1.8374,-1.8272,-1.8137,-1.8093,-1.8121,-1.7968,-1.8059,-1.8194,-1.8194,-1.7983,-1.7767,-1.7767,-1.763,-1.7389,-1.7254,-1.7222,-1.7222,-1.7222,-1.7222,-1.7265,-1.7394,-1.7421,-1.7378,-1.7243,-1.7222,-1.7173,-1.7028,-1.7001,-1.7001,-1.7001,-1.7001,-1.6824,-1.6366,-1.6188,-1.5962,-1.5628,-1.5601,-1.5601,-1.5601,-1.5601,-1.5601,-1.5601,-1.5601,-1.5547,-1.5324,-1.5115,-1.4965,-1.4998,-1.4714,-1.4673,-1.4866,-1.4866,-1.4932,-1.9986,-1.9686,-1.9595,-1.995,-2.0105,-2.0248,-2.0666,-2.0863,-2.0903,-2.0718,-2.0466,-2.031,-2.0271,-1.9913,-1.9601,-1.9711,-1.96,-1.9392,-1.9142,-1.9078,-1.9078,-1.9078,-1.9078,-1.9078,-1.9078,-1.9078,-1.9078,-1.9078,-1.9078,-1.9078,-1.9078,-1.9145,-1.9271,-1.9458,-1.9808,-2.0086,-2.0273,-2.0539,-2.0665,-2.0665,-2.0665,-2.0665,-2.0665,-2.0665,-2.0665,-2.0665,-2.0665,-2.0665,-2.0457,-1.982,-1.9465,-1.9407,-1.8643,-1.8433,-1.8433,-1.8433,-1.8433,-1.8433,-1.8433,-1.8433,-1.8406,-1.8239,-1.8186,-1.8153,-1.797,-1.7916,-1.7916,-1.7916,-1.7873,-1.7825,-1.7825,-1.7771,-1.7674,-1.7513,-1.747,-1.747,-1.747,-1.747,-1.7523,-1.769,-1.7717,-1.7647,-1.7416,-1.7378,-1.7292,-1.7039,-1.7001,-1.7001,-1.7001,-1.6894,-1.6684,-1.635,-1.6038,-1.5785,-1.5612,-1.5601,-1.5601,-1.5601,-1.5601,-1.5601,-1.5601,-1.5661,-1.5659,-1.5476,-1.5289,-1.513,-1.5125,-1.4814,-1.4789,-1.487,-1.4993,-1.5092,0.0,0.0,-2.0004,-2.0061,-2.0136,-2.033,-2.0925,-2.0866,-2.0688,-2.0701,-2.0493,-2.031,-2.0271,-1.9726,-1.9343,-1.9649,-1.9353,-1.9142,-1.9078,-1.9078,-1.9078,-1.9078,-1.9078,-1.9078,0.0,-1.9078,-1.9078,-1.9078,-1.9078,-1.9078,-1.9078,-1.9384,-1.9524,-1.953,-1.9983,-2.0273,-2.0279,-2.0539,-2.0665,-2.0665,-2.0665,-2.0665,-2.0665,-2.0665,-2.0665,-2.0665,-2.0665,-2.0457,-2.0116,-1.9756,-1.9407,-1.8988,-1.8573,-1.8433,-1.8433,-1.8433,-1.8433,-1.8433,-1.8433,-1.8433,-1.8433,-1.8358,-1.8422,-1.8422,-1.8417,-1.8412,-1.8412,-1.8412,-1.8256,-1.8083,-1.8083,-1.79,-1.7717,-1.7712,-1.7706,-1.7706,-1.7706,-1.7706,-1.7712,-1.7717,-1.7717,-1.7647,-1.7416,-1.7378,-1.7292,-1.7039,-1.7001,-1.7001,-1.7001,-1.6614,-1.6328,-1.6317,-1.5892,-1.5607,-1.5601,-1.5601,-1.5601,-1.5601,-1.5601,-1.5601,-1.5601,-1.5877,-1.5825,-1.5537,-1.5533,-1.5439,-1.5125,-1.4952,-1.4861,-1.487,-1.5134,-1.5162,0.0,0.0,-1.9793,-2.0091,-2.0156,-2.0295,-2.0729,-2.0945,-2.0901,-2.0537,-2.0385,-2.0252,-2.0035,-1.9389,-1.9127,-1.9617,-1.9205,-1.8879,-1.9048,-1.9078,-1.9078,-1.9078,-1.9078,0.0,0.0,0.0,0.0,-1.9078,-1.9078,-1.9151,-1.939,-1.9481,-1.9633,-1.9989,-2.0183,-2.0364,-2.0533,-2.0623,-2.0665,-2.0665,-2.0665,-2.0665,-2.0665,-2.0665,-2.0665,-2.0665,-2.0665,-2.0463,-2.0046,-1.9756,-1.9332,-1.8988,-1.8573,-1.8433,-1.8433,-1.8433,-1.8433,-1.8433,-1.8433,-1.8433,-1.8433,-1.8433,-1.8433,-1.8433,-1.8433,-1.8433,-1.8433,-1.8433,-1.8379,-1.832,-1.832,-1.8256,-1.8153,-1.8003,-1.797,-1.797,-1.797,-1.797,-1.8013,-1.8164,-1.8196,-1.8067,-1.7669,-1.7604,-1.747,-1.7066,-1.7001,-1.7001,-1.7001,-1.6603,-1.6312,-1.6312,-1.5887,-1.5601,-1.5601,-1.5601,-1.5601,-1.5601,-1.5747,-1.5893,-1.5893,-1.6064,-1.6202,-1.63,-1.6071,-1.5967,-1.6056,-1.5554,-1.534,-1.547,-1.5267,-1.5385,0.0,-2.0027,-1.999,-2.0165,-2.0281,-2.0494,-2.0823,-2.0969,-2.0864,-2.0223,-2.0075,-1.9868,-1.9542,-1.9037,-1.8841,-1.9311,-1.8995,-1.874,-1.8915,-1.9018,-1.9078,-1.9078,-1.9078,-1.9078,0.0,0.0,0.0,-1.9078,-1.9078,-1.9187,-1.9518,-1.9561,-1.982,-2.0267,-2.037,-2.0496,-2.0735,-2.0665,-2.0665,-2.0665,-2.0665,-2.0665,-2.0665,-2.0665,-2.0665,-2.0665,-2.0665,-2.0388,-1.9901,-1.9686,-1.9267,-1.8784,-1.8503,-1.8433,-1.8433,-1.8433,-1.8433,-1.8433,-1.8433,-1.8433,-1.8433,-1.8433,-1.8433,-1.8433,-1.8433,-1.8433,-1.8433,-1.8433,-1.8433,-1.8433,-1.8433,-1.8433,-1.8396,-1.825,-1.8218,-1.8218,-1.8218,-1.8218,-1.8261,-1.8336,-1.8433,-1.8309,-1.7922,-1.7712,-1.7464,-1.7066,-1.7001,-1.7001,-1.7001,-1.6673,-1.6409,-1.6323,-1.5962,-1.5688,-1.5607,-1.5601,-1.5634,-1.572,-1.5926,-1.605,-1.6075,-1.6312,-1.6511,-1.6725,-1.6419,-1.6342,-1.6499,-1.6,-1.5781,-1.5781,-1.5659,-1.5739,-1.9954,-2.0117,-2.0522,-2.0281,-2.0438,-2.0801,-2.1115,-2.0947,-2.0545,-1.99,-1.9556,-1.9278,0.0,0.0,-1.8491,-1.8765,-1.8735,-1.8668,-1.868,-1.8909,-1.9078,0.0,0.0,0.0,0.0,0.0,0.0,-1.9114,0.0,-1.9217,-1.956,-1.976,-2.0026,-2.0291,-2.0539,-2.0665,-2.0665,-2.0665,-2.0665,-2.0665,-2.0665,-2.0665,-2.0665,-2.0665,-2.0665,-2.0665,-2.0665,-2.0312,-1.9611,-1.9611,-1.9128,-1.8433,-1.8433,-1.8433,-1.8433,-1.8433,-1.8433,-1.8433,-1.8433,-1.8433,-1.8433,-1.8433,-1.8433,-1.8433,-1.8433,-1.8433,-1.8433,-1.8433,-1.8433,-1.8433,-1.8433,-1.8433,-1.8433,-1.8433,-1.8433,-1.8433,-1.8433,-1.8433,-1.8433,-1.8433,-1.8358,-1.8342,-1.8116,-1.7685,-1.7292,-1.7039,-1.7001,-1.7001,-1.7001,-1.6802,-1.6576,-1.6355,-1.6102,-1.5926,-1.5655,-1.5623,-1.572,-1.6012,-1.6039,-1.6153,-1.6323,-1.6554,-1.6742,-1.6742,-1.6582,-1.6504,-1.652,-1.6409,-1.6195,-1.5887,-1.6231,-1.6218,-2.0408,-2.0302,-2.0369,-2.0512,-2.0662,-2.0742,-2.083,-2.0786,-2.0487,-1.9688,-1.9464,-1.9216,0.0,0.0,0.0,-1.8478,-1.8463,0.0,-1.8656,-1.8909,0.0,-1.9078,0.0,-1.9151,-1.935,-1.9433,0.0,0.0,-1.9483,-1.9573,-2.0044,-2.014,-2.0297,-2.0563,-2.0629,-2.0665,-2.0665,-2.0665,-2.0665,-2.0665,-2.0665,-2.0665,-2.0665,-2.0665,-2.0665,-2.0665,-2.0665,-2.0243,-1.9535,-1.9611,-1.9128,-1.8433,-1.8433,-1.8433,-1.8433,-1.8433,-1.8433,-1.8433,-1.8433,-1.8433,-1.8433,-1.8433,-1.8433,-1.8433,-1.8433,-1.8433,-1.8433,-1.8433,-1.8433,-1.8433,-1.8433,-1.8433,-1.8433,-1.8433,-1.8433,-1.8433,-1.8433,-1.8433,-1.8433,-1.8433,-1.8299,-1.8099,-1.7857,-1.7572,-1.7292,-1.7039,-1.7001,-1.7001,-1.7001,-1.6802,-1.664,-1.6581,-1.6261,-1.6061,-1.6118,-1.5962,-1.5962,-1.6204,-1.6382,-1.6569,-1.6571,-1.6797,-1.6915,-1.6915,-1.691,-1.6968,-1.7155,-1.6878,-1.6753,-1.6681,-1.6511,-1.6296,-2.0648,-2.0597,-2.0587,-2.0688,-2.072,-2.072,-2.072,-2.0501,-2.0044,-1.9179,-1.8896,-1.8626,-1.8171,-1.7731,-1.762,0.0,0.0,0.0,-1.8463,-1.874,-1.8945,0.0,-1.9175,0.0,-1.9518,-1.9579,-1.9766,0.0,-1.9808,-1.9839,-2.0255,-2.0279,-2.04,-2.0659,-2.0665,-2.0665,-2.0665,-2.0665,-2.0665,-2.0665,-2.0665,-2.0665,-2.0665,-2.0665,-2.0665,-2.0665,-2.0665,-2.0243,-1.9535,-1.9611,-1.9128,-1.8433,-1.8433,-1.8433,-1.8433,-1.8433,-1.8433,-1.8433,-1.8433,-1.8433,-1.8433,-1.8433,-1.8433,-1.8433,-1.8433,-1.8433,-1.8433,-1.8433,-1.8433,-1.8433,-1.8433,-1.8433,-1.8433,-1.8433,-1.8433,-1.8433,-1.8433,-1.8433,-1.8433,-1.8433,-1.8331,-1.8132,-1.7782,-1.7615,-1.741,-1.7055,-1.7001,-1.7001,-1.7001,-1.6894,-1.6775,-1.6736,-1.6482,-1.6336,-1.6312,-1.6188,-1.621,-1.6452,-1.6592,-1.671,-1.6807,-1.6937,-1.7001,-1.7001,-1.7114,-1.7238,-1.7378,-1.7454,-1.7282,-1.699,-1.6872,-1.6557,-2.0749,-2.079,-2.1,-2.0828,-2.0757,-2.0713,-2.0613,-2.0164,-1.9502,-1.8593,-1.818,-1.7835,-1.7526,-1.7048,-1.6971,-1.7715,0.0,-1.7648,-1.8118,-1.8475,-1.877,-1.9,-1.9253,-1.944,-1.9578,-1.9742,-2.0008,-2.0309,-2.0116,-2.0086,-2.0315,-2.0327,-2.0436,-2.0659,-2.0665,-2.0665,-2.0665,-2.0665,-2.0665,-2.0665,-2.0665,-2.0665,-2.0665,-2.0665,-2.0665,-2.0602,-2.0602,-2.0173,-1.9541,-1.9541,-1.9058,-1.8433,-1.8433,-1.8433,-1.8433,-1.8433,-1.8433,-1.8433,-1.8433,-1.8433,-1.8433,-1.8433,-1.8433,-1.8433,-1.8433,-1.8433,-1.8433,-1.8433,-1.8433,-1.8433,-1.8433,-1.8433,-1.8433,-1.8433,-1.8433,-1.8433,-1.8433,-1.8433,-1.8433,-1.8433,-1.8433,-1.8282,-1.7803,-1.7717,-1.7556,-1.7077,-1.7001,-1.7001,-1.7001,-1.7001,-1.6926,-1.6727,-1.6742,-1.6592,-1.642,-1.6377,-1.6457,-1.6694,-1.671,-1.6797,-1.6996,-1.7001,-1.7017,-1.7055,-1.7265,-1.741,-1.7475,-1.7821,-1.7696,-1.7036,-1.7147,-1.6815,-2.061,-2.0696,-2.0842,-2.1057,-2.0918,-2.0655,-2.0329,-1.982,0.0,-1.8269,-1.7799,-1.7446,-1.6948,-1.6782,-1.6728,-1.6873,-1.7271,-1.7515,-1.7612,-1.8233,-1.8704,0.0,-1.8982,-1.932,-1.9772,-1.9857,0.0,0.0,-2.0557,-2.0551,-2.0599,-2.0599,-2.0623,-2.0665,-2.0665,-2.0665,-2.0665,-2.0665,-2.0665,-2.0665,-2.0665,-2.0665,-2.0665,-2.0665,-2.0533,-2.0185,-2.0185,-1.9761,-1.9128,-1.9128,-1.8854,-1.8433,-1.8433,-1.8433,-1.8433,-1.8433,-1.8433,-1.8433,-1.8433,-1.8433,-1.8433,-1.8433,-1.8433,-1.8433,-1.8433,-1.8433,-1.8433,-1.8433,-1.8433,-1.8433,-1.8433,-1.8433,-1.8433,-1.8433,-1.8433,-1.8433,-1.8433,-1.8433,-1.8433,-1.8433,-1.8433,-1.8282,-1.7803,-1.7717,-1.7556,-1.7077,-1.7001,-1.7001,-1.7001,-1.7001,-1.699,-1.6947,-1.6775,-1.6721,-1.6872,-1.671,-1.67,-1.6931,-1.6942,-1.6964,-1.7001,-1.7001,-1.7103,-1.7308,-1.7356,-1.7572,-1.797,-1.7697,-1.7488,-1.7253,-1.6931,-1.6598,-2.0668,-2.0755,-2.0976,-2.0955,-2.0713,-2.0384,-2.0062,0.0,0.0,-1.7951,-1.7392,-1.693,-1.6374,-1.6278,0.0,-1.648,-1.6833,-1.7171,-1.7443,-1.8058,-1.8529,-1.8668,-1.9036,-1.938,-1.9645,-1.9923,-2.0195,-2.0448,-2.0593,-2.0665,-2.0665,-2.0665,-2.0665,-2.0665,-2.0665,-2.0665,-2.0665,-2.0665,-2.0665,-2.0665,-2.0463,-2.0388,-2.0394,-2.0179,-2.0034,-1.9825,-1.9825,-1.9547,-1.8988,-1.8988,-1.8784,-1.8433,-1.8433,-1.8433,-1.8433,-1.8433,-1.8433,-1.8433,-1.8433,-1.8433,-1.8433,-1.8433,-1.8433,-1.8433,-1.8433,-1.8433,-1.8433,-1.8433,-1.8433,-1.8433,-1.8433,-1.8433,-1.8433,-1.8433,-1.8433,-1.8433,-1.8433,-1.8433,-1.8433,-1.8433,-1.8433,-1.8326,-1.7976,-1.7803,-1.7604,-1.7249,-1.7087,-1.7001,-1.7001,-1.7001,-1.7001,-1.7001,-1.6904,-1.6883,-1.6996,-1.6904,-1.6888,-1.6996,-1.7001,-1.7001,-1.7001,-1.7001,-1.712,-1.7373,-1.7496,-1.7661,-1.7808,-1.7711,-1.7477,-1.6946,-1.6805,-1.6523,-2.0554,-2.0718,-2.094,-2.0684,-2.0377,-2.0055,-1.9672,-1.8948,0.0,-1.7534,-1.6981,-1.6428,-1.593,-1.5821,-1.5878,0.0,-1.6338,-1.6712,-1.7243,-1.7781,-1.8239,0.0,-1.9012,0.0,-1.9524,-1.9851,0.0,-2.0267,-2.0521,-2.0665,-2.0665,-2.0665,-2.0665,-2.0665,-2.0665,-2.0665,-2.0665,-2.0665,-2.0665,-2.0596,-2.0255,-2.0046,-1.997,-1.9686,-1.9541,-1.9471,-1.9471,-1.9267,-1.8848,-1.8848,-1.8708,-1.8433,-1.8433,-1.8433,-1.8433,-1.8433,-1.8433,-1.8433,-1.8433,-1.8433,-1.8433,-1.8433,-1.8433,-1.8433,-1.8433,-1.8433,-1.8433,-1.8433,-1.8433,-1.8433,-1.8433,-1.8433,-1.8433,-1.8433,-1.8433,-1.8433,-1.8433,-1.8433,-1.8433,-1.8433,-1.8433,-1.8363,-1.8132,-1.7884,-1.7642,-1.741,-1.7163,-1.7001,-1.7001,-1.7001,-1.7001,-1.7001,-1.7001,-1.7001,-1.7001,-1.7001,-1.7001,-1.7001,-1.7001,-1.7001,-1.7001,-1.7001,-1.7147,-1.7448,-1.7564,-1.7591,-1.76,-1.7633,-1.7298,-1.6729,-1.6664,-1.6457,-2.0012,-2.0062,-2.0263,-2.0234,-2.004,-1.9665,-1.912,0.0,-1.7725,-1.6925,-1.6477,-1.6116,-1.5634,-1.5531,-1.5531,-1.5575,0.0,-1.6151,-1.67,-1.7225,-1.775,-1.8269,0.0,0.0,-1.9422,-1.9513,-1.9814,-2.0243,-2.0521,-2.0665,-2.0665,-2.0665,-2.0665,-2.0665,-2.0665,-2.0665,-2.0665,-2.0665,-2.0533,-2.0185,-2.0116,-1.997,-1.9611,-1.9611,-1.9407,-1.9058,-1.9058,-1.8854,-1.8433,-1.8433,-1.8433,-1.8433,-1.8433,-1.8433,-1.8433,-1.8433,-1.8433,-1.8433,-1.8433,-1.8433,-1.8433,-1.8433,-1.8433,-1.8433,-1.8433,-1.8433,-1.8433,-1.8433,-1.8433,-1.8433,-1.8433,-1.8433,-1.8433,-1.8433,-1.8433,-1.8433,-1.8433,-1.8433,-1.8433,-1.8433,-1.8433,-1.8363,-1.8132,-1.7884,-1.7642,-1.741,-1.7163,-1.7001,-1.7001,-1.7001,-1.7001,-1.7001,-1.7001,-1.7001,-1.7001,-1.7001,-1.7001,-1.7001,-1.7001,-1.7001,-1.7001,-1.7001,-1.7217,-1.768,-1.738,-1.747,-1.783,-1.7147,-1.68,-1.6659,-1.6386,-1.6254,-1.987,-1.9996,-2.0132,-1.9996,-1.975,-1.9358,-1.8742,0.0,-1.7287,-1.6786,-1.619,-1.5689,-1.5315,-1.5251,-1.5233,-1.5047,0.0,0.0,-1.6181,-1.6948,-1.7563,-1.7781,-1.833,0.0,0.0,0.0,-1.9694,-2.0237,-2.0521,-2.0665,-2.0665,-2.0665,-2.0665,-2.0665,-2.0665,-2.0665,-2.0665,-2.0463,-2.0255,-2.0116,-1.9622,-1.9337,-1.9267,-1.8988,-1.8778,-1.8643,-1.8643,-1.8573,-1.8433,-1.8433,-1.8433,-1.8433,-1.8433,-1.8433,-1.8433,-1.8433,-1.8433,-1.8433,-1.8433,-1.8433,-1.8433,-1.8433,-1.8433,-1.8433,-1.8433,-1.8433,-1.8433,-1.8433,-1.8433,-1.8433,-1.8433,-1.8433,-1.8433,-1.8433,-1.8433,-1.8433,-1.8433,-1.8433,-1.8433,-1.8433,-1.8433,-1.8336,-1.8315,-1.8099,-1.7863,-1.762,-1.7378,-1.7173,-1.7023,-1.7001,-1.7001,-1.7001,-1.7001,-1.7001,-1.7001,-1.7001,-1.7001,-1.7001,-1.7001,-1.7001,-1.7001,-1.7001,-1.7227,-1.7712,-1.739,-1.728,-1.7515,-1.6946,-1.6593,-1.6386,-1.6254,-1.6183,-1.9493,-1.9638,-1.9701,-1.943,-1.9213,-1.8838,0.0,0.0,-1.6852,-1.6455,-1.5883,-1.5404,-1.5029,-1.4994,-1.4906,0.0,0.0,-1.5716,-1.5867,-1.6676,-1.731,-1.7461,0.0,-1.8511,0.0,-1.9098,-1.9526,-1.9987,-2.0194,-2.0304,-2.0382,-2.031,-2.0344,-2.0551,-2.0629,-2.0629,-2.0419,-2.0213,-1.9976,-1.9761,-1.9267,-1.8918,-1.8778,-1.8503,-1.8433,-1.8433,-1.8433,-1.8433,-1.8433,-1.8433,-1.8433,-1.8433,-1.8433,-1.8433,-1.8433,-1.8433,-1.8433,-1.8433,-1.8433,-1.8433,-1.8433,-1.8433,-1.8433,-1.8433,-1.8433,-1.8433,-1.8433,-1.8433,-1.8433,-1.8433,-1.8433,-1.8433,-1.8433,-1.8433,-1.8433,-1.8433,-1.8433,-1.8433,-1.8433,-1.8433,-1.8433,-1.8433,-1.8433,-1.8245,-1.8035,-1.7857,-1.7631,-1.7394,-1.7147,-1.7114,-1.7087,-1.7012,-1.7001,-1.7001,-1.7001,-1.7001,-1.7001,-1.7001,-1.7001,-1.7001,-1.7001,-1.7001,-1.7167,-1.7515,-1.7188,-1.707,-1.7092,-1.6739,-1.6457,-1.6183,-1.6183,-1.6183,-1.8809,-1.8803,-1.8753,-1.8506,-1.8404,-1.8087,0.0,-1.6683,-1.6497,-1.566,-1.5493,-1.535,-1.4783,-1.4694,-1.469,-1.4721,-1.4944,0.0,-1.5819,-1.6362,-1.6905,0.0,0.0,-1.8094,-1.8632,-1.8911,-1.9058,-1.9311,-1.9236,0.0,-1.9599,-1.9376,-1.9523,-2.0279,-2.0533,-2.0407,-1.974,-1.9986,-1.9761,-1.8988,-1.8988,-1.8778,-1.8433,-1.8433,-1.8433,-1.8433,-1.8433,-1.8433,-1.8433,-1.8433,-1.8433,-1.8433,-1.8433,-1.8433,-1.8433,-1.8433,-1.8433,-1.8433,-1.8433,-1.8433,-1.8433,-1.8433,-1.8433,-1.8433,-1.8433,-1.8433,-1.8433,-1.8433,-1.8433,-1.8433,-1.8433,-1.8433,-1.8433,-1.8433,-1.8433,-1.8433,-1.8433,-1.8433,-1.8433,-1.8433,-1.8433,-1.8433,-1.8433,-1.8245,-1.8094,-1.8094,-1.7879,-1.7631,-1.7405,-1.7378,-1.7281,-1.7028,-1.7001,-1.7001,-1.7001,-1.7001,-1.7001,-1.7001,-1.7001,-1.7001,-1.7001,-1.7001,-1.7036,-1.7183,-1.6777,-1.6648,-1.6729,-1.6386,-1.6183,-1.6183,-1.6183,-1.6183,-1.8364,-1.846,-1.841,-1.8117,-1.791,-1.7604,-1.6863,-1.6426,-1.604,-1.5599,-1.5213,-1.4879,-1.4736,-1.4544,-1.4424,-1.4413,-1.4811,0.0,0.0,0.0,0.0,-1.6905,-1.7666,-1.8232,0.0,0.0,-1.8916,-1.8723,-1.8992,-1.913,-1.9044,-1.9124,-1.9312,-1.9517,-1.943,-1.9275,-1.9059,-1.9107,-1.8951,-1.8744,-1.8632,-1.8503,-1.8433,-1.8433,-1.8433,-1.8433,-1.8433,-1.8433,-1.8433,-1.8433,-1.8433,-1.8433,-1.8433,-1.8433,-1.8433,-1.8433,-1.8433,-1.8433,-1.8433,-1.8433,-1.8433,-1.8433,-1.8433,-1.8433,-1.8433,-1.8433,-1.8433,-1.8433,-1.8433,-1.8433,-1.8433,-1.8433,-1.8433,-1.8433,-1.8433,-1.8433,-1.8433,-1.8433,-1.8433,-1.8433,-1.8433,-1.8433,-1.8433,-1.8374,-1.8272,-1.8116,-1.8029,-1.783,-1.7432,-1.7378,-1.7281,-1.7028,-1.7001,-1.7001,-1.7001,-1.7001,-1.7001,-1.7001,-1.7001,-1.7001,-1.7001,-1.6901,-1.6936,-1.7188,-1.6724,-1.6525,-1.6729,-1.6386,-1.6183,-1.6183,-1.6183,-1.6183,0.0,-1.7976,-1.7878,-1.7541,-1.7344,0.0,0.0,-1.6009,-1.566,-1.5293,-1.4927,-1.4688,-1.4592,-1.4394,-1.4298,-1.4298,-1.4757,0.0,0.0,0.0,0.0,-1.6803,0.0,0.0,0.0,-1.8215,-1.8216,-1.801,-1.8239,-1.8255,-1.7992,-1.8182,-1.835,-1.835,-1.8631,-1.8692,-1.8456,-1.8502,-1.847,-1.8432,-1.8303,-1.8352,-1.8433,-1.8433,-1.8433,-1.8433,-1.8433,-1.8433,0.0,-1.8433,-1.8433,-1.8433,-1.8433,-1.8433,-1.8433,-1.8433,-1.8433,-1.8433,-1.8433,-1.8433,-1.8433,-1.8433,-1.8433,-1.8433,-1.8433,-1.8433,-1.8433,-1.8433,-1.8433,-1.8433,-1.8433,-1.8433,-1.8433,-1.8433,-1.8433,-1.8433,-1.8433,-1.8433,-1.8433,-1.8433,-1.8433,-1.8433,-1.8433,-1.8433,-1.8385,-1.8245,-1.8223,-1.8083,-1.7701,-1.7566,-1.7416,-1.7173,-1.706,-1.7001,-1.7001,-1.7001,-1.7001,-1.7001,-1.7001,-1.6979,-1.694,-1.682,-1.6851,-1.6904,-1.656,-1.6454,-1.6527,-1.632,-1.6183,-1.6183,-1.6183,-1.6183,0.0,-1.7277,-1.7195,-1.678,-1.6648,-1.6421,-1.5653,-1.5493,0.0,-1.4783,-1.4688,-1.4592,-1.4346,-1.4298,-1.4304,-1.4322,-1.4769,0.0,0.0,-1.5813,0.0,0.0,-1.7262,0.0,-1.7699,-1.7389,-1.7229,-1.7319,-1.7031,-1.6794,-1.6653,-1.6814,-1.6833,-1.6812,-1.7956,-1.8367,-1.7867,-1.8106,-1.8147,-1.804,-1.8078,-1.8207,-1.8412,-1.8358,-1.8433,-1.8433,-1.8433,-1.8433,-1.8433,-1.8433,-1.8433,-1.8433,-1.8433,-1.8433,-1.8433,-1.8433,-1.8433,-1.8433,-1.8433,-1.8433,-1.8433,-1.8433,-1.8433,-1.8433,-1.8433,-1.8433,-1.8433,-1.8433,-1.8433,-1.8433,-1.8433,-1.8433,-1.8433,-1.8433,-1.8433,-1.8433,-1.8433,-1.8433,-1.8433,-1.8433,-1.8433,-1.8433,-1.8433,-1.8433,-1.8433,-1.8433,-1.8433,-1.8352,-1.8121,-1.7889,-1.7658,-1.7426,-1.7179,-1.7028,-1.7028,-1.7017,-1.7001,-1.7001,-1.7007,-1.6914,-1.6822,-1.6782,-1.6665,-1.6412,-1.6367,-1.6334,-1.6183,-1.6183,-1.6183,-1.6183,-1.6183,-1.6183,-1.6077,0.0,-1.6453,-1.6367,-1.6177,-1.5919,0.0,0.0,0.0,0.0,0.0,0.0,0.0,-1.4298,-1.437,-1.4582,0.0,-1.5179,-1.5378,0.0,0.0,-1.6695,-1.7144,-1.732,-1.7083,-1.6893,-1.6786,-1.6692,-1.6546,-1.6328,-1.6201,-1.6313,-1.6364,-1.6251,-1.6493,-1.682,-1.7217,-1.7467,-1.7619,-1.755,-1.7922,-1.8116,-1.8159,-1.8352,-1.8433,-1.8433,-1.8433,-1.8433,-1.8433,-1.8433,-1.8433,-1.8433,-1.8433,-1.8433,-1.8433,-1.8433,-1.8433,-1.8433,-1.8433,-1.8433,-1.8433,-1.8433,-1.8433,-1.8433,-1.8433,-1.8433,-1.8433,-1.8433,-1.8433,-1.8433,-1.8433,-1.8433,-1.8433,-1.8433,-1.8433,-1.8433,-1.8433,-1.8433,-1.8433,-1.8433,-1.8433,-1.8433,-1.8433,-1.8433,-1.8433,-1.8433,-1.8433,-1.8352,-1.8121,-1.804,-1.7911,-1.7663,-1.7432,-1.7292,-1.7292,-1.7114,-1.7001,-1.7001,-1.6753,-1.6663,-1.6822,-1.6474,-1.6289,-1.6416,-1.6308,-1.6202,-1.6183,-1.6183,-1.6183,-1.6183,-1.6183,-1.6183,-1.5307,-1.5618,-1.5841,-1.5853,-1.5696,-1.541,-1.5213,0.0,0.0,0.0,0.0,0.0,0.0,0.0,0.0,0.0,-1.5034,0.0,0.0,0.0,-1.6509,-1.6586,-1.6744,-1.6716,0.0,-1.6425,-1.6197,-1.6024,-1.5833,-1.5515,-1.5262,-1.55,-1.5641,-1.5518,-1.5844,-1.6229,-1.6753,-1.6885,-1.7139,-1.7383,-1.7642,-1.7879,-1.8083,-1.8218,-1.8336,-1.8433,-1.8433,-1.8433,-1.8433,-1.8433,-1.8433,-1.8433,-1.8433,-1.8433,-1.8433,-1.8433,-1.8433,-1.8433,-1.8433,-1.8433,-1.8433,-1.8433,-1.8433,-1.8433,-1.8433,-1.8433,-1.8433,-1.8433,-1.8433,-1.8433,-1.8433,-1.8433,-1.8433,-1.8433,-1.8433,-1.8433,-1.8433,-1.8433,-1.8433,-1.8433,-1.8433,-1.8433,-1.8433,-1.8433,-1.8433,-1.8433,-1.8433,-1.839,-1.8266,-1.8159,-1.804,-1.7906,-1.768,-1.7473,-1.7339,-1.7151,-1.6981,-1.6764,-1.6629,-1.6519,-1.6449,-1.6248,-1.6187,-1.6284,-1.6263,-1.6183,-1.6183,-1.6183,-1.6183,-1.6183,-1.6183,-1.6131,-1.4692,-1.4968,-1.5226,-1.5367,-1.522,-1.4987,-1.4742,-1.4688,0.0,0.0,0.0,0.0,0.0,-1.4558,0.0,0.0,0.0,0.0,-1.6186,-1.6195,-1.6278,-1.6477,-1.6242,0.0,-1.6153,-1.5851,-1.5547,-1.5385,-1.5047,-1.467,-1.4338,-1.4604,-1.4735,-1.4735,-1.5323,-1.5844,-1.6239,-1.6369,-1.6729,-1.7258,-1.7296,-1.7588,-1.7986,-1.8062,-1.8196,-1.8385,-1.8422,-1.8433,-1.8433,-1.8433,-1.8433,-1.8433,-1.8433,-1.8433,-1.8433,-1.8433,-1.8433,-1.8433,-1.8433,-1.8433,-1.8433,-1.8433,-1.8433,-1.8433,-1.8433,-1.8433,-1.8433,-1.8433,-1.8433,-1.8433,-1.8433,-1.8433,-1.8433,-1.8433,-1.8433,-1.8433,-1.8433,-1.8433,-1.8433,-1.8433,-1.8433,-1.8433,-1.8433,-1.8433,-1.8433,-1.8433,-1.8433,-1.8363,-1.8363,-1.8197,-1.8079,-1.801,-1.7722,-1.7511,-1.7177,-1.7146,-1.6892,-1.6504,-1.6441,-1.6283,-1.6026,-1.6104,-1.617,-1.6174,-1.6183,-1.6183,-1.6183,-1.6183,-1.6183,-1.6183,-1.615,-1.6037,-1.4278,-1.4225,-1.4297,-1.4997,-1.4981,-1.4742,-1.4694,-1.4538,-1.4346,0.0,0.0,0.0,0.0,-1.469,-1.4865,0.0,0.0,-1.5785,0.0,0.0,-1.6148,-1.6175,0.0,-1.5649,-1.5624,-1.5206,-1.4915,-1.4771,-1.4568,-1.4338,-1.4006,-1.4006,-1.4076,-1.4076,-1.4137,-1.4534,-1.5127,-1.5779,-1.6254,-1.6621,-1.6881,-1.7145,-1.7502,-1.7906,-1.8116,-1.8159,-1.8352,-1.8433,-1.8433,-1.8433,-1.8433,-1.8433,-1.8433,-1.8433,-1.8433,-1.8433,-1.8433,-1.8433,-1.8433,-1.8433,-1.8433,-1.8433,-1.8433,-1.8433,-1.8433,-1.8433,-1.8433,-1.8433,-1.8433,-1.8433,-1.8433,-1.8433,-1.8433,-1.8433,-1.8433,-1.8433,-1.8433,-1.8433,-1.8433,-1.8433,-1.8433,-1.8433,-1.8433,-1.8433,-1.8433,-1.8433,-1.8433,-1.8293,-1.8007,-1.7975,-1.7814,-1.7469,-1.7205,-1.7072,-1.7072,-1.6821,-1.6543,-1.6151,-1.5968,-1.5844,-1.5686,-1.5969,-1.6188,-1.6178,-1.6183,-1.6183,-1.6183,-1.6183,-1.6183,-1.6178,-1.6064,-1.596,-1.3822,-1.3754,-1.3747,-1.4137,-1.4249,-1.4262,-1.4262,-1.4064,-1.3871,0.0,0.0,0.0,0.0,0.0,-1.4797,-1.5358,0.0,-1.5655,-1.5932,-1.5919,-1.5915,0.0,0.0,-1.5329,-1.5267,-1.4701,-1.4285,-1.4178,-1.377,-1.3499,-1.3306,-1.3406,-1.3466,-1.3466,-1.3757,-1.4076,-1.4338,-1.4861,-1.5513,-1.6239,-1.6538,-1.6855,-1.7113,-1.7537,-1.7846,-1.8099,-1.8207,-1.832,-1.8433,-1.8433,-1.8433,-1.8433,-1.8433,-1.8433,-1.8433,-1.8433,-1.8433,-1.8433,-1.8433,-1.8433,-1.8433,-1.8433,-1.8433,-1.8433,-1.8433,-1.8433,-1.8433,-1.8433,-1.8433,-1.8433,-1.8433,-1.8433,-1.8433,-1.8433,-1.8433,-1.8433,-1.8433,-1.8433,-1.8433,-1.8433,-1.8433,-1.8433,-1.8433,-1.8433,-1.8433,-1.8433,-1.8223,-1.8077,-1.7937,-1.7726,-1.7515,-1.7308,-1.7223,-1.7087,-1.6877,-1.6708,-1.6481,-1.6123,-1.5982,-1.5826,-1.5784,-1.6018,-1.6183,-1.6183,-1.6183,-1.6183,-1.6183,-1.6065,-1.6008,-1.6004,-1.5865,-1.5635,-1.3349,-1.3298,-1.3334,-1.3344,-1.359,-1.3786,-1.3786,-1.3688,-1.3576,-1.3576,0.0,0.0,0.0,-1.4447,0.0,-1.524,-1.5399,-1.5552,-1.5827,-1.5754,-1.5742,-1.5822,-1.5359,-1.489,-1.47,-1.4211,-1.3754,-1.3537,-1.3085,-1.2792,-1.267,-1.2808,-1.2909,-1.2951,-1.341,-1.3639,-1.3748,-1.4015,-1.467,-1.5779,-1.6109,-1.6462,-1.6826,-1.7148,-1.751,-1.7933,-1.7981,-1.8137,-1.8358,-1.8358,-1.8385,-1.8433,-1.8433,-1.8433,-1.8433,-1.8433,-1.8433,-1.8433,-1.8433,-1.8433,-1.8433,-1.8433,-1.8433,-1.8433,-1.8433,-1.8433,-1.8433,-1.8433,-1.8433,-1.8433,-1.8433,-1.8433,-1.8433,-1.8433,-1.8433,-1.8433,-1.8433,-1.8433,-1.8433,-1.8433,-1.8433,-1.8433,-1.8433,-1.8433,-1.8363,-1.8293,-1.8077,-1.7861,-1.765,-1.7374,-1.7097,-1.7026,-1.7026,-1.6956,-1.6593,-1.6593,-1.6457,-1.6142,-1.6013,-1.5931,-1.5931,-1.607,-1.6183,-1.6183,-1.6183,-1.616,-1.6108,-1.6012,-1.5903,-1.5855,-1.5578,-1.5394,-1.2772,-1.2801,-1.2831,-1.2848,-1.318,-1.3539,-1.3539,-1.3716,-1.3882,-1.3882,0.0,0.0,0.0,-1.4965,-1.5263,-1.5038,-1.5417,-1.5607,-1.5299,0.0,-1.5521,-1.5235,-1.4823,-1.4416,-1.3827,-1.3648,-1.3273,-1.2666,-1.2699,-1.267,-1.2367,-1.232,-1.2461,-1.2624,-1.2641,-1.2925,-1.3433,-1.3433,-1.3954,-1.4996,-1.5398,-1.5929,-1.653,-1.681,-1.7124,-1.7443,-1.7653,-1.7889,-1.8121,-1.8121,-1.8245,-1.8433,-1.8433,-1.8433,-1.8433,-1.8433,-1.8433,-1.8433,-1.8433,-1.8433,-1.8433,-1.8433,-1.8433,-1.8433,-1.8433,-1.8433,-1.8433,-1.8433,-1.8433,-1.8433,-1.8433,-1.8433,-1.8433,-1.8433,-1.8433,-1.8433,-1.8433,-1.8433,-1.8433,-1.8433,-1.8433,-1.8433,-1.8433,-1.8433,-1.8293,-1.8002,-1.7937,-1.765,-1.6871,-1.6729,-1.6593,-1.6325,-1.6254,-1.6254,-1.6254,-1.6254,-1.624,-1.6211,-1.6031,-1.5931,-1.5931,-1.607,-1.6183,-1.6183,-1.6183,-1.6084,-1.595,-1.5936,-1.5832,-1.5647,-1.5356,-1.5248,-1.2332,-1.2397,-1.2546,-1.2546,-1.2833,0.0,0.0,-1.3441,-1.3452,-1.3612,-1.3832,0.0,0.0,0.0,-1.4905,-1.5104,-1.5248,-1.5416,-1.5445,-1.5542,-1.5477,-1.5116,-1.4823,-1.4351,-1.3748,-1.3277,-1.2834,-1.2344,-1.2232,-1.2094,-1.1975,-1.2077,-1.2162,-1.2231,-1.2446,-1.273,-1.293,-1.3242,-1.3564,-1.3958,-1.474,-1.5398,-1.5924,-1.6196,-1.6637,-1.7113,-1.7198,-1.7435,-1.7863,-1.7863,-1.7911,-1.8008,-1.8164,-1.8309,-1.8433,-1.8433,-1.8433,-1.8433,-1.8433,-1.8433,-1.8433,-1.8433,-1.8433,-1.8433,-1.8433,-1.8433,-1.8433,-1.8433,-1.8433,-1.8433,-1.8433,-1.8433,-1.8433,-1.8433,-1.8433,-1.8433,-1.8433,-1.8433,-1.8433,-1.8433,-1.8433,-1.8433,-1.8433,-1.8217,-1.8077,-1.7937,-1.7439,-1.7012,-1.6729,-1.6523,-1.632,-1.6178,-1.6183,-1.6183,-1.6183,-1.6183,-1.6183,-1.6183,-1.6108,-1.606,-1.606,-1.6136,-1.6183,-1.6183,-1.6051,-1.6012,-1.5931,-1.5597,-1.5432,-1.5352,-1.5144,-1.4979,-1.1995,-1.2093,-1.2272,-1.218,0.0,0.0,-1.3147,-1.3222,-1.3292,-1.3534,-1.383,-1.4148,-1.4421,0.0,0.0,0.0,-1.5253,-1.5418,-1.5575,-1.5601,-1.5418,-1.4997,-1.4769,-1.4291,-1.3449,-1.2964,-1.2543,-1.2122,-1.1893,-1.1776,-1.1776,-1.1886,-1.1975,-1.2028,-1.2268,-1.2446,-1.2624,-1.295,-1.3242,-1.3437,-1.4085,-1.474,-1.5332,-1.5523,-1.5994,-1.6597,-1.6597,-1.6925,-1.7476,-1.7403,-1.7518,-1.7739,-1.7911,-1.8073,-1.8207,-1.8207,-1.8256,-1.8326,-1.8326,-1.8374,-1.8433,-1.8433,-1.8433,-1.8433,-1.8433,-1.8433,-1.8433,-1.8433,-1.8433,-1.8433,-1.8433,-1.8433,-1.8433,-1.8433,-1.8433,-1.8433,-1.8433,-1.8433,-1.8433,-1.8433,-1.8433,-1.8363,-1.8293,-1.8077,-1.7791,-1.758,-1.7082,-1.6664,-1.6593,-1.632,-1.6183,-1.6183,-1.6183,-1.6183,-1.6183,-1.6183,-1.6183,-1.6183,-1.6183,-1.6183,-1.6183,-1.6183,-1.6183,-1.6183,-1.5971,-1.5898,-1.5832,-1.5404,-1.52,-1.5068,-1.4932,-1.4866,-1.1705,-1.1871,-1.2048,-1.1773,0.0,0.0,-1.2593,-1.3064,-1.3545,-1.3782,-1.4153,-1.448,-1.4486,-1.4872,0.0,-1.5194,-1.5451,-1.5601,-1.5601,-1.5601,-1.5364,-1.4655,-1.4595,-1.4112,-1.284,-1.2719,-1.2423,-1.1837,-1.1776,-1.1776,-1.1776,-1.1776,-1.1853,-1.202,-1.1966,-1.2199,-1.262,-1.2624,-1.2852,-1.3367,-1.3371,-1.3892,-1.4866,-1.4866,-1.5323,-1.5969,-1.5969,-1.6362,-1.6899,-1.6828,-1.7163,-1.7717,-1.7717,-1.7717,-1.7717,-1.7717,-1.7879,-1.8094,-1.8094,-1.8239,-1.8358,-1.8433,-1.8433,-1.8433,-1.8433,-1.8433,-1.8433,-1.8433,-1.8433,-1.8433,-1.8433,-1.8433,-1.8433,-1.8433,-1.8433,-1.8433,-1.8433,-1.8433,-1.8433,-1.8433,-1.8363,-1.8293,-1.7931,-1.7861,-1.765,-1.68,-1.6729,-1.6593,-1.6249,-1.6183,-1.6183,-1.6183,-1.6183,-1.6183,-1.6183,-1.6183,-1.6183,-1.6183,-1.6183,-1.6183,-1.6183,-1.6183,-1.6183,-1.6183,-1.5971,-1.5827,-1.5628,-1.5337,-1.5059,-1.4866,-1.4866,-1.4866,-1.1465,-1.1592,0.0,-1.1651,0.0,0.0,0.0,-1.2751,0.0,0.0,-1.4103,-1.4359,-1.492,-1.5097,0.0,-1.5467,-1.5553,-1.5601,-1.5601,-1.5418,-1.5061,-1.465,-1.4411,-1.3868,-1.2779,-1.2719,-1.2423,-1.1837,-1.1776,-1.1712,-1.1462,-1.1458,-1.1482,-1.1533,-1.1594,-1.1833,-1.2186,-1.2438,-1.2657,-1.2844,-1.291,-1.3424,-1.4207,-1.4469,-1.48,-1.5257,-1.5523,-1.5884,-1.6266,-1.6467,-1.6931,-1.748,-1.748,-1.7577,-1.7717,-1.7717,-1.7766,-1.783,-1.783,-1.7873,-1.7959,-1.8137,-1.8196,-1.8223,-1.8385,-1.8433,-1.8433,-1.8433,-1.8433,-1.8433,-1.8433,-1.8433,-1.8433,-1.8433,-1.8433,-1.8433,-1.8433,-1.8223,-1.8077,-1.8077,-1.7801,-1.759,-1.752,-1.7228,-1.6941,-1.6729,-1.6527,-1.632,-1.6178,-1.6183,-1.6183,-1.6183,-1.6183,-1.6183,-1.6183,-1.6183,-1.6183,-1.6183,-1.6183,-1.6183,-1.6183,-1.6183,-1.6183,-1.6183,-1.5834,-1.5689,-1.5628,-1.52,-1.4993,-1.4866,-1.4866,-1.4866,-1.1235,-1.1368,0.0,-1.1554,-1.186,-1.2203,-1.2346,0.0,0.0,0.0,-1.41,-1.4394,-1.4945,-1.521,0.0,-1.5575,-1.5601,-1.5601,-1.5601,-1.5294,-1.4997,-1.465,-1.4356,-1.3808,-1.2779,-1.2719,-1.2423,-1.1837,-1.1651,-1.1522,-1.1333,-1.1152,-1.1091,-1.1091,-1.1313,-1.1525,-1.1781,-1.218,-1.2358,-1.2371,-1.2613,-1.2894,-1.3288,-1.3752,-1.4211,-1.4534,-1.5066,-1.5463,-1.5849,-1.6174,-1.6582,-1.7036,-1.7036,-1.7187,-1.7437,-1.7437,-1.7502,-1.7583,-1.7583,-1.758,-1.7547,-1.7696,-1.7808,-1.7909,-1.8047,-1.8148,-1.8217,-1.8217,-1.8082,-1.7942,-1.7942,-1.7942,-1.8012,-1.8363,-1.8293,-1.8217,-1.8217,-1.7937,-1.7655,-1.7655,-1.7444,-1.7238,-1.7092,-1.6875,-1.6664,-1.6523,-1.632,-1.6183,-1.6183,-1.6183,-1.6183,-1.6183,-1.6183,-1.6183,-1.6183,-1.6183,-1.6183,-1.6183,-1.6183,-1.6183,-1.6183,-1.6183,-1.6183,-1.6183,-1.5772,-1.5628,-1.5628,-1.5139,-1.4866,-1.4866,-1.4866,-1.4866,-1.0994,-1.1111,-1.128,-1.1448,-1.1696,0.0,-1.2077,-1.2685,-1.3272,-1.3563,0.0,-1.4505,-1.4766,-1.5221,-1.5537,-1.5601,-1.5601,-1.5601,-1.5601,-1.5299,-1.4937,-1.4655,-1.4351,-1.3748,-1.2779,-1.2719,-1.2423,-1.1837,-1.1462,-1.1273,-1.1273,-1.097,-1.0728,-1.0728,-1.1031,-1.129,-1.1445,-1.1773,-1.1948,-1.1956,-1.2363,-1.2401,-1.2309,-1.3038,-1.356,-1.394,-1.46,-1.5066,-1.5468,-1.5784,-1.6174,-1.6434,-1.6434,-1.6623,-1.6942,-1.6942,-1.7081,-1.728,-1.728,-1.7219,-1.7063,-1.7089,-1.7303,-1.748,-1.7517,-1.7673,-1.7835,-1.7856,-1.7585,-1.7308,-1.7308,-1.7308,-1.7449,-1.8153,-1.8077,-1.7866,-1.7866,-1.7515,-1.7238,-1.7238,-1.7238,-1.7097,-1.6734,-1.6664,-1.6523,-1.6249,-1.6183,-1.6183,-1.6183,-1.6183,-1.6183,-1.6183,-1.6183,-1.6183,-1.6183,-1.6183,-1.6183,-1.6183,-1.6183,-1.6183,-1.6183,-1.6183,-1.6183,-1.6183,-1.5791,-1.5647,-1.5628,-1.5158,-1.495,-1.4866,-1.4866,-1.4866,0.0,-1.0951,0.0,0.0,-1.1779,-1.2121,-1.2264,-1.2462,-1.2764,-1.337,-1.3606,-1.3984,-1.4847,-1.5144,-1.5294,-1.5537,-1.5601,-1.5601,-1.5601,-1.5067,-1.465,-1.4595,-1.4112,-1.3509,-1.2779,-1.2719,-1.2423,-1.1837,-1.1462,-1.1212,-1.091,-1.0607,-1.0425,-1.0425,-1.0486,-1.0686,-1.0963,-1.116,-1.133,-1.1471,-1.1728,-1.1877,-1.1912,-1.2972,-1.356,-1.3945,-1.4338,-1.4735,-1.5066,-1.5463,-1.5789,-1.6104,-1.6104,-1.6169,-1.6234,-1.6234,-1.626,-1.6306,-1.6306,-1.6276,-1.6277,-1.6461,-1.6552,-1.6659,-1.7001,-1.7138,-1.7215,-1.7393,-1.7379,-1.7308,-1.7308,-1.7308,-1.7308,-1.752,-1.7449,-1.7449,-1.7449,-1.7092,-1.6805,-1.6805,-1.6598,-1.6391,-1.632,-1.632,-1.6249,-1.6183,-1.6183,-1.6183,-1.6183,-1.6183,-1.6183,-1.6183,-1.6183,-1.6183,-1.6183,-1.6183,-1.6183,-1.6183,-1.6183,-1.6183,-1.6183,-1.6183,-1.6183,-1.6183,-1.5928,-1.5784,-1.5628,-1.5295,-1.5021,-1.4866,-1.4866,-1.4866,0.0,0.0,0.0,-1.1477,0.0,-1.2137,-1.234,-1.2387,-1.2531,-1.3082,-1.3257,-1.3611,-1.4397,-1.4777,-1.5049,-1.5337,-1.5477,-1.5601,-1.5601,-1.5007,-1.4595,-1.4595,-1.4052,-1.3444,-1.2779,-1.2719,-1.2423,-1.1837,-1.1341,-1.097,-1.0789,-1.0304,-1.0061,-1.0061,-1.0243,-1.0365,-1.0547,-1.0817,-1.0943,-1.0925,-1.1273,-1.161,-1.1846,-1.2576,-1.3034,-1.3424,-1.3752,-1.408,-1.4469,-1.48,-1.5197,-1.5518,-1.5719,-1.5849,-1.5974,-1.5974,-1.5974,-1.5974,-1.5974,-1.5909,-1.5804,-1.5858,-1.5962,-1.6087,-1.6378,-1.6518,-1.6579,-1.6808,-1.6728,-1.6682,-1.672,-1.6744,-1.6744,-1.6744,-1.688,-1.7021,-1.7021,-1.6739,-1.6457,-1.6457,-1.632,-1.6183,-1.6183,-1.6183,-1.6183,-1.6183,-1.6183,-1.6183,-1.6183,-1.6183,-1.6183,-1.6183,-1.6183,-1.6183,-1.6183,-1.6183,-1.6183,-1.6183,-1.6183,-1.6183,-1.6183,-1.6183,-1.6183,-1.6183,-1.5971,-1.5827,-1.5628,-1.5342,-1.513,-1.4866,-1.4866,-1.4866,0.0,0.0,-1.0863,-1.1624,-1.193,0.0,-1.234,-1.2387,-1.2434,-1.2673,-1.2952,-1.326,-1.3712,-1.4255,-1.4665,-1.4852,-1.5209,-1.5478,-1.5478,-1.4981,-1.4595,-1.4595,-1.4052,-1.3444,-1.2779,-1.2719,-1.2423,-1.1837,-1.116,-1.0789,-1.0789,-1.0183,-0.9822,-0.9822,-1.0065,-1.0183,-1.0183,-1.0486,-1.0569,-1.0422,-1.0924,-1.1296,-1.1648,-1.1978,-1.2309,-1.2638,-1.3104,-1.3428,-1.3748,-1.4141,-1.4539,-1.4866,-1.5202,-1.5523,-1.5844,-1.5844,-1.5844,-1.5844,-1.5844,-1.5654,-1.5403,-1.5403,-1.5515,-1.5661,-1.57,-1.5826,-1.6011,-1.6235,-1.6111,-1.5969,-1.6079,-1.6155,-1.6183,-1.6183,-1.6386,-1.6593,-1.6593,-1.6386,-1.6183,-1.6183,-1.6183,-1.6183,-1.6183,-1.6183,-1.6183,-1.6183,-1.6183,-1.6183,-1.6183,-1.6183,-1.6183,-1.6183,-1.6183,-1.6183,-1.6183,-1.6183,-1.6183,-1.6183,-1.6183,-1.6183,-1.6183,-1.6183,-1.6183,-1.6183,-1.6008,-1.5865,-1.5628,-1.538,-1.5167,-1.4866,-1.4866,-1.4866,0.0,0.0,-1.1227,0.0,-1.193,-1.2137,0.0,0.0,-1.2391,0.0,-1.269,-1.3006,-1.3464,-1.3628,-1.3809,-1.4125,-1.4582,-1.4887,-1.4887,-1.4706,-1.4595,-1.4595,-1.4052,-1.3444,-1.2779,-1.2719,-1.2423,-1.1837,-1.116,-1.0789,-1.0789,-1.0183,-0.9822,-0.9822,-0.9822,-0.9883,-0.9883,-0.9883,-0.9958,-1.0053,-1.0458,-1.0685,-1.0853,-1.1181,-1.1582,-1.1978,-1.2572,-1.2902,-1.3034,-1.3682,-1.4141,-1.4473,-1.4539,-1.4735,-1.5062,-1.5062,-1.5062,-1.5062,-1.5062,-1.4996,-1.5001,-1.5001,-1.502,-1.5072,-1.5248,-1.5319,-1.5386,-1.5609,-1.5794,-1.5936,-1.5965,-1.6041,-1.6183,-1.6183,-1.6254,-1.6249,-1.6249,-1.6254,-1.6183,-1.6183,-1.6183,-1.6183,-1.6183,-1.6183,-1.6183,-1.6183,-1.6183,-1.6183,-1.6183,-1.6183,-1.6183,-1.6183,-1.6183,-1.6183,-1.6183,-1.6183,-1.6183,-1.6183,-1.6183,-1.6183,-1.6183,-1.6183,-1.6183,-1.6183,-1.6155,-1.5947,-1.5628,-1.5531,-1.5314,-1.4866,-1.4866,-1.4866,-1.0159,-1.0641,-1.1099,0.0,-1.1628,-1.1822,-1.2142,-1.2217,-1.225,-1.2363,-1.2517,-1.2704,-1.303,-1.3228,-1.3436,-1.3678,-1.4068,-1.4405,-1.4528,-1.4338,-1.4272,-1.4341,-1.3992,-1.3444,-1.2779,-1.2719,-1.2423,-1.1837,-1.116,-1.0789,-1.0789,-1.0183,-0.9822,-0.9822,-0.9822,-0.9822,-0.9822,-0.9822,-0.9941,-1.0181,-1.031,-1.0493,-1.0721,-1.0853,-1.1118,-1.1516,-1.2045,-1.2375,-1.2572,-1.3095,-1.349,-1.3888,-1.408,-1.4338,-1.4604,-1.4604,-1.4735,-1.4866,-1.4866,-1.4866,-1.4866,-1.4866,-1.4866,-1.495,-1.504,-1.4997,-1.5106,-1.5319,-1.5441,-1.5564,-1.58,-1.5998,-1.6032,-1.6155,-1.6183,-1.6183,-1.6183,-1.6183,-1.6183,-1.6183,-1.6183,-1.6183,-1.6183,-1.6183,-1.6183,-1.6183,-1.6183,-1.6183,-1.6183,-1.6183,-1.6183,-1.6183,-1.6183,-1.6183,-1.6183,-1.6183,-1.6183,-1.6183,-1.6183,-1.6183,-1.6183,-1.6183,-1.6183,-1.6183,-1.6183,-1.6032,-1.5798,-1.5685,-1.5427,-1.5096,-1.4941,-1.4866,0.0,0.0,-1.0811,-1.1118,-1.1316,-1.1543,0.0,0.0,-1.2062,0.0,-1.2311,-1.2377,-1.2644,-1.2844,-1.3053,-1.3218,-1.3522,-1.3838,-1.3999,-1.3945,-1.3962,-1.4129,-1.3894,-1.3444,-1.2779,-1.2719,-1.2423,-1.1837,-1.116,-1.0789,-1.0789,-1.0183,-0.9822,-0.9822,-0.9822,-0.9822,-0.9822,-0.9822,-0.9954,-1.0222,-1.0259,-1.0415,-1.0663,-1.0704,-1.0853,-1.1115,-1.1446,-1.178,-1.2045,-1.2375,-1.2836,-1.3301,-1.349,-1.3879,-1.4272,-1.4272,-1.4469,-1.48,-1.48,-1.48,-1.4866,-1.4866,-1.4866,-1.4866,-1.4866,-1.4866,-1.4899,-1.5049,-1.5191,-1.5304,-1.5621,-1.5744,-1.5838,-1.6051,-1.6098,-1.6117,-1.6169,-1.6183,-1.6183,-1.6183,-1.6183,-1.6183,-1.6183,-1.6183,-1.6183,-1.6183,-1.6183,-1.6183,-1.6183,-1.6183,-1.6183,-1.6183,-1.6183,-1.6183,-1.6183,-1.6183,-1.6183,-1.6183,-1.6183,-1.6183,-1.6183,-1.6183,-1.6183,-1.6183,-1.6183,-1.607,-1.5908,-1.5682,-1.5484,-1.5176,-1.4965,-1.4866,0.0,-1.0336,0.0,-1.1047,-1.1203,0.0,0.0,0.0,-1.1893,-1.2057,-1.21,-1.2165,-1.2363,-1.2455,-1.246,-1.2469,-1.2911,-1.3269,-1.3279,-1.3637,-1.3903,-1.3912,-1.3803,-1.3444,-1.2779,-1.2719,-1.2423,-1.1837,-1.116,-1.0789,-1.0789,-1.0183,-0.9822,-0.9822,-0.9822,-0.9822,-0.9822,-0.9822,-0.99,-1.0,-1.0212,-1.0358,-1.051,-1.0653,-1.0721,-1.0721,-1.1049,-1.1247,-1.1314,-1.1714,-1.2243,-1.2836,-1.2836,-1.3293,-1.394,-1.394,-1.4141,-1.4403,-1.4403,-1.4604,-1.4866,-1.4866,-1.4866,-1.4866,-1.4866,-1.4866,-1.487,-1.488,-1.5021,-1.5238,-1.5262,-1.5418,-1.5694,-1.5898,-1.5946,-1.6002,-1.6136,-1.6183,-1.6183,-1.6183,-1.6183,-1.6183,-1.6183,-1.6183,-1.6183,-1.6183,-1.6183,-1.6183,-1.6183,-1.6183,-1.6183,-1.6183,-1.6183,-1.6183,-1.6183,-1.6183,-1.6183,-1.6183,-1.6183,-1.6183,-1.6183,-1.6183,-1.6183,-1.6183,-1.6183,-1.6116,-1.591,-1.568,-1.5474,-1.517,-1.5011,-1.4866,0.0,0.0,0.0,-1.0546,-1.0806,-1.1075,-1.1354,-1.1524,-1.168,-1.1888,-1.1935,-1.1997,-1.2156,-1.2297,-1.2387,-1.2387,-1.2552,-1.2762,-1.2906,-1.3226,-1.3457,-1.3542,-1.3625,-1.3444,-1.2779,-1.2719,-1.2423,-1.1837,-1.116,-1.0789,-1.0789,-1.0183,-0.9822,-0.9822,-0.9822,-0.9822,-0.9822,-0.9822,-0.9835,-0.9987,-1.0205,-1.0354,-1.0497,-1.0649,-1.0721,-1.0721,-1.085,-1.0982,-1.1181,-1.138,-1.1714,-1.2177,-1.2177,-1.2568,-1.3161,-1.3161,-1.3555,-1.4071,-1.4071,-1.4141,-1.4272,-1.4272,-1.4272,-1.4272,-1.4272,-1.4272,-1.4272,-1.4539,-1.465,-1.4804,-1.5134,-1.529,-1.5437,-1.5782,-1.5931,-1.5988,-1.6136,-1.6183,-1.6183,-1.6183,-1.6183,-1.6183,-1.6183,-1.6183,-1.6183,-1.6183,-1.6183,-1.6183,-1.6183,-1.6183,-1.6183,-1.6183,-1.6183,-1.6183,-1.6183,-1.6183,-1.6183,-1.6183,-1.6183,-1.6183,-1.6183,-1.6183,-1.6183,-1.6183,-1.6183,-1.6131,-1.6102,-1.5882,-1.5705,-1.5431,-1.5186,-1.5006,-0.9729,0.0,0.0,0.0,0.0,-1.074,-1.0943,0.0,-1.1368,-1.1567,-1.1666,-1.1784,-1.194,-1.2147,-1.2307,-1.2372,-1.2387,-1.2434,-1.2635,-1.2838,-1.3046,-1.3254,-1.3462,-1.3374,-1.2775,-1.2719,-1.2423,-1.1708,-1.1095,-1.0728,-1.0668,-1.0122,-0.9822,-0.9822,-0.9822,-0.9822,-0.9822,-0.9822,-0.9873,-0.9913,-1.0131,-1.0213,-1.0229,-1.0379,-1.0409,-1.0389,-1.0389,-1.0588,-1.1049,-1.1049,-1.1247,-1.1582,-1.1582,-1.1978,-1.2441,-1.2441,-1.2898,-1.3551,-1.3551,-1.3682,-1.3875,-1.3875,-1.3875,-1.3875,-1.3875,-1.3875,-1.394,-1.4141,-1.4338,-1.4501,-1.4827,-1.5049,-1.5304,-1.5583,-1.5706,-1.587,-1.5942,-1.6084,-1.6183,-1.6183,-1.6183,-1.6183,-1.6183,-1.6183,-1.6183,-1.6183,-1.6183,-1.6183,-1.6183,-1.6183,-1.6183,-1.6183,-1.6183,-1.6183,-1.6183,-1.6183,-1.6183,-1.6183,-1.6183,-1.6183,-1.6183,-1.6183,-1.6183,-1.6183,-1.6183,-1.6183,-1.6183,-1.6028,-1.5812,-1.5601,-1.5333,-1.5011,0.0,0.0,0.0,0.0,0.0,0.0,-1.0569,0.0,-1.0943,-1.1146,-1.1354,-1.1562,-1.177,-1.193,-1.2133,-1.2335,-1.2377,-1.2387,-1.2387,-1.263,-1.2894,-1.3093,-1.3254,-1.3226,-1.2757,-1.2719,-1.2298,-1.1394,-1.097,-1.0668,-1.0304,-1.0001,-0.9822,-0.9822,-0.9822,-0.9822,-0.9822,-0.9761,-0.9761,-0.9761,-0.9916,-0.9873,-0.9691,-0.9903,-0.9848,-0.9715,-0.9721,-1.0054,-1.0648,-1.0654,-1.0853,-1.1181,-1.1185,-1.1446,-1.178,-1.178,-1.2177,-1.277,-1.277,-1.3227,-1.3809,-1.3809,-1.3809,-1.3809,-1.3809,-1.3809,-1.3875,-1.3875,-1.4141,-1.4403,-1.4403,-1.4809,-1.5157,-1.5229,-1.5394,-1.5623,-1.5628,-1.5881,-1.6164,-1.6174,-1.6178,-1.6183,-1.6183,-1.6183,-1.6183,-1.6183,-1.6183,-1.6183,-1.6183,-1.6183,-1.6183,-1.6183,-1.6183,-1.6183,-1.6183,-1.6183,-1.6183,-1.6183,-1.6183,-1.6183,-1.6183,-1.6183,-1.6183,-1.6183,-1.6183,-1.6183,-1.6183,-1.6028,-1.5827,-1.5582,-1.5291,-1.4885,-0.9672,0.0,0.0,0.0,0.0,0.0,0.0,0.0,-1.0721,-1.0934,-1.1023,-1.1175,-1.1534,-1.1652,-1.1756,-1.1954,-1.2189,-1.2387,-1.2387,-1.263,-1.2842,-1.2904,-1.3169,-1.3175,-1.2513,-1.2581,-1.2298,-1.1394,-1.097,-1.0668,-1.0304,-1.0001,-0.9822,-0.9822,-0.9822,-0.9822,-0.9822,-0.9579,-0.9457,-0.946,-0.9363,-0.9327,-0.9243,-0.944,-0.9456,-0.9435,-0.9537,-0.9645,-0.9848,-0.9949,-1.006,-1.0127,-1.0389,-1.0721,-1.1052,-1.1251,-1.1648,-1.2111,-1.2111,-1.2243,-1.2371,-1.2371,-1.2371,-1.2371,-1.2371,-1.2568,-1.2766,-1.303,-1.3363,-1.3822,-1.4277,-1.4711,-1.5054,-1.5196,-1.5276,-1.5366,-1.5594,-1.5718,-1.5846,-1.5923,-1.6075,-1.6183,-1.6183,-1.6183,-1.6183,-1.6183,-1.6183,-1.6183,-1.6183,-1.6183,-1.6183,-1.6183,-1.6183,-1.6183,-1.6183,-1.6183,-1.6183,-1.6183,-1.6183,-1.6183,-1.6183,-1.6183,-1.6183,-1.6183,-1.6183,-1.6183,-1.6183,-1.6108,-1.5909,-1.5591,-1.496,-1.4417,-0.9771,-0.9861,0.0,0.0,0.0,0.0,-1.0184,-1.0346,-1.0531,-1.0612,-1.0702,-1.0863,-1.1198,-1.1326,-1.1449,-1.1657,-1.1964,-1.2156,-1.225,-1.2498,-1.2663,-1.2813,-1.3055,-1.3054,-1.2434,-1.255,-1.2238,-1.1152,-1.091,-1.0607,-1.0126,-0.9883,-0.9761,-0.9579,-0.9579,-0.9518,-0.9396,-0.9217,-0.9156,-0.9156,-0.906,-0.8942,-0.8872,-0.8944,-0.8943,-0.8875,-0.8951,-0.8986,-0.8995,-0.9127,-0.9347,-0.9731,-0.9927,-1.0127,-1.0323,-1.0522,-1.092,-1.1317,-1.1317,-1.1516,-1.178,-1.178,-1.178,-1.178,-1.178,-1.1912,-1.2177,-1.2507,-1.2972,-1.3564,-1.4211,-1.4534,-1.4763,-1.5012,-1.504,-1.5144,-1.5271,-1.5366,-1.5484,-1.5765,-1.5974,-1.6046,-1.6046,-1.6122,-1.6183,-1.6183,-1.6183,-1.6183,-1.6183,-1.6183,-1.6183,-1.6183,-1.6183,-1.6183,-1.6183,-1.6183,-1.6183,-1.6183,-1.6183,-1.6183,-1.6183,-1.6183,-1.6183,-1.6183,-1.6183,-1.6056,-1.5803,-1.5956,-1.5784,-1.5242,-1.4526,-1.4019,-0.9951,-0.9951,-0.9951,-0.9994,-0.9994,0.0,-0.9994,-1.0146,-1.0289,-1.0312,-1.046,-1.0654,-1.082,-1.1005,-1.1189,-1.1383,-1.16,-1.1831,-1.202,-1.2222,-1.2479,-1.2673,-1.2956,-1.2887,-1.239,-1.2579,-1.2157,-1.0906,-1.0728,-1.0425,-0.9758,-0.9761,-0.9579,-0.9278,-0.9278,-0.9156,-0.8915,-0.8854,-0.8854,-0.8854,-0.8793,-0.867,-0.8403,-0.8403,-0.834,-0.8195,-0.8209,-0.8214,-0.8225,-0.8361,-0.8876,-0.9576,-0.9588,-0.9661,-0.9661,-0.9661,-1.006,-1.0588,-1.0588,-1.1052,-1.1582,-1.1582,-1.1582,-1.1582,-1.1582,-1.1648,-1.178,-1.2177,-1.2774,-1.3498,-1.4146,-1.4338,-1.4403,-1.4735,-1.48,-1.48,-1.48,-1.4941,-1.5124,-1.5383,-1.5673,-1.5898,-1.5898,-1.6004,-1.615,-1.615,-1.6169,-1.6183,-1.6183,-1.6183,-1.6183,-1.6183,-1.6183,-1.6183,-1.6183,-1.6183,-1.6183,-1.6183,-1.6183,-1.6183,-1.6183,-1.6183,-1.6183,-1.6112,-1.6089,-1.5737,-1.5201,-1.5562,-1.5375,-1.4603,-1.4094,-1.3687,-0.965,-0.9689,-0.9733,-0.9951,-0.9994,0.0,-0.9994,-1.0028,-1.0108,-1.0284,-1.035,-1.0441,-1.0598,-1.0669,-1.0707,-1.0749,-1.1071,-1.1449,-1.1827,-1.201,-1.2161,-1.2203,-1.2597,-1.2678,-1.2183,-1.2323,-1.2022,-1.0899,-1.0304,-0.9822,-0.9396,-0.9396,-0.9278,-0.8976,-0.8976,-0.8976,-0.8915,-0.8613,-0.8491,-0.8491,-0.8241,-0.8066,-0.8027,-0.8027,-0.798,-0.7948,-0.8046,-0.8089,-0.8106,-0.8326,-0.8497,-0.8724,-0.9082,-0.9186,-0.9253,-0.9591,-0.9794,-0.9927,-0.9927,-0.9994,-1.0127,-1.0127,-1.0127,-1.0193,-1.0455,-1.0721,-1.1115,-1.2045,-1.2572,-1.3038,-1.3498,-1.3818,-1.401,-1.4071,-1.4076,-1.4076,-1.4076,-1.4103,-1.4143,-1.4249,-1.502,-1.5685,-1.5685,-1.5855,-1.5993,-1.5993,-1.607,-1.6183,-1.6183,-1.6183,-1.6183,-1.6183,-1.6183,-1.6183,-1.6183,-1.6183,-1.6183,-1.6183,-1.6183,-1.6183,-1.6183,-1.6183,-1.6042,-1.5696,-1.5316,-1.4914,-1.4636,-1.4746,-1.4481,-1.3921,-1.3633,-1.3297,-0.9459,-0.9432,-0.9476,-0.9607,-0.965,0.0,0.0,-0.9746,-0.9732,-1.0069,-1.0031,-1.0055,-1.0412,-1.0469,-1.0502,-1.0602,-1.0749,-1.0957,-1.1165,-1.1647,-1.1926,-1.1926,-1.2238,-1.2252,-1.1845,-1.1835,-1.1435,-1.0542,-0.9902,-0.9457,-0.9335,-0.9156,-0.8976,-0.8674,-0.8674,-0.8549,-0.8424,-0.8241,-0.818,-0.8119,-0.7994,-0.7872,-0.7872,-0.7872,-0.7872,-0.7875,-0.7996,-0.8023,-0.8037,-0.816,-0.8272,-0.8345,-0.8717,-0.8851,-0.8853,-0.9056,-0.9256,-0.9389,-0.9389,-0.9525,-0.9728,-0.9728,-0.9728,-0.9728,-0.9927,-1.0323,-1.0853,-1.1582,-1.2111,-1.2638,-1.3038,-1.3363,-1.3687,-1.3879,-1.3875,-1.3875,-1.3875,-1.3875,-1.3875,-1.3875,-1.4369,-1.4808,-1.4913,-1.5228,-1.5431,-1.5431,-1.5731,-1.5909,-1.6008,-1.6023,-1.6065,-1.6169,-1.6183,-1.6183,-1.6183,-1.6183,-1.6183,-1.6183,-1.6183,-1.6117,-1.5918,-1.5909,-1.5712,-1.5189,-1.4736,-1.4397,-1.4111,-1.3904,-1.3747,-1.3569,-1.3211,-1.2972,-0.9234,-0.9182,-0.9218,-0.927,-0.9305,-0.9349,0.0,0.0,0.0,-0.9727,0.0,0.0,0.0,0.0,0.0,-1.0276,0.0,0.0,0.0,-1.1079,0.0,-1.169,-1.1804,-1.1756,-1.1555,-1.1239,-1.0767,-1.0026,-0.9493,-0.9195,-0.9074,-0.8835,-0.8597,-0.8236,-0.8236,-0.8124,-0.7839,-0.7839,-0.785,-0.7872,-0.7872,-0.7872,-0.7872,-0.7872,-0.7872,-0.7872,-0.7872,-0.7872,-0.7883,-0.803,-0.8147,-0.8191,-0.847,-0.8568,-0.8587,-0.8587,-0.8787,-0.8984,-0.8984,-0.9189,-0.9461,-0.9461,-0.9528,-0.9594,-0.9594,-1.0057,-1.0654,-1.0986,-1.1578,-1.2177,-1.2507,-1.284,-1.3169,-1.342,-1.3486,-1.3486,-1.3486,-1.3486,-1.3486,-1.3486,-1.3486,-1.3598,-1.409,-1.4544,-1.4883,-1.4883,-1.5187,-1.548,-1.5713,-1.5731,-1.5797,-1.6041,-1.6065,-1.6075,-1.6169,-1.6075,-1.6037,-1.6046,-1.6042,-1.5838,-1.5501,-1.5381,-1.5114,-1.4631,-1.4241,-1.3865,-1.357,-1.3126,-1.3041,-1.3301,-1.2968,-1.277,-0.8791,-0.8837,-0.8931,-0.9213,-0.9305,-0.9305,-0.9345,0.0,-0.9052,-0.9117,0.0,0.0,0.0,0.0,0.0,0.0,0.0,0.0,-0.9989,-1.0218,-1.0616,-1.1222,-1.1378,-1.1503,-1.1474,-1.0843,-1.0138,-0.9521,-0.913,-0.8731,-0.8201,-0.8143,-0.7967,-0.7618,-0.7618,-0.767,-0.772,-0.7722,-0.7771,-0.7872,-0.7872,-0.7872,-0.7872,-0.7872,-0.7872,-0.7872,-0.7872,-0.7872,-0.7888,-0.8119,-0.8223,-0.8186,-0.8383,-0.8497,-0.8587,-0.8587,-0.8653,-0.8653,-0.8653,-0.8653,-0.8723,-0.8723,-0.892,-0.9183,-0.9183,-0.9655,-1.0323,-1.0654,-1.1049,-1.1446,-1.178,-1.1978,-1.1978,-1.2045,-1.2041,-1.2041,-1.2041,-1.2041,-1.2041,-1.2041,-1.2041,-1.2441,-1.3708,-1.4143,-1.4276,-1.4276,-1.4485,-1.4737,-1.5037,-1.5105,-1.5256,-1.5626,-1.5699,-1.5751,-1.5939,-1.5592,-1.5452,-1.5644,-1.5346,-1.5123,-1.5052,-1.46,-1.428,-1.4023,-1.351,-1.3204,-1.3163,-1.2609,-1.2592,-1.2836,-1.2836,-1.2638,-0.8513,-0.8444,-0.8446,-0.8555,-0.8549,-0.8512,-0.864,-0.8587,-0.8611,-0.8897,0.0,0.0,0.0,0.0,0.0,0.0,-0.9021,0.0,0.0,0.0,-0.9782,-1.0537,0.0,-1.0502,-1.0241,-1.0103,-0.968,-0.8947,-0.8702,-0.8445,-0.8041,-0.7807,-0.7635,-0.7519,-0.7519,-0.7543,-0.7595,-0.7665,-0.7725,-0.7774,-0.7839,-0.7872,-0.7872,-0.7872,-0.7872,-0.7872,-0.7872,-0.7872,-0.7886,-0.806,-0.8171,-0.8183,-0.8369,-0.8486,-0.8587,-0.8587,-0.8587,-0.8587,-0.8587,-0.8587,-0.8587,-0.8587,-0.872,-0.8851,-0.905,-0.9316,-0.9652,-0.999,-1.0389,-1.0721,-1.1052,-1.1317,-1.1516,-1.1714,-1.178,-1.178,-1.178,-1.178,-1.178,-1.178,-1.178,-1.1978,-1.2565,-1.3095,-1.3481,-1.3684,-1.394,-1.4227,-1.4481,-1.4567,-1.4675,-1.4928,-1.4932,-1.4995,-1.5054,-1.4943,-1.49,-1.4927,-1.4588,-1.4371,-1.4362,-1.3938,-1.353,-1.3146,-1.293,-1.2641,-1.2347,-1.2145,-1.2111,-1.2243,-1.2243,-1.2111,-0.8072,-0.7995,-0.7902,-0.7951,-0.7907,-0.7875,-0.8049,-0.8056,-0.815,-0.8455,-0.8508,0.0,0.0,0.0,0.0,0.0,0.0,-0.8656,0.0,-0.8759,0.0,0.0,-0.9971,-0.9722,-0.9219,-0.9447,-0.9269,-0.8365,-0.8279,-0.8121,-0.7818,-0.7533,-0.7418,-0.7418,-0.7418,-0.7434,-0.7467,-0.7557,-0.7635,-0.7703,-0.7785,-0.7842,-0.7872,-0.7872,-0.7872,-0.7872,-0.7872,-0.7872,-0.788,-0.8065,-0.8125,-0.8183,-0.8369,-0.8486,-0.8587,-0.8587,-0.8587,-0.8587,-0.8587,-0.8587,-0.8587,-0.8587,-0.8587,-0.8653,-0.8917,-0.905,-0.9183,-0.9455,-0.9791,-1.0127,-1.0389,-1.0588,-1.0853,-1.1118,-1.1251,-1.1251,-1.1251,-1.1251,-1.1251,-1.1251,-1.1251,-1.1251,-1.1317,-1.1978,-1.2638,-1.2906,-1.3227,-1.3537,-1.3815,-1.3899,-1.4085,-1.4283,-1.4371,-1.4356,-1.4433,-1.4345,-1.426,-1.4202,-1.3832,-1.3547,-1.3568,-1.3227,-1.2803,-1.2425,-1.2354,-1.2163,-1.178,-1.1582,-1.1516,-1.1516,-1.1582,-1.1582,-0.7411,-0.7417,-0.743,-0.7483,-0.761,-0.772,-0.772,-0.7658,-0.7645,-0.7649,-0.7483,-0.7413,-0.7698,0.0,0.0,0.0,0.0,0.0,0.0,0.0,0.0,0.0,-0.9595,-0.9534,-0.8889,-0.9004,-0.8764,-0.7879,-0.7798,-0.7644,-0.7271,-0.7221,-0.7221,-0.7221,-0.7221,-0.7222,-0.7282,-0.7288,-0.7467,-0.7701,-0.7706,-0.7766,-0.7872,-0.7872,-0.7872,-0.7872,-0.7872,-0.7872,-0.788,-0.8065,-0.8125,-0.8183,-0.8369,-0.8486,-0.8587,-0.8587,-0.8587,-0.8587,-0.8587,-0.8587,-0.8587,-0.8587,-0.8587,-0.8587,-0.8587,-0.8851,-0.9117,-0.9117,-0.9389,-0.9731,-0.9728,-0.9728,-0.9728,-0.9794,-0.9794,-0.9794,-0.9794,-0.9794,-0.9794,-0.9794,-0.9794,-0.9861,-1.0193,-1.1118,-1.1846,-1.1846,-1.2111,-1.2441,-1.2778,-1.3178,-1.3573,-1.3897,-1.3901,-1.3976,-1.42,-1.3836,-1.3601,-1.3468,-1.3034,-1.2805,-1.2637,-1.2292,-1.1948,-1.1858,-1.1854,-1.185,-1.178,-1.1052,-1.0721,-1.0721,-1.1052,-1.1049,-0.7192,-0.7157,-0.7066,-0.7263,-0.7222,-0.7097,-0.7097,-0.7204,-0.7238,-0.7231,-0.7395,-0.7516,-0.7392,0.0,0.0,0.0,0.0,0.0,0.0,0.0,0.0,0.0,0.0,-0.8854,-0.8482,-0.8709,-0.8463,-0.7485,-0.7634,-0.7591,-0.7095,-0.7169,-0.721,-0.721,-0.721,-0.7229,-0.7217,-0.7296,-0.7418,-0.7581,-0.7663,-0.7761,-0.7872,-0.7872,-0.7872,-0.7872,-0.7872,-0.7872,-0.788,-0.8065,-0.8125,-0.8183,-0.8369,-0.8486,-0.8587,-0.8587,-0.8587,-0.8587,-0.8587,-0.8587,-0.8587,-0.8587,-0.8587,-0.8587,-0.8587,-0.8653,-0.8787,-0.8787,-0.8856,-0.8989,-0.9253,-0.9319,-0.9389,-0.9661,-0.9728,-0.9728,-0.9728,-0.9728,-0.9728,-0.9728,-0.9728,-0.9728,-0.9861,-1.0193,-1.0654,-1.1317,-1.1714,-1.1978,-1.2111,-1.2243,-1.2371,-1.2491,-1.2483,-1.2549,-1.2576,-1.251,-1.241,-1.2355,-1.2193,-1.2119,-1.2062,-1.1659,-1.1367,-1.1052,-1.0853,-1.0654,-1.0389,-1.0193,-1.006,-1.006,-0.9851,-0.9918,-0.6693,-0.6635,-0.6519,-0.672,-0.6636,-0.65,-0.65,-0.6667,-0.6854,-0.6811,-0.7119,-0.7324,-0.7166,0.0,0.0,0.0,0.0,0.0,0.0,-0.7387,0.0,-0.7549,-0.801,0.0,-0.8139,-0.8229,-0.8024,-0.7282,-0.7422,-0.7369,-0.7035,-0.7109,-0.7166,-0.721,-0.721,-0.721,-0.721,-0.7274,-0.7339,-0.7521,-0.7644,-0.7761,-0.7872,-0.7872,-0.7872,-0.7872,-0.7872,-0.7872,-0.7877,-0.8018,-0.8087,-0.818,-0.8323,-0.8448,-0.8587,-0.8587,-0.8587,-0.8587,-0.8587,-0.8587,-0.8587,-0.8587,-0.8587,-0.8587,-0.8587,-0.8587,-0.8587,-0.8587,-0.8587,-0.8653,-0.8853,-0.8917,-0.8987,-0.9259,-0.9325,-0.9325,-0.9325,-0.9325,-0.9325,-0.9325,-0.9325,-0.9325,-0.9325,-0.9392,-0.9724,-1.0522,-1.1118,-1.1383,-1.1383,-1.1648,-1.1773,-1.1828,-1.1828,-1.1769,-1.1788,-1.1791,-1.1721,-1.1582,-1.1449,-1.1383,-1.1251,-1.0853,-1.0588,-1.0323,-1.0123,-0.9927,-0.9728,-0.9525,-0.9458,-0.9325,-0.892,-0.879]}]]